[[{"header":{"parameterUnit":"m.s-1","parameterCategory":1,"la1":30.6,"la2":29.2853,"lo1":-89.7004,"lo2":-87.6739,"dy":0.0162,"dx":0.0183,"nx":112,"ny":82,"refTime":"2026-05-08T12:00:00:Z","depth":0,"parameterNumber":2,"parameterNumberName":"U-component_of_WINDS"},"data":[0.0,0.0,0.0,0.0,0.0,0.0,0.0,0.0,0.0,0.0,0.0,0.0,0.0,0.0,0.0,0.0,0.0,0.0,0.0,0.0,0.0,0.0,0.0,0.0,0.0,0.0,0.0,0.0,0.0,0.0,0.0,0.0,0.0,0.0,0.0,0.0,0.0,0.0,0.0,0.0,0.0,0.0,0.0,0.0,0.0,0.0,0.0,0.0,0.0,0.0,0.0,0.0,0.0,0.0,0.0,0.0,0.0,0.0,0.0,0.0,0.0,0.0,0.0,0.0,0.0,0.0,0.0,0.0,0.0,0.0,0.0,0.0,0.0,0.0,0.0,0.0,0.0,0.0,0.0,0.0,0.0,0.0,0.0,0.0,0.0,0.0,0.0,0.0,0.0,0.0,0.3495,0.2995,0.3228,0.3292,0.3051,0.1198,-0.0405,-0.1366,0.0,0.0,0.0,0.0,0.0,0.0,0.0,0.0,0.0,0.0,0.0,0.0,0.0,0.0,0.0,0.0,0.0,0.0,0.0,0.0,0.0,0.0,0.0,0.0,0.0,0.0,0.0,0.0,0.0,0.0,0.0,0.0,0.0,0.0,0.0,0.0,0.0,0.0,0.0,0.0,0.0,0.0,0.0,0.0,0.0,0.0,0.0,0.0,0.0,0.0,0.0,0.0,0.0,0.0,0.0,0.0,0.0,0.0,0.0,0.0,0.0,0.0,0.0,0.0,0.0,0.0,0.0,0.0,0.0,0.0,0.0,0.0,0.0,0.0,0.0,0.0,0.0,0.0,0.0,0.0,0.0,0.0,0.0,0.0,0.0,0.0,0.0,0.0,0.0,0.0,0.0,0.0,0.0,0.0,0.0,0.0,0.0,0.0,0.0,0.0,0.0,0.0,0.0,0.0,0.2101,0.1503,0.1565,0.1136,-0.0244,-0.0718,-0.1988,-0.4547,0.0,0.0,0.0,0.0,0.0,0.0,0.0,0.0,0.0,0.0,0.0,0.0,0.0,0.0,0.0,0.0,0.0,0.0,0.0,0.0,0.0,0.0,0.0,0.0,0.0,0.0,0.0,0.0,0.0,0.0,0.0,0.0,0.0,0.0,0.0,0.0,0.0,0.0,0.0,0.0,0.0,0.0,0.0,0.0,0.0,0.0,0.0,0.0,0.0,0.0,0.0,0.0,0.0,0.0,0.0,0.0,0.0,0.0,0.0,0.0,0.0,0.0,0.0,0.0,0.0,0.0,0.0,0.0,0.0,0.0,0.0,0.0,0.0,0.0,0.0,0.0,0.0,0.0,0.0,0.0,0.0,0.0,0.0,0.0,0.0,0.0,0.0,0.0,0.0,0.0,0.0,0.0,0.0,0.0,0.0,0.0,0.0,0.0,0.0,0.0,0.0,0.0,0.0,0.0164,0.0224,-0.0061,-0.0122,-0.0543,-0.1581,-0.2411,-0.346,-0.4865,-0.5779,0.0,0.0,0.0,0.0,0.0,0.0,0.0,0.0,0.0,0.0,0.0,0.0,0.0,0.0,0.0,0.0,0.0,0.0,0.0,0.0,0.0,0.0,0.0,0.0,0.0,0.0,0.0,0.0,0.0,0.0,0.0,0.0,0.0,0.0,0.0,0.0,0.0,0.0,0.0,0.0,0.0,0.0,0.0,0.0,0.0,0.0,0.0,0.0,0.0,0.0,0.0,0.0,0.0,0.0,0.0,0.0,0.0,0.0,0.0,0.0,0.0,0.0,0.0,0.0,0.0,0.0,0.0,0.0,0.0,0.0,0.0,0.0,0.0,0.0,0.0,0.0,0.0,0.0,0.0,0.0,0.0,0.0,0.0,0.0,0.0,0.0,0.0,0.0,0.0,0.0,0.0,0.0,0.0,0.0,0.0,0.0,0.0,0.0,0.0,0.0,0.0,0.0,-0.1264,-0.1431,-0.1622,-0.1714,-0.2128,-0.2894,-0.3954,-0.4827,-0.548,-0.6984,0.0,0.0,0.0,0.0,0.0,0.0,0.0,0.0,0.0,0.0,0.0,0.0,0.0,0.0,0.0,0.0,0.0,0.0,0.0,0.0,0.0,0.0,0.0,0.0,0.0,0.0,0.0,0.0,0.0,0.0,0.0,0.0,0.0,0.0,0.0,0.0,0.0,0.0,0.0,0.0,0.0,0.0,0.0,0.0,0.0,0.0,0.0,0.0,0.0,0.0,0.0,0.0,0.0,0.0,0.0,0.0,0.0,0.0,0.0,0.0,0.0,0.0,0.0,0.0,0.0,0.0,0.0,0.0,0.0,0.0,0.0,0.0,0.0,0.0,0.0,0.0,0.0,0.0,0.0,0.0,0.0,0.0,0.0,0.0,0.0,0.0,0.0,0.0,0.0,0.0,0.0,0.0,0.0,0.0,0.0,0.0,0.0,0.0,0.0,0.0,0.0,0.0,-0.2032,-0.2392,-0.3089,-0.3143,-0.3721,-0.5132,-0.5133,-0.5956,-0.8084,-0.8058,0.0,0.0,0.0,0.0,0.0,0.0,0.0,0.0,0.0,0.0,0.0,0.0,0.0,0.0,0.0,0.0,0.0,0.0,0.0,0.0,0.0,0.0,0.0,0.0,0.0,0.0,0.0,0.0,0.0,0.0,0.0,0.0,0.0,0.0,0.0,0.0,0.0,0.0,0.0,0.0,0.0,0.0,0.0,0.0,0.0,0.0,0.0,0.0,0.0,0.0,0.0,0.0,0.0,0.0,0.0,0.0,0.0,0.0,0.0,0.0,0.0,0.0,0.0,0.0,0.0,0.0,0.0,0.0,0.0,0.0,0.0,0.0,0.0,0.0,0.0,0.0,0.0,0.0,0.0,0.0,0.0,0.0,0.0,0.0,0.0,0.0,0.0,0.0,0.0,0.0,0.0,0.0,0.0,0.0,0.0,0.0,0.0,0.0,0.0,0.0,0.0,0.0,-0.4588,-0.4836,-0.5453,-0.5723,-0.5904,-0.6154,-0.6541,-0.7246,-0.8432,0.0,0.0,0.0,0.0,0.0,0.0,0.0,0.0,0.0,0.0,0.0,0.0,0.0,0.0,0.0,0.0,0.0,0.0,0.0,0.0,0.0,0.0,0.0,0.0,0.0,0.0,0.0,0.0,0.0,0.0,0.0,0.0,0.0,0.0,0.0,0.0,0.0,0.0,0.0,0.0,0.0,0.0,0.0,0.0,0.0,0.0,0.0,0.0,0.0,0.0,0.0,0.0,0.0,0.0,0.0,0.0,0.0,0.0,0.0,0.0,0.0,0.0,0.0,0.0,0.0,0.0,0.0,0.0,0.0,0.0,0.0,0.0,0.0,0.0,0.0,0.0,0.0,0.0,0.0,0.0,0.0,0.0,0.0,0.0,0.0,0.0,0.0,0.0,0.0,0.0,0.0,0.0,0.0,0.0,0.0,0.0,0.0,0.0,0.0,0.0,0.0,0.0,-0.6085,-0.6092,-0.6345,-0.7192,-0.7449,-0.7499,-0.7322,-0.7576,-0.7973,-0.8547,0.0,0.0,0.0,0.0,0.0,0.0,0.0,0.0,0.0,0.0,0.0,0.0,0.0,0.0,0.0,0.0,0.0,0.0,0.0,0.0,0.0,0.0,0.0,0.0,0.0,0.0,0.0,0.0,0.0,0.0,0.0,0.0,0.0,0.0,0.0,0.0,0.0,0.0,0.0,0.0,0.0,0.0,0.0,0.0,0.0,0.0,0.0,0.0,0.0,0.0,0.0,0.0,0.0,0.0,0.0,0.0,0.0,0.0,0.0,0.0,0.0,0.0,0.0,0.0,0.0,0.0,0.0,0.0,0.0,0.0,0.0,0.0,0.0,0.0,0.0,0.0,0.0,0.0,0.0,0.0,0.0,0.0,0.0,0.0,0.0,0.0,0.0,0.0,0.0,0.0,0.0,0.0,0.0,0.0,0.0,0.0,0.0,0.0,0.0,0.0,0.0,0.0,-0.6248,-0.6196,-0.6563,-0.8055,-0.8229,-0.8404,-0.8785,-0.8277,-0.8119,0.0,0.0,0.0,0.0,0.0,0.0,0.0,0.0,0.0,0.0,0.0,0.0,0.0,0.0,0.0,0.0,0.0,0.0,0.0,0.0,0.0,0.0,0.0,0.0,0.0,0.0,0.0,0.0,0.0,0.0,0.0,0.0,0.0,0.0,0.0,0.0,0.0,0.0,0.0,0.0,0.0,0.0,0.0,0.0,0.0,0.0,0.0,0.0,0.0,0.0,0.0,0.0,0.0,0.0,0.0,0.0,0.0,0.0,0.0,0.0,0.0,0.0,0.0,0.0,0.0,0.0,0.0,0.0,0.0,0.0,0.0,0.0,0.0,0.0,0.0,0.0,0.0,0.0,0.0,0.0,0.0,0.0,0.0,0.0,0.0,0.0,0.0,0.0,0.0,0.0,0.0,0.0,0.0,0.0,0.0,0.0,0.0,0.0,0.0,0.0,0.0,0.0,0.0,-0.6654,-0.6991,-0.7374,-0.8248,-0.8901,-0.9199,-0.9084,-0.8764,-0.8407,-0.8139,0.0,0.0,0.0,0.0,0.0,0.0,0.0,0.0,0.0,0.0,0.0,0.0,0.0,0.0,0.0,0.0,0.0,0.0,0.0,0.0,0.0,0.0,0.0,0.0,0.0,0.0,0.0,0.0,0.0,0.0,0.0,0.0,0.0,0.0,0.0,0.0,0.0,0.0,0.0,0.0,0.0,0.0,0.0,0.0,0.0,0.0,0.0,0.0,0.0,0.0,0.0,0.0,0.0,0.0,0.0,0.0,0.0,0.0,0.0,0.0,0.0,0.0,0.0,0.0,0.0,0.0,0.0,0.0,0.0,0.0,0.0,0.0,0.0,0.0,0.0,0.0,0.0,0.0,0.0,0.0,0.0,0.0,0.0,0.0,0.0,0.0,0.0,0.0,0.0,0.0,0.0,0.0,0.0,0.0,0.0,0.0,0.0,0.0,0.0,0.0,0.0,0.0,-0.7024,-0.7105,-0.7235,-0.7881,-0.8715,-0.9042,-0.8654,-0.8368,-0.8006,-0.7631,0.0,0.0,0.0,0.0,0.0,0.0,0.0,0.0,0.0,0.0,0.0,0.0,0.0,0.0,0.0,0.0,0.0,0.0,0.0,0.0,0.0,0.0,0.0,0.0,0.0,0.0,0.0,0.0,0.0,0.0,0.0,0.0,0.0,0.0,0.0,0.0,0.0,0.0,0.0,0.0,0.0,0.0,0.0,0.0,0.0,0.0,0.0,0.0,0.0,0.0,0.0,0.0,0.0,0.0,0.0,0.0,0.0,0.0,0.0,0.0,0.0,0.0,0.0,0.0,0.0,0.0,0.0,0.0,0.0,0.0,0.0,0.0,0.0,0.0,0.0,0.0,0.0,0.0,0.0,0.0,0.0,0.0,0.0,0.0,0.0,0.0,0.0,0.0,0.0,0.0,0.0,0.0,0.0,0.0,0.0,0.0,0.0,0.0,0.0,0.0,0.0,0.0,-0.7156,-0.6654,-0.6446,-0.7136,-0.7876,-0.8086,-0.7686,-0.7419,-0.7164,-0.6952,0.0,0.0,0.0,0.0,0.0,0.0,0.0,0.0,0.0,0.0,0.0,0.0,0.0,0.0,0.0,0.0,0.0,0.0,0.0,0.0,0.0,0.0,0.0,0.0,0.0,0.0,0.0,0.0,0.0,0.0,0.0,0.0,0.0,0.0,0.0,0.0,0.0,0.0,0.0,0.0,0.0,0.0,0.0,0.0,0.0,0.0,0.0,0.0,0.0,0.0,0.0,0.0,0.0,0.0,0.0,0.0,0.0,0.0,0.0,0.0,-0.2487,-0.2589,0.0,0.0,0.0,0.0,0.0,0.0,0.0,0.0,0.0,0.0,0.0,0.0,0.0,0.0,0.0,0.0,0.0,0.0,0.0,0.0,0.0,0.0,0.0,0.0,0.0,0.0,0.0,0.0,0.0,0.0,0.0,0.0,0.0,0.0,0.0,0.0,0.0,0.0,0.0,0.0,-0.6279,-0.6248,-0.6171,-0.6538,-0.7072,-0.7348,-0.7253,-0.6916,-0.6423,-0.5738,-0.558,0.0,0.0,0.0,0.0,0.0,0.0,0.0,0.0,0.0,0.0,0.0,0.0,0.0,0.0,0.0,0.0,0.0,0.0,0.0,0.0,0.0,0.0,0.0,0.0,0.0,0.0,0.0,0.0,0.0,0.0,0.0,0.0,0.0,0.0,0.0,0.0,0.0,0.0,0.0,0.0,0.0,0.0,0.0,0.0,0.0,0.0,0.0,0.0,0.0,0.0,0.0,0.0,0.0,0.0,0.0,0.0,0.0,0.0,0.0,-0.1604,-0.1474,0.0,0.0,0.0,0.0,0.0,0.0,0.0,0.0,0.0,0.0,0.0,0.0,0.0,0.0,0.0,0.0,0.0,0.0,0.0,0.0,0.0,0.0,0.0,0.0,0.0,0.0,0.0,0.0,0.0,0.0,0.0,0.0,0.0,0.0,0.0,0.0,0.0,0.0,0.0,0.0,-0.5784,-0.5693,-0.5589,-0.5693,-0.6203,-0.6529,-0.6323,-0.6151,-0.5846,-0.534,-0.4964,0.0,0.0,0.0,0.0,0.0,0.0,0.0,0.0,0.0,0.0,0.0,0.0,0.0,0.0,0.0,0.0,0.0,0.0,0.0,0.0,0.0,0.0,0.0,0.0,0.0,0.0,0.0,0.0,0.0,0.0,0.0,0.0,0.0,0.0,0.0,0.0,0.0,0.0,0.0,0.0,0.0,0.0,0.0,0.0,0.0,0.0,0.0,0.0,0.0,0.0,0.0,0.0,0.0,-0.3965,-0.2912,-0.1131,-0.2026,-0.2392,-0.2381,-0.1797,-0.1266,-0.079,-0.2151,0.0,0.0,0.0,0.0,0.0,0.0,0.0,0.0,0.0,0.0,0.0,0.0,0.0,0.0,0.0,0.0,0.0,0.0,0.0,0.0,0.0,0.0,0.0,0.0,-0.5535,-0.5547,-0.5262,0.0,0.0,0.0,0.0,0.0,0.0,0.0,0.0,0.0,0.0,0.0,-0.549,-0.529,-0.5057,-0.4965,-0.5476,-0.5691,-0.5445,-0.5421,-0.536,-0.5222,-0.4528,-0.4066,0.0,0.0,0.0,0.0,0.0,0.0,0.0,0.0,0.0,0.0,0.0,0.0,0.0,0.0,0.0,0.0,0.0,0.0,0.0,0.0,0.0,0.0,0.0,0.0,0.0,0.0,0.0,0.0,0.0,0.0,0.0,0.0,-0.5939,-0.6091,0.0,0.0,0.0,0.0,0.0,0.0,0.0,0.0,0.0,0.0,0.0,0.0,0.0,-0.7662,-0.7222,-0.741,-0.7336,-0.7187,-0.6354,-0.5718,-0.5405,-0.4357,-0.3941,-0.3936,-0.3738,0.0,-0.3321,-0.3538,0.0,0.0,0.0,0.0,0.0,0.0,0.0,0.0,0.0,0.0,0.0,0.0,0.0,0.0,0.0,0.0,0.0,0.0,0.0,0.0,0.0,0.0,-0.5978,-0.5772,-0.5759,-0.5708,0.0,-0.5612,-0.5632,-0.5253,-0.5553,-0.5724,0.0,0.0,0.0,0.0,0.0,0.0,-0.5522,-0.5195,-0.4989,-0.5091,-0.5051,-0.5022,-0.498,-0.4977,-0.4966,-0.4949,-0.4745,-0.4535,-0.4436,-0.3646,0.0,0.0,0.0,0.0,0.0,0.0,0.0,0.0,0.0,0.0,0.0,0.0,0.0,0.0,0.0,0.0,0.0,0.0,0.0,0.0,0.0,0.0,0.0,0.0,0.0,0.0,0.0,0.0,0.0,-0.5952,-0.6305,-0.6373,-0.6458,-0.6931,0.0,0.0,0.0,0.0,0.0,0.0,0.0,0.0,0.0,-0.7095,-0.7603,-0.7834,-0.7773,-0.7909,-0.7646,-0.7062,-0.6605,-0.6009,-0.5285,-0.5444,-0.5526,-0.5523,-0.6189,-0.6377,-0.6126,-0.5139,-0.4749,-0.4958,0.0,0.0,0.0,0.0,-0.6291,-0.5444,-0.5657,-0.4983,-0.404,-0.3581,0.0,0.0,0.0,0.0,0.0,0.0,0.0,-0.8633,0.0,0.0,-0.6984,-0.6325,-0.6118,-0.602,-0.5871,-0.5888,-0.5749,-0.5086,-0.5186,-0.5211,-0.4766,-0.4679,0.0,0.0,0.0,-0.489,-0.5282,-0.5258,-0.5159,-0.5131,-0.5074,-0.5006,-0.4925,-0.4918,-0.4918,-0.4918,-0.4857,-0.4789,-0.4721,-0.4262,-0.3997,0.0,0.0,0.0,0.0,0.0,0.0,0.0,0.0,0.0,0.0,0.0,0.0,0.0,0.0,0.0,0.0,0.0,0.0,0.0,0.0,0.0,0.0,0.0,0.0,0.0,0.0,0.0,0.0,-0.6451,-0.6746,-0.6705,-0.6871,-0.7502,0.0,0.0,0.0,0.0,0.0,0.0,-0.7139,-0.7255,-0.7451,-0.7763,-0.7872,-0.8075,-0.8381,-0.8384,-0.7925,-0.7093,-0.7093,-0.6557,-0.5696,-0.6632,-0.7043,-0.7149,-0.8486,-0.8966,-0.8603,-0.6826,-0.5882,-0.5782,-0.6447,-0.6614,-0.6659,-0.7975,-0.7862,-0.7071,-0.7694,-0.7281,-0.6355,-0.5675,-0.5357,-0.5482,-0.6687,0.0,0.0,0.0,0.0,-1.0254,-0.9792,-0.8876,-0.7947,-0.7137,-0.6683,-0.6332,-0.6176,-0.6115,-0.5891,-0.522,-0.5091,-0.4958,-0.4488,-0.4562,0.0,-0.4585,-0.4802,-0.5009,-0.5114,-0.5455,-0.5705,-0.5517,-0.5691,-0.5709,-0.5406,-0.5337,-0.5275,-0.5033,-0.5033,-0.5016,-0.4975,-0.4755,-0.4579,-0.4519,0.0,0.0,0.0,0.0,0.0,0.0,0.0,0.0,0.0,0.0,0.0,0.0,0.0,0.0,0.0,0.0,0.0,0.0,0.0,0.0,0.0,0.0,0.0,0.0,0.0,0.0,0.0,0.0,0.0,-0.7343,-0.758,0.0,0.0,0.0,0.0,-0.8483,-0.8649,-0.8543,-0.775,-0.7773,-0.7919,-0.8228,-0.8245,-0.8391,-0.8686,-0.8686,-0.8764,-0.8803,-0.8803,-0.8692,-0.8689,-0.8655,-0.8588,-0.8689,-0.9995,-1.053,-1.0381,-0.8614,-0.764,-0.7255,-0.7333,-0.7231,-0.7183,-0.8574,-0.9005,-0.9174,-1.0393,-1.0742,-1.0641,-1.0535,-1.0168,-0.9873,-0.9698,-1.0312,0.0,0.0,-1.0506,-1.0967,-1.0359,-0.9275,-0.8376,-0.8302,-0.7491,-0.6637,-0.6481,-0.6342,-0.6112,-0.5647,-0.5555,-0.5457,-0.5142,0.0,-0.505,-0.4914,-0.5023,-0.5121,-0.5128,-0.6028,-0.665,-0.6641,-0.7358,-0.7548,-0.6694,-0.6624,-0.624,-0.5404,-0.5404,-0.5274,-0.5125,-0.5104,-0.4897,-0.4525,-0.4488,0.0,0.0,0.0,0.0,0.0,0.0,0.0,0.0,0.0,0.0,0.0,0.0,0.0,0.0,0.0,0.0,0.0,0.0,0.0,0.0,0.0,0.0,0.0,0.0,0.0,0.0,0.0,0.0,-0.7797,-0.7984,0.0,-0.8814,-0.8464,-0.8471,-0.9131,-0.8724,-0.8471,-0.8374,-0.8391,-0.8486,-0.8693,-0.8791,-0.8889,-0.8994,-0.9093,-0.9171,-0.9222,-0.9123,-0.9076,-0.9072,-0.8923,-0.9395,-1.0252,-1.0721,-1.1469,-1.2168,-1.1502,-1.1066,-1.0729,-1.06,-1.0499,-1.0585,-1.1418,-1.1403,-1.1044,-1.2086,-1.1936,-1.1304,-1.1299,-1.1532,-1.1861,-1.177,-1.221,-1.2664,-1.2606,-1.2644,-1.2569,-1.1744,-1.1183,-1.0574,-0.9824,-0.8734,-0.7816,-0.7752,-0.7138,-0.6468,-0.6207,-0.5922,-0.5661,-0.546,-0.5501,-0.5515,-0.5372,-0.5471,-0.5765,-0.6443,-0.6666,-0.7104,-0.7702,-0.7912,-0.7897,-0.7567,-0.7046,-0.6588,-0.6268,-0.5686,-0.5338,-0.5281,-0.5182,-0.5013,-0.4762,-0.466,-0.4088,0.0,0.0,0.0,0.0,0.0,0.0,0.0,0.0,0.0,0.0,0.0,0.0,0.0,0.0,0.0,0.0,0.0,0.0,0.0,0.0,0.0,0.0,0.0,0.0,0.0,-0.8151,-0.815,-0.8252,-0.8445,-0.8758,-0.9033,-0.8653,-0.867,-0.9438,-0.8927,-0.8676,-0.8923,-0.8937,-0.8984,-0.9086,-0.9181,-0.9228,-0.9228,-0.933,-0.9381,-0.9381,-0.9276,-0.9228,-0.9225,-0.963,-1.0212,-1.119,-1.2105,-1.3071,-1.3884,-1.4306,-1.4435,-1.4112,-1.2883,-1.2459,-1.2615,-1.3469,-1.3351,-1.2967,-1.3978,-1.3582,-1.2774,-1.2774,-1.3158,-1.3572,-1.3572,-1.3771,-1.4128,-1.4329,-1.4242,-1.3932,-1.323,-1.2687,-1.2108,-1.1248,-1.0104,-0.9151,-0.9082,-0.8172,-0.7303,-0.7138,-0.657,-0.5966,-0.5772,-0.5817,-0.583,-0.5684,-0.5742,-0.6015,-0.6718,-0.69,-0.7237,-0.7922,-0.8004,-0.7941,-0.7678,-0.7024,-0.6526,-0.6264,-0.5636,-0.5308,-0.5425,-0.5213,-0.5064,-0.4921,-0.4493,-0.3983,-0.3415,0.0,0.0,0.0,0.0,0.0,0.0,0.0,0.0,0.0,0.0,0.0,0.0,0.0,0.0,0.0,0.0,0.0,0.0,0.0,0.0,0.0,0.0,0.0,-0.8347,-0.8442,-0.8726,-0.873,-0.8984,-0.9045,-0.876,-0.8866,-0.9011,-0.915,-0.9161,-0.9225,-0.9381,-0.9384,-0.9384,-0.9388,-0.9504,-0.9504,-0.9504,-0.9507,-0.9511,-0.9511,-0.9504,-0.9501,-0.9613,-1.0795,-1.1376,-1.1587,-1.4234,-1.5429,-1.5535,-1.7041,-1.7582,-1.7305,-1.4138,-1.2931,-1.3141,-1.4349,-1.485,-1.5016,-1.598,-1.5905,-1.5424,-1.5424,-1.5231,-1.499,-1.499,-1.4983,-1.4977,-1.4977,-1.497,-1.4897,-1.4609,-1.3717,-1.275,-1.249,-1.1477,-1.0641,-1.0501,-0.9536,-0.8724,-0.8526,-0.7465,-0.6469,-0.6095,-0.6044,-0.5989,-0.5837,-0.5817,0.0,-0.5888,-0.6591,-0.7086,-0.7158,-0.7748,-0.7889,-0.7005,-0.6603,-0.6157,-0.5484,-0.522,-0.5206,-0.5422,-0.5216,-0.5074,-0.4935,-0.3922,-0.366,-0.4046,0.0,0.0,0.0,0.0,0.0,0.0,0.0,0.0,0.0,0.0,0.0,0.0,0.0,0.0,0.0,0.0,0.0,0.0,0.0,0.0,0.0,-1.0824,-1.0443,-0.9598,-0.9172,-0.9072,-0.9184,-0.9269,-0.9286,-0.9205,-0.9235,-0.9276,-0.9317,-0.9317,-0.9384,-0.954,-0.9442,-0.9432,-0.9544,-1.0703,-1.1282,-1.1282,-1.2582,-1.3126,-1.3122,-1.3091,-1.3017,-1.3012,-1.325,-1.3938,-1.4937,-1.5476,-1.6362,-1.7346,-1.7457,-1.7582,-1.7437,-1.6433,-1.6103,-1.6229,-1.624,-1.6192,-1.6179,-1.6514,-1.6346,-1.6032,-1.6032,-1.5832,-1.5591,-1.5591,-1.5444,-1.5277,-1.5277,-1.5124,-1.4943,-1.4863,-1.4652,-1.4307,-1.3928,-1.3057,-1.2099,-1.1849,-1.0857,-1.0028,-0.9893,-0.9552,-0.8733,-0.6713,-0.6349,-0.6302,-0.6156,-0.6135,-0.6432,-0.7179,-0.7282,-0.7556,-0.8278,-0.8245,-0.8097,-0.7889,-0.7113,-0.6538,-0.633,-0.5709,-0.5318,-0.5425,-0.5321,-0.5281,-0.524,-0.4674,-0.4428,0.0,0.0,0.0,0.0,0.0,0.0,0.0,0.0,0.0,0.0,0.0,0.0,0.0,0.0,0.0,0.0,0.0,0.0,0.0,0.0,0.0,0.0,-1.0687,-1.0508,-0.9938,-0.9514,-0.9398,-0.9547,-0.9564,-0.9564,-0.9564,-0.9564,-0.9564,-0.9564,-0.9564,-0.9605,-0.9693,-0.9612,-0.9605,-0.9696,-1.1228,-1.2048,-1.2048,-1.3703,-1.4604,-1.4599,-1.4473,-1.4524,-1.4514,-1.4975,-1.5551,-1.6452,-1.6765,-1.7367,-1.8029,-1.7849,-1.7702,0.0,0.0,0.0,0.0,0.0,-1.6994,-1.6894,-1.6894,-1.67,-1.6453,-1.6453,-1.6339,-1.6172,-1.6052,-1.5899,-1.5738,-1.5611,-1.5458,-1.5297,-1.5177,-1.5144,-1.507,-1.4776,-1.4063,-1.348,-1.3231,-1.1802,-1.057,-1.0524,-0.9648,0.0,-0.6947,-0.7011,-0.7228,-0.7152,-0.6659,-0.656,-0.7107,-0.7007,-0.7088,-0.7684,-0.7492,-0.7244,-0.7244,-0.666,0.0,0.0,0.0,-0.5332,-0.5267,-0.5264,0.0,0.0,0.0,0.0,0.0,0.0,0.0,0.0,-0.4105,-0.4287,0.0,0.0,0.0,0.0,0.0,0.0,0.0,0.0,0.0,0.0,0.0,0.0,0.0,0.0,0.0,0.0,-1.0671,-1.0728,-0.9727,-0.9635,-0.968,-0.9805,-0.9822,-0.9822,-0.9822,-0.9822,-0.9822,-0.9822,-0.9836,-0.9839,-0.9822,-0.9836,0.0,0.0,0.0,-1.2453,-1.2453,-1.4242,-1.5198,-1.5198,-1.5198,-1.5198,-1.5192,-1.6263,-1.6857,-1.6845,-1.8084,-1.837,-1.8096,-1.8063,-1.7862,-1.7582,-1.7582,-1.7582,-1.7582,-1.7582,-1.7422,-1.7201,-1.7201,0.0,0.0,-1.676,-1.6734,-1.666,-1.64,-1.6326,-1.6266,-1.6005,-1.5905,-1.5818,-1.5565,-1.5471,-1.5371,-1.5084,-1.4783,-1.4563,-1.4529,-1.2614,-1.0956,-1.0783,-0.9135,-0.7618,-0.74,-0.7819,-0.8204,-0.8007,-0.7187,-0.642,-0.6278,-0.6338,-0.6338,-0.6338,0.0,0.0,-0.603,-0.5776,-0.5613,-0.5613,-0.5488,-0.5282,-0.5016,-0.5125,-0.5125,-0.4996,-0.4852,-0.4781,-0.4781,-0.4719,-0.4282,-0.3532,-0.4128,-0.4412,0.0,0.0,0.0,0.0,0.0,0.0,0.0,0.0,0.0,0.0,0.0,0.0,0.0,0.0,0.0,-1.0509,-1.0266,-0.9849,-0.9758,-0.9781,-0.9791,-0.9819,-0.9822,-0.9822,-0.9822,-0.9822,-0.9822,-0.9822,-0.9934,-0.9951,-0.9829,-0.9937,-0.9947,-0.9825,-1.2573,-1.4128,-1.4128,-1.6979,-1.8525,-1.8525,-1.8525,0.0,-1.8525,-1.8713,-1.8803,-1.8783,-1.8851,-1.8671,-1.8384,-1.8143,-1.7862,-1.7582,-1.7582,-1.7582,-1.7582,-1.7582,-1.7549,-1.7502,-1.7502,-1.7308,-1.7061,-1.7061,-1.6901,-1.6693,-1.664,-1.662,0.0,-1.6553,-1.6366,-1.6172,-1.6119,-1.5925,-1.5671,-1.5384,-1.509,-1.481,-1.4569,-1.3939,-1.3124,-1.2157,-1.1632,-1.1021,-1.0038,-0.8422,-0.7119,-0.6834,-0.6631,-0.642,-0.6278,-0.6338,-0.6338,-0.6338,-0.6122,-0.603,-0.603,-0.5864,-0.5762,-0.5762,-0.5732,-0.5348,-0.4401,-0.5077,-0.5488,-0.546,-0.4602,-0.4151,-0.4151,-0.349,-0.3029,-0.2894,-0.3475,-0.3389,0.0,0.0,0.0,0.0,0.0,0.0,0.0,0.0,0.0,0.0,0.0,-1.2278,-1.1845,0.0,-1.2174,-1.2482,-1.2302,-1.2116,-1.22,-1.1499,-1.0657,-0.994,-0.9822,-0.9849,-0.9927,-1.066,-1.1298,-1.1391,-1.2213,-1.2345,-1.1398,-1.1271,-1.1233,-1.1149,-1.3343,-1.496,-1.5784,-1.8169,-1.9366,-1.9366,-1.9366,-1.9366,-1.9366,-1.9366,-1.9366,-1.9359,-1.9212,-1.8978,-1.8684,-1.839,-1.8176,-1.8023,-1.7876,-1.7716,-1.7582,-1.7582,-1.7582,-1.7582,-1.7582,-1.7488,-1.7368,-1.7368,-1.7268,-1.7121,-1.6974,-1.6927,-1.6901,-1.6747,-1.65,-1.6273,-1.6273,-1.6052,-1.5792,-1.5651,-1.5391,-1.5137,-1.499,-1.4158,-1.3059,-1.1914,-1.1121,-1.0265,-0.9052,-0.7857,-0.71,-0.7434,-0.6986,-0.6508,-0.6288,-0.6338,-0.6338,-0.6338,-0.6193,-0.6146,-0.6146,-0.5551,-0.495,-0.4362,-0.431,-0.3989,-0.3485,-0.387,-0.4129,-0.4129,-0.3604,-0.3349,-0.3349,-0.2898,-0.2427,-0.1982,-0.2326,-0.2427,0.0,0.0,0.0,0.0,0.0,0.0,0.0,-1.4507,-1.4218,-1.3684,-1.3866,-1.3909,-1.3198,-1.3678,-1.4162,-1.4351,-1.4452,-1.4604,-1.4604,-1.3526,-1.2213,-1.0899,-1.0447,-1.0397,-1.0525,-1.2156,-1.3225,-1.3385,-1.4678,-1.4932,-1.3524,-1.3279,-1.3053,-1.2865,-1.4395,-1.5715,-1.6968,-1.8642,-1.9366,-1.9366,-1.9366,-1.9366,-1.9366,-1.9366,-1.9366,-1.9366,-1.9305,-1.9145,-1.8905,-1.8611,-1.849,-1.847,-1.823,-1.7943,-1.7662,-1.7602,-1.7582,-1.7582,-1.7582,-1.7582,-1.7582,-1.7582,-1.7582,-1.7542,-1.7301,-1.7235,-1.7181,-1.6941,-1.6627,-1.6359,-1.6359,-1.6092,-1.5832,-1.5832,-1.5611,-1.5398,-1.5398,-1.4193,-1.2721,-1.1384,-1.0069,-0.8798,-0.7312,-0.7139,-0.7306,-0.8014,-0.7289,-0.6603,-0.6335,-0.6278,-0.6338,-0.6338,-0.6103,-0.5944,-0.5709,-0.4757,-0.3793,-0.2735,-0.2758,-0.2726,-0.2505,-0.264,-0.2706,-0.2706,-0.2567,-0.2461,-0.2461,-0.227,-0.179,-0.1057,-0.1062,-0.1486,-0.2872,-0.4895,-0.7703,-1.1849,-1.2898,-1.353,0.0,-1.5139,-1.4159,-1.4826,-1.4251,-1.3654,-1.3701,-1.4138,-1.4351,-1.4376,-1.4452,-1.4604,-1.4604,-1.4485,-1.4242,-1.4123,-1.2964,-1.2344,-1.2365,-1.3995,-1.5236,-1.5261,-1.5564,-1.5589,-1.5271,-1.5287,-1.5202,-1.4699,-1.6233,-1.7078,-1.6968,-1.8642,-1.9366,-1.9366,-1.9366,-1.9366,-1.9366,-1.9366,-1.9366,-1.9352,-1.9085,-1.8951,-1.8905,-1.8611,-1.849,-1.849,-1.8457,-1.8257,-1.7963,-1.7689,-1.7582,-1.7582,-1.7582,-1.7582,-1.7582,-1.7582,-1.7582,-1.7575,-1.7542,-1.7535,-1.7528,-1.7495,-1.7088,-1.666,-1.666,-1.6246,-1.5832,-1.5832,-1.5611,-1.5398,-1.5398,-1.484,-1.3711,-1.1478,-1.0762,-0.9744,-0.7489,-0.7139,-0.7085,-0.7093,-0.687,-0.6637,-0.6471,-0.6339,-0.6338,-0.6338,-0.547,-0.453,-0.3513,-0.335,-0.2801,-0.1795,-0.2563,-0.2636,-0.1787,-0.2433,-0.2855,-0.2855,-0.1906,-0.1447,-0.1447,-0.065,-0.0217,-0.0145,-0.0149,-0.0222,-0.6364,-0.8907,-1.1462,-1.3164,-1.4359,-1.546,-1.6461,-1.6234,-1.5764,-1.5683,-1.6024,-1.6178,-1.5642,-1.6562,-1.7286,-1.7286,-1.7509,-1.7511,-1.7479,-1.6741,-1.6181,-1.6037,-1.5627,-1.509,-1.4237,-1.5818,-1.6988,-1.7273,-1.8283,-1.8427,-1.73,-1.7256,-1.7133,-1.6813,-1.7138,-1.7787,-1.8644,-1.9089,-1.9366,-1.9366,-1.9366,-1.9366,-1.9366,-1.9366,-1.9366,-1.9359,-1.9232,-1.9185,-1.9172,-1.9052,-1.9005,-1.8985,-1.8811,-1.8564,-1.827,-1.7963,-1.7736,-1.7582,-1.7582,-1.7582,-1.7582,-1.7582,-1.7582,-1.7582,-1.7582,-1.7582,-1.7582,-1.7582,-1.7161,-1.6707,-1.6707,-1.6273,-1.5832,-1.5832,-1.5732,-1.5651,-1.5651,-1.466,-1.3356,-1.1789,-1.0505,-0.9216,-0.7541,-0.72,-0.7122,-0.7061,-0.6926,-0.6746,-0.6505,-0.642,-0.611,-0.5479,-0.4375,-0.3359,-0.2347,-0.2192,-0.1801,-0.0706,-0.1097,-0.1097,-0.0706,-0.1009,-0.1235,-0.1235,-0.0754,-0.0521,-0.0521,-0.0147,0.0,0.0,0.0,0.0303,-0.9544,-1.1914,-1.383,-1.4264,-1.5641,-1.6847,-1.6927,-1.7114,-1.7193,-1.6596,-1.7598,-1.823,-1.7458,-1.8448,-1.9392,-1.9472,-1.9659,-1.9726,-1.9512,-1.8688,-1.7982,-1.7713,-1.7854,-1.7619,-1.6714,-1.7737,-1.8704,-1.9115,-2.0258,-2.0504,-1.9285,-1.9102,-1.8961,-1.8763,-1.8508,-1.8848,-1.98,-1.9593,-1.9446,-1.9366,-1.9366,-1.9366,-1.9366,-1.9366,-1.9366,-1.9366,-1.9366,-1.9366,-1.9366,-1.9366,-1.9366,-1.9345,-1.9132,-1.8865,-1.8584,-1.837,-1.7989,-1.7582,-1.7582,-1.7582,-1.7582,-1.7582,-1.7582,-1.7582,-1.7582,-1.7582,-1.7582,-1.7582,-1.7161,-1.6707,-1.6707,-1.6273,-1.5832,-1.5832,-1.5832,-1.5832,-1.5832,-1.4534,-1.3017,-1.189,-1.0283,-0.8766,-0.7647,-0.7278,-0.719,-0.7146,-0.7051,-0.6892,-0.663,-0.628,-0.5627,-0.4425,-0.3372,-0.2268,-0.1254,-0.1176,-0.0863,-0.0079,0.0,0.0,0.0,0.0,0.0,0.0,0.0,0.0,0.0,0.0,0.0,0.0,0.0306,0.0848,-1.1937,-1.3194,-1.4108,-1.5809,-1.6693,-1.7208,-1.7488,-1.7562,-1.7655,-1.7868,-1.8283,-1.8577,-1.8751,-1.9165,-1.9459,-1.974,-1.9793,-1.98,-1.9786,-1.9793,-1.9575,-1.9399,-1.9372,-1.9482,-2.0053,-2.0106,-2.0352,-2.0936,-2.0848,-2.0808,-2.0963,-2.0976,-2.0843,-2.0681,-2.0655,-2.0374,-1.9806,-1.9793,-1.9646,-1.9366,-1.9366,-1.9366,-1.9366,-1.9366,-1.9366,-1.9366,-1.9366,-1.9366,-1.9366,-1.9366,-1.9366,-1.9366,-1.9359,-1.9172,-1.8911,-1.8905,-1.8337,-1.7582,-1.7582,-1.7582,-1.7582,-1.7582,-1.7582,-1.7582,-1.7582,-1.7582,-1.7582,-1.7582,-1.7161,-1.6707,-1.6707,-1.6273,-1.5832,-1.5832,-1.5832,-1.5832,-1.5832,-1.4534,-1.3017,-1.189,-1.0398,-0.8914,-0.7576,-0.7366,-0.7312,-0.7163,-0.7136,-0.7082,-0.6936,-0.5744,-0.4532,-0.3476,-0.2301,-0.1176,-0.0157,-0.0079,0.0,0.0,0.0,0.0,0.0,0.0,0.0,0.0,0.0,0.0,0.0,0.0,0.0,0.0,0.1096,0.1567,-1.303,-1.4384,-1.5622,-1.6607,-1.7148,-1.7462,-1.7562,-1.7582,-1.7669,-1.7983,-1.7963,-1.7983,-1.8283,-1.8424,-1.8584,-1.8885,-1.9259,-1.9512,-1.9512,-1.9846,-1.9907,-1.9426,-1.9539,-1.9733,-1.9927,-1.9947,-2.0267,-2.1049,-2.0842,-2.0802,-2.1096,-2.1109,-2.1069,-2.0962,-2.0775,-2.0581,-2.0388,-1.9993,-1.9746,-1.9653,-1.9459,-1.9366,-1.9366,-1.9366,-1.9366,-1.9366,-1.9366,-1.9366,-1.9366,-1.9366,-1.9366,-1.9366,-1.9366,-1.9185,-1.8925,-1.8925,-1.8484,-1.7889,-1.7889,-1.7889,-1.7856,-1.7649,-1.7582,-1.7582,-1.7582,-1.7582,-1.7582,-1.7582,-1.7161,-1.6707,-1.6707,-1.6273,-1.5832,-1.5832,-1.5832,-1.5534,-1.4752,-1.3425,-1.2021,-1.0771,-0.9368,-0.816,-0.764,-0.7438,-0.7319,-0.7163,-0.7061,-0.6983,-0.6936,-0.5147,-0.3788,-0.3324,-0.1611,-0.0399,0.0,0.0,0.0,0.0,0.0,0.0,0.0,0.0,0.0,0.0,0.0,0.0,0.0,0.0,0.0,0.0,0.1097,0.1568,-1.4161,-1.5396,-1.6547,-1.7027,-1.7368,-1.7582,-1.7582,-1.7582,-1.7609,-1.7709,-1.7649,-1.7609,-1.7709,-1.7809,-1.805,-1.8564,-1.8965,-1.9319,-1.9633,-1.9907,-1.9973,-1.9713,-1.9746,-1.9887,-2.0094,-1.9927,-2.012,-2.0895,-2.0782,-2.0802,-2.1096,-2.1109,-2.1109,-2.1109,-2.0929,-2.0782,-2.0675,-2.0194,-1.9853,-1.9639,-1.9459,-1.9366,-1.9366,-1.9366,-1.9366,-1.9366,-1.9366,-1.9366,-1.9366,-1.9366,-1.9366,-1.9366,-1.9366,-1.9252,-1.9085,-1.9085,-1.8844,-1.847,-1.8156,-1.7976,-1.7849,-1.7649,-1.7582,-1.7582,-1.7582,-1.7582,-1.7582,-1.7582,-1.7235,-1.6867,-1.6867,-1.6426,-1.5985,-1.5985,-1.5905,-1.5439,-1.4166,-1.2818,-1.1556,-1.0293,-0.8833,-0.7831,-0.7634,-0.7428,-0.7255,-0.7153,-0.7061,-0.7004,-0.7004,-0.5323,-0.4128,-0.407,-0.1979,-0.0652,-0.0637,-0.0239,0.0,0.0,0.0,0.0,0.0,0.0,0.0,0.0,0.0,0.0,0.0,0.0,0.0,0.0,0.1097,0.1568,-1.5422,-1.6293,-1.68,-1.7094,-1.7382,-1.7582,-1.7562,-1.7562,-1.7475,-1.7168,-1.7308,-1.7402,-1.7114,-1.7308,-1.7802,-1.8691,-1.8871,-1.9205,-2.0087,-1.9987,-1.992,-2.0201,-2.0,-2.006,-2.0601,-2.016,-2.008,-2.0635,-2.0661,-2.0788,-2.1089,-2.1109,-2.1109,-2.1109,-2.1109,-2.0975,-2.0702,-2.0401,-1.9967,-1.9412,-1.9412,-1.9406,-1.9392,-1.9392,-1.9379,-1.9366,-1.9366,-1.9366,-1.9366,-1.9366,-1.9366,-1.9366,-1.9366,-1.9366,-1.9366,-1.9366,-1.9359,-1.9225,-1.8364,-1.7876,-1.7622,-1.7595,-1.7582,-1.7582,-1.7582,-1.7582,-1.7582,-1.7582,-1.7375,-1.7148,-1.7148,-1.662,-1.6188,-1.6077,-1.586,-1.5261,-1.3974,-1.2716,-1.1458,-1.0194,-0.8817,-0.7936,-0.7648,-0.735,-0.7149,-0.7143,-0.7139,-0.7139,-0.7139,-0.6141,-0.537,-0.5362,-0.3228,-0.183,-0.1789,-0.0732,0.0,0.0,0.0,0.0,0.0,0.0,0.0,0.0,0.0,0.0,0.0,0.0,0.0,0.0,0.1102,0.1572,-1.6222,-1.6754,-1.7108,-1.7402,-1.7528,-1.7522,-1.7308,-1.7261,-1.7114,-1.66,-1.638,-1.6186,-1.5899,-1.6259,-1.6827,-1.7495,-1.8163,-1.8911,-1.9786,-2.0034,-2.0147,-2.0227,-2.0361,-2.0421,-2.0354,-2.0414,-2.0514,-2.0668,-2.0468,-2.0568,-2.1082,-2.1109,-2.1109,-2.1109,-2.1109,-2.1076,-2.1002,-2.0708,-2.0381,-2.0013,-2.0013,-1.99,-1.9686,-1.9686,-1.9573,-1.9366,-1.9366,-1.9366,-1.9366,-1.9366,-1.9366,-1.9366,-1.9366,-1.9366,-1.9366,-1.9366,-1.9225,-1.8971,-1.8531,-1.8323,-1.8183,-1.7729,-1.7582,-1.7582,-1.7582,-1.7582,-1.7582,-1.7582,-1.7375,-1.6935,-1.5878,-1.5318,-1.4713,-1.3507,-1.3215,-1.2729,-1.1296,-1.0779,-1.0096,-0.8726,-0.8143,-0.7814,-0.7631,-0.7441,-0.7275,-0.7156,-0.7139,-0.7139,-0.7139,-0.613,-0.5372,-0.5373,-0.3272,-0.1789,-0.1832,-0.0656,0.0,0.0,0.0,0.0,0.0,0.0,0.0,0.0,0.0,0.0,0.0,0.0,0.0,0.0,0.1073,0.1145,-1.678,-1.7114,-1.7382,-1.7542,-1.7482,-1.7315,-1.7021,-1.6854,-1.66,-1.6012,-1.5758,-1.5551,-1.5257,-1.5685,-1.6313,-1.7034,-1.7796,-1.8691,-1.9833,-2.002,-2.0187,-2.0575,-2.0655,-2.0661,-2.0621,-2.0655,-2.0728,-2.0855,-2.0715,-2.0762,-2.1089,-2.1109,-2.1109,-2.1109,-2.1109,-2.1049,-2.0922,-2.0762,-2.0528,-2.0234,-2.0234,-2.0147,-1.9987,-1.986,-1.9713,-1.9553,-1.9419,-1.9366,-1.9366,-1.9366,-1.9366,-1.9366,-1.9366,-1.9366,-1.9366,-1.9366,-1.9178,-1.8878,-1.8591,-1.8404,-1.8217,-1.7736,-1.7582,-1.7582,-1.7582,-1.7582,-1.7477,-1.6823,-1.6497,-1.6057,-1.4673,-1.3991,-1.3485,-1.2542,-1.2264,-1.1697,-1.0314,-0.9998,-0.9608,-0.8233,-0.7916,-0.7787,-0.7706,-0.7512,-0.7343,-0.7255,-0.7183,-0.7139,-0.7139,-0.6517,-0.613,-0.6147,-0.4474,-0.3394,-0.3405,-0.2271,-0.1333,-0.0825,-0.0814,-0.0566,0.0,0.0,0.0,0.0,0.0,0.0,0.0,0.0,0.0,0.0,0.0588,0.0585,-1.7128,-1.7388,-1.7582,-1.7582,-1.7368,-1.7061,-1.6727,-1.6393,-1.5979,-1.5351,-1.5224,-1.5137,-1.4843,-1.5297,-1.6019,-1.6941,-1.7595,-1.8497,-1.9967,-1.9993,-2.0154,-2.0955,-2.0862,-2.0828,-2.1082,-2.0882,-2.0842,-2.1089,-2.1109,-2.1109,-2.1109,-2.1109,-2.1109,-2.1109,-2.1109,-2.0989,-2.0735,-2.0735,-2.0608,-2.0347,-2.0307,-2.0267,-2.0221,-1.9933,-1.978,-1.9726,-1.9472,-1.9366,-1.9366,-1.9366,-1.9366,-1.9366,-1.9366,-1.9366,-1.9366,-1.9366,-1.9205,-1.8938,-1.8374,-1.8097,-1.805,-1.7695,-1.7582,-1.7582,-1.7582,-1.7477,-1.7041,-1.5743,-1.531,-1.477,-1.3372,-1.2639,-1.2324,-1.2088,-1.1687,-1.1105,-1.0002,-0.9706,-0.941,-0.8233,-0.7933,-0.7834,-0.7814,-0.7584,-0.7394,-0.7373,-0.7241,-0.7139,-0.7139,-0.7139,-0.7139,-0.7139,-0.6071,-0.5406,-0.5394,-0.4336,-0.318,-0.2107,-0.2015,-0.1594,-0.0505,-0.0505,-0.0505,-0.0505,-0.0506,-0.0507,-0.0507,-0.0508,-0.0509,-0.0509,-0.0423,-0.0422,-1.7428,-1.7542,-1.7582,-1.7582,-1.7368,-1.7007,-1.6473,-1.5932,-1.5311,-1.4482,-1.4315,-1.4222,-1.3928,-1.4549,-1.5478,-1.66,-1.7275,-1.8183,-1.9666,-2.004,-2.0301,-2.0702,-2.0915,-2.1056,-2.1109,-2.1062,-2.1056,-2.1109,-2.1109,-2.1109,-2.1109,-2.1109,-2.1109,-2.1109,-2.1109,-2.1082,-2.1036,-2.1036,-2.1009,-2.0955,-2.0715,-2.0468,-2.0221,-1.9933,-1.9673,-1.9439,-1.9392,-1.9366,-1.9366,-1.9366,-1.9366,-1.9366,-1.9366,-1.9366,-1.9366,-1.9366,-1.9332,-1.909,-1.7278,-1.742,-1.8323,-1.7762,-1.7582,-1.7582,-1.7582,-1.6717,-1.5743,-1.5417,-1.4556,-1.3372,-1.1864,-1.1371,-1.0839,-0.9549,-0.9065,-0.8794,-0.846,-0.8333,-0.8233,-0.8038,-0.8018,-0.796,-0.7831,-0.7672,-0.7516,-0.739,-0.7241,-0.7139,-0.7139,-0.7139,-0.7139,-0.7139,-0.6071,-0.544,-0.5419,-0.4287,-0.3545,-0.3274,-0.3303,-0.3185,-0.3017,-0.2934,-0.2934,-0.2934,-0.2989,-0.3017,-0.3017,-0.2979,-0.3003,-0.3002,-0.2779,-0.273,-1.7502,-1.7582,-1.7582,-1.7582,-1.7248,-1.6727,-1.5985,-1.5364,-1.4689,-1.3814,-1.3627,-1.3634,-1.3641,-1.4242,-1.5064,-1.6086,-1.674,-1.7649,-1.9138,-1.9459,-1.9833,-2.0588,-2.0802,-2.0942,-2.1096,-2.0969,-2.0949,-2.1096,-2.0969,-2.0949,-2.1102,-2.1109,-2.1042,-2.0889,-2.0882,-2.0882,-2.0882,-2.0728,-2.0728,-2.0882,-2.0588,-2.0368,-2.0221,-1.9933,-1.9726,-1.9586,-1.9432,-1.9366,-1.9366,-1.9366,-1.9366,-1.9366,-1.9366,-1.8887,-1.8163,-1.8163,-1.7481,-1.6593,-1.541,-1.5434,-1.5829,-1.5439,-1.5849,-1.628,-1.553,-1.4883,-1.4126,-1.3372,-1.2724,-1.1864,-1.0351,-0.9831,-0.9406,-0.8706,-0.8313,-0.813,-0.8055,-0.8038,-0.8038,-0.8038,-0.8038,-0.8018,-0.7943,-0.7807,-0.7658,-0.7512,-0.736,-0.7231,-0.7149,-0.7139,-0.7139,-0.7139,-0.6605,-0.6248,-0.6248,-0.575,-0.519,-0.4577,-0.4533,-0.4245,-0.3639,-0.3639,-0.3639,-0.3639,-0.3589,-0.3606,-0.3608,-0.3641,-0.357,-0.357,-0.3534,-0.35,-1.7428,-1.7535,-1.7582,-1.7582,-1.7141,-1.6473,-1.5598,-1.489,-1.4175,-1.3293,-1.3113,-1.32,-1.3494,-1.3981,-1.4643,-1.5585,-1.6179,-1.7034,-1.8524,-1.8844,-1.9312,-2.0361,-2.0541,-2.0695,-2.0989,-2.0755,-2.0702,-2.0995,-2.0748,-2.0735,-2.1089,-2.0989,-2.0848,-2.0681,-2.0615,-2.0581,-2.0581,-2.0347,-2.0347,-2.0575,-2.0281,-2.014,-2.0134,-1.984,-1.9706,-1.9693,-1.9466,-1.9243,-1.8887,-1.9249,-1.9004,-1.8409,-1.8765,-1.7923,-1.6492,-1.6492,-1.5509,-1.4225,-1.3665,-1.3453,-1.3457,-1.2578,-1.348,-1.477,-1.3588,-1.3048,-1.262,-1.1433,-1.0891,-1.0347,-0.9154,-0.8737,-0.8516,-0.8452,-0.8231,-0.8038,-0.8038,-0.8038,-0.8038,-0.8038,-0.8038,-0.8038,-0.8038,-0.7913,-0.7773,-0.7662,-0.7489,-0.7326,-0.7207,-0.7163,-0.7139,-0.7139,-0.7139,-0.7139,-0.7139,-0.7139,-0.6694,-0.5805,-0.5805,-0.5356,-0.437,-0.4372,-0.4372,-0.4372,-0.4372,-0.4372,-0.4372,-0.4372,-0.4372,-0.437,-0.4351,-0.4343,-1.7181,-1.7382,-1.7582,-1.7582,-1.7141,-1.6473,-1.5598,-1.4736,-1.3874,-1.305,-1.2869,-1.2879,-1.3193,-1.3507,-1.4102,-1.5251,-1.5705,-1.6426,-1.7923,-1.8584,-1.9158,-1.9806,-2.0114,-2.0394,-2.0688,-2.0448,-2.0394,-2.0695,-2.0441,-2.0521,-2.1082,-2.0601,-2.0421,-2.0668,-2.0414,-2.0274,-2.0274,-2.0247,-2.0247,-2.0267,-1.998,-1.984,-1.9826,-1.9539,-1.9406,-1.9406,-1.9379,-1.8525,-1.7325,-1.8765,-1.7695,-1.5198,-1.6615,-1.6262,-1.4842,-1.4842,-1.4575,-1.4119,-1.2533,-1.2777,-1.3226,-1.0295,-1.1214,-1.348,-1.3372,-1.2403,-1.1324,-1.1105,-1.0131,-0.9047,-0.8937,-0.8815,-0.8621,-0.8353,-0.8163,-0.8038,-0.8038,-0.8038,-0.8038,-0.8038,-0.8038,-0.8038,-0.8038,-0.7913,-0.7807,-0.7794,-0.7553,-0.7366,-0.7353,-0.7227,-0.7139,-0.7139,-0.7139,-0.7139,-0.7139,-0.7139,-0.7051,-0.6962,-0.6962,-0.6871,-0.6782,-0.6782,-0.6782,-0.6782,-0.6782,-0.6782,-0.6782,-0.6782,-0.6782,-0.6779,-0.6657,-0.6599,-1.7054,-1.6716,-1.6243,-1.6193,-1.5119,-1.3923,-1.3071,-1.2399,-1.1675,-1.0987,-1.1206,-1.1771,-1.2226,-1.2894,-1.3707,-1.4703,-1.4963,-1.5498,-1.6794,-1.7181,-1.7809,-1.9118,-1.9372,-1.97,-2.0347,-2.0147,-2.002,-2.014,-2.004,-2.0147,-2.0561,-2.0361,-2.0207,-2.0154,-2.0034,-1.9973,-1.9973,-1.98,-1.98,-1.9967,-1.9679,-1.9539,-1.9539,-1.9419,-1.8881,-1.7923,-1.7923,-1.7566,-1.6968,-1.6621,-1.638,-1.602,-1.5666,-1.4594,-1.3172,-1.3172,-1.2456,-1.1451,-1.0585,-1.0638,-1.0795,-0.9314,-0.9699,-1.0672,-1.0672,-1.0241,-0.9809,-0.9809,-0.9375,-0.894,-0.894,-0.8825,-0.8635,-0.834,-0.8221,-0.8153,-0.8058,-0.8038,-0.8038,-0.8038,-0.8038,-0.8038,-0.8038,-0.7987,-0.7916,-0.7824,-0.7712,-0.7573,-0.7394,-0.7319,-0.7244,-0.7149,-0.7139,-0.7139,-0.7139,-0.7139,-0.7139,-0.7139,-0.7139,-0.7139,-0.7139,-0.7139,-0.7139,-0.7139,-0.7139,-0.7139,-0.7139,-0.7139,-0.7139,-0.7139,-0.7082,-0.7054,-1.6108,-1.5463,-1.4622,-1.4556,-1.3426,-1.2119,-1.1419,-1.0845,-1.0228,-0.9622,-1.0259,-1.1047,-1.1579,-1.2628,-1.3567,-1.4275,-1.4536,-1.4997,-1.5999,-1.6293,-1.6927,-1.8357,-1.8611,-1.8971,-1.9766,-1.982,-1.9766,-1.9679,-1.9673,-1.976,-1.9967,-1.9973,-1.992,-1.9806,-1.972,-1.9673,-1.9673,-1.9466,-1.9466,-1.9673,-1.9466,-1.9366,-1.9366,-1.9366,-1.8765,-1.7683,-1.7208,-1.6968,-1.685,-1.5311,-1.4955,-1.5424,-1.4361,-1.2933,-1.1499,-1.1499,-1.0681,-0.9588,-0.9435,-0.9283,-0.913,-0.8984,-0.894,-0.894,-0.894,-0.894,-0.894,-0.894,-0.894,-0.894,-0.894,-0.8825,-0.8648,-0.8394,-0.8299,-0.8228,-0.8072,-0.8038,-0.8038,-0.8038,-0.8038,-0.8038,-0.8038,-0.8038,-0.8004,-0.7896,-0.7841,-0.7723,-0.7472,-0.74,-0.7312,-0.7156,-0.7139,-0.7139,-0.7139,-0.7139,-0.7139,-0.7139,-0.7139,-0.7139,-0.7139,-0.7139,-0.7139,-0.7139,-0.7139,-0.7139,-0.7139,-0.7139,-0.7139,-0.7139,-0.7139,-0.7139,-1.3814,-1.3369,-1.2818,-1.2818,-1.2473,-1.2021,-1.1477,-1.0845,-1.0228,-0.9622,-1.0401,-1.1271,-1.1615,-1.2781,-1.3741,-1.4041,-1.4583,-1.5164,-1.5752,-1.6333,-1.6927,-1.7522,-1.7869,-1.829,-1.8878,-1.9459,-1.9679,-1.9392,-1.9372,-1.9372,-1.9372,-1.9372,-1.9506,-1.9793,-1.9519,-1.9372,-1.9372,-1.9366,-1.9366,-1.9372,-1.9366,-1.9366,-1.9366,-1.9366,-1.9366,-1.9249,-1.7683,-1.6968,-1.685,-1.5311,-1.3646,-1.2213,-1.2213,-1.1257,-0.9819,-0.9819,-0.973,-0.9588,-0.9435,-0.9283,-0.913,-0.8984,-0.894,-0.894,-0.894,-0.894,-0.894,-0.894,-0.894,-0.894,-0.894,-0.8825,-0.8672,-0.8516,-0.8374,-0.8228,-0.8072,-0.8038,-0.8038,-0.8038,-0.8038,-0.8038,-0.8038,-0.8038,-0.8038,-0.8038,-0.7909,-0.776,-0.7614,-0.7465,-0.7312,-0.7156,-0.7139,-0.7139,-0.7139,-0.7139,-0.7139,-0.7139,-0.7139,-0.7139,-0.7139,-0.7139,-0.7139,-0.7139,-0.7139,-0.7139,-0.7139,-0.7139,-0.7139,-0.7139,-0.7139,-0.7139,-1.3383,-1.2294,-1.1028,-1.0895,-1.0564,-1.0108,-0.9844,-0.9924,-1.0049,-1.0141,-1.071,-1.1088,-1.0844,-1.1728,-1.2606,-1.3145,-1.3361,-1.3937,-1.5352,-1.5865,-1.6473,-1.7468,-1.839,-1.9025,-1.9205,-1.9392,-1.9466,-1.9372,-1.9366,-1.9366,-1.9366,-1.9366,-1.9412,-1.9499,-1.9412,-1.9366,-1.9366,-1.9366,-1.9366,-1.9366,-1.9366,-1.9366,-1.9366,-1.9366,-1.8765,-1.7689,-1.7202,-1.6968,-1.685,-1.5311,-1.4955,-1.5419,-1.4237,-1.3531,-1.2933,-1.1856,-1.1387,-1.1095,-0.9775,-0.9283,-0.913,-0.8984,-0.894,-0.894,-0.894,-0.894,-0.894,-0.894,-0.894,-0.894,-0.894,-0.8825,-0.8672,-0.852,-0.8374,-0.8228,-0.8072,-0.8038,-0.8038,-0.8038,-0.8038,-0.8038,-0.8038,-0.8038,-0.8038,-0.8038,-0.7997,-0.7879,-0.7631,-0.7556,-0.7428,-0.717,-0.7139,-0.7139,-0.7139,-0.7139,-0.7139,-0.7139,-0.7139,-0.7139,-0.7139,-0.7139,-0.7139,-0.7139,-0.7139,-0.7139,-0.7139,-0.7139,-0.7139,-0.7139,-0.7139,-0.7139,-1.258,-1.1167,-0.9746,-1.017,-1.0007,-0.9737,-0.9611,-0.9833,-1.008,-1.0218,-1.0897,-1.1335,-1.0559,-1.1695,-1.2716,-1.2602,-1.31,-1.3901,-1.5219,-1.5645,-1.6266,-1.7442,-1.8444,-1.9078,-1.9192,-1.9299,-1.9366,-1.9366,-1.9366,-1.9366,-1.9366,-1.9366,-1.9366,-1.9366,-1.9366,-1.9366,-1.9366,-1.9366,-1.9366,-1.9366,-1.9366,-1.9366,-1.9366,-1.9366,-1.8887,-1.7923,-1.7202,-1.7325,0.0,-1.5548,-1.5548,-1.685,-1.5192,-1.4604,-1.4485,-1.3526,-1.304,-1.2714,-1.1496,-1.0634,-1.0017,-0.975,-0.9375,-0.894,-0.894,-0.894,-0.894,-0.894,-0.894,-0.894,-0.894,-0.8825,-0.8672,-0.852,-0.8374,-0.8228,-0.8072,-0.8038,-0.8038,-0.8038,-0.8038,-0.8038,-0.8038,-0.8038,-0.8038,-0.8038,-0.8038,-0.795,-0.7709,-0.7634,-0.7506,-0.7255,-0.7177,-0.7139,-0.7139,-0.7139,-0.7139,-0.7139,-0.7139,-0.7139,-0.7139,-0.7139,-0.7139,-0.7139,-0.7139,-0.7139,-0.7139,-0.7139,-0.7139,-0.7139,-0.7139,-0.7139,0.0,-1.0299,-0.9052,-1.0195,-1.0542,-1.0489,-1.0509,-1.0588,0.0,-1.0248,-1.1291,-1.1875,-1.0689,-1.2422,-1.3652,-1.2528,-1.3467,-1.4654,-1.5317,-1.5698,-1.6346,-1.7482,-1.815,-1.8631,-1.8898,-1.9192,-1.9366,-1.9366,-1.9366,-1.9366,-1.9366,-1.9366,-1.9366,-1.9366,-1.9366,-1.9366,-1.9366,-1.9366,-1.9366,-1.9366,-1.9366,-1.9366,-1.9366,-1.9366,-1.9366,-1.9366,-1.7806,-1.8046,-1.9127,-1.6149,-1.5784,-1.6968,-1.5553,-1.496,-1.496,-1.4842,-1.457,-1.4336,-1.4008,-1.288,-1.1454,-1.1164,-1.0131,-0.894,-0.894,-0.894,-0.894,-0.894,-0.894,-0.894,-0.894,-0.8818,-0.8659,-0.8516,-0.8367,-0.8214,-0.8069,-0.8038,-0.8038,-0.8038,-0.8038,-0.8038,-0.8038,-0.8038,-0.8038,-0.8038,-0.8038,-0.7984,-0.7831,-0.7695,-0.7553,-0.739,-0.7244,-0.7153,-0.7143,-0.7139,-0.7139,-0.7139,-0.7139,-0.7139,-0.7139,-0.7139,-0.7139,-0.7139,-0.7139,-0.7139,-0.7139,-0.7139,-0.7139,-0.7139,-0.7139,-0.7139,-1.1954,0.0,-0.9537,-0.9839,-1.0553,-1.1308,0.0,-1.2098,-1.2612,-1.2669,-1.3009,-1.2883,-1.1781,-1.2157,-1.2741,-1.2679,-1.3123,-1.3973,-1.5252,-1.6226,-1.7114,-1.7849,-1.8464,-1.8844,-1.8918,-1.9192,-1.9366,-1.9366,-1.9366,-1.9366,-1.9366,-1.9366,-1.9366,-1.9366,-1.9366,-1.9366,-1.9366,-1.9366,-1.9366,-1.9366,-1.9366,-1.9366,-1.9366,-1.9366,-1.9366,-1.9366,-1.9004,-1.901,-1.9366,-1.8532,-1.8525,-1.8765,-1.8409,-1.8292,-1.8169,-1.6856,-1.6215,-1.573,-1.4349,-1.3448,-1.2788,-1.1494,-1.0131,-0.894,-0.894,-0.894,-0.894,-0.894,-0.894,-0.894,-0.894,-0.8737,-0.8526,-0.8489,-0.8282,-0.8082,-0.8045,-0.8038,-0.8038,-0.8038,-0.8038,-0.8038,-0.8038,-0.8038,-0.8038,-0.8038,-0.8038,-0.7984,-0.7831,-0.778,-0.7662,-0.74,-0.7339,-0.7268,-0.7149,-0.7139,-0.7139,-0.7139,-0.7139,-0.7139,-0.7139,-0.7139,-0.7139,-0.7139,-0.7139,-0.7139,-0.7139,-0.7139,-0.7139,-0.7139,-0.7139,-0.7139,-1.215,-1.1395,-1.0545,-1.1141,-1.1816,-1.2344,-1.2488,-1.2827,-1.3213,-1.3233,-1.3347,-1.315,-1.2093,-1.2589,-1.3028,-1.285,-1.3487,-1.4415,-1.5624,-1.6693,-1.7522,-1.7989,-1.8444,-1.8724,-1.8724,-1.8871,-1.8965,-1.8965,-1.8965,-1.8965,-1.8965,-1.9092,-1.9105,-1.8971,-1.9232,-1.9366,-1.9366,-1.9366,-1.9366,-1.9366,-1.9366,-1.9366,-1.9366,-1.9366,-1.9366,-1.9366,-1.9366,-1.9366,-1.9366,-1.9366,-1.9366,-1.9366,-1.9366,-1.9285,-1.905,-1.8211,-1.7603,-1.7005,-1.6075,-1.4746,-1.3098,-1.1573,-1.0131,-0.894,-0.894,-0.894,-0.894,-0.894,-0.894,-0.894,-0.894,-0.8713,-0.8482,-0.8482,-0.8255,-0.8038,-0.8038,-0.8038,-0.8038,-0.8038,-0.8038,-0.8038,-0.8038,-0.8038,-0.8038,-0.8038,-0.8038,-0.8011,-0.7926,-0.7855,-0.775,-0.759,-0.7451,-0.7336,-0.7255,-0.718,-0.7139,-0.7139,-0.7139,-0.7139,-0.7139,-0.7139,-0.7139,-0.7139,-0.7139,-0.7139,-0.7139,-0.7139,-0.7139,-0.7139,-0.7139,-0.7139,-1.2358,-1.1974,-1.1762,-1.2792,-1.3106,-1.314,-1.314,-1.314,-1.3066,-1.2876,-1.3026,-1.3007,-1.2273,-1.3201,-1.388,-1.3218,-1.4193,-1.5404,-1.6286,-1.7048,-1.7629,-1.7943,-1.8243,-1.8424,-1.8424,-1.8464,-1.849,-1.849,-1.849,-1.849,-1.849,-1.8724,-1.8744,-1.8497,-1.8971,-1.9252,-1.9299,-1.9345,-1.9366,-1.9366,-1.9366,-1.9366,-1.9366,-1.9366,-1.9366,-1.9366,-1.9366,0.0,-1.9366,-1.9366,-1.9339,-1.9299,-1.9299,-1.9118,-1.8858,-1.8858,-1.8517,-1.8036,-1.7989,-1.5941,-1.3048,-1.1864,-1.0241,-0.894,-0.894,-0.894,-0.894,-0.894,-0.894,-0.8933,-0.891,-0.8696,-0.8476,-0.8455,-0.8238,-0.8038,-0.8038,-0.8038,-0.8038,-0.8038,-0.8038,-0.8038,-0.8038,-0.8038,-0.8038,-0.8038,-0.8038,-0.8038,-0.8038,-0.7926,-0.7838,-0.7814,-0.7587,-0.7431,-0.7407,-0.7265,-0.7177,-0.7177,-0.7153,-0.7139,-0.7139,-0.7139,-0.7139,-0.7139,-0.7139,-0.7139,-0.7139,-0.7139,-0.7139,-0.7139,-0.7139,-0.7139,-1.2688,-1.2822,-1.2792,-1.2483,-1.2632,-1.2896,-1.2896,-1.2896,-1.2882,-1.2835,-1.3193,-1.3433,-1.3067,-1.3748,-1.4376,-1.4241,-1.5086,-1.6005,-1.6887,-1.7134,-1.7328,-1.7615,-1.7929,-1.8116,-1.8116,-1.8343,-1.849,-1.849,-1.849,-1.849,-1.849,-1.8537,-1.8537,-1.849,-1.8577,-1.8744,-1.8991,-1.9239,-1.9366,-1.9366,-1.9366,-1.9366,-1.9366,-1.9366,-1.9366,-1.9366,-1.9366,-1.9366,-1.9366,-1.9366,-1.9219,-1.8991,-1.8991,-1.8811,-1.8557,-1.8557,-1.8343,-1.8009,-1.7749,-1.5779,-1.3264,-1.3048,-1.1105,-0.894,-0.894,-0.894,-0.894,-0.894,-0.894,-0.891,-0.8777,-0.8615,-0.8452,-0.8333,-0.8167,-0.8038,-0.8038,-0.8038,-0.8038,-0.8038,-0.8038,-0.8038,-0.8038,-0.8038,-0.8038,-0.8038,-0.8038,-0.8038,-0.8038,-0.8018,-0.7957,-0.7824,-0.777,-0.7695,-0.7577,-0.7424,-0.7336,-0.7336,-0.7214,-0.7139,-0.7139,-0.7139,-0.7139,-0.7139,-0.7139,-0.7139,-0.7139,-0.7139,-0.7139,-0.7139,-0.7139,-0.7139,-1.1991,-1.2365,-1.2652,-1.2371,-1.2772,-1.3233,-1.3233,-1.3106,-1.2999,-1.2999,-1.322,-1.3467,-1.3647,-1.4142,-1.473,-1.5364,-1.5805,-1.6319,-1.7048,-1.7148,-1.7255,-1.7549,-1.7709,-1.7796,-1.7796,-1.7916,-1.8003,-1.8003,-1.8003,-1.8003,-1.8003,-1.8163,-1.8176,-1.8003,-1.8317,-1.8477,-1.845,-1.8744,-1.9052,-1.9366,-1.9366,-1.9366,-1.9366,-1.9366,-1.9366,-1.9359,0.0,-1.9125,-1.9118,-1.8958,-1.8811,-1.8691,-1.8691,-1.851,-1.823,-1.8063,-1.7916,-1.7776,-1.7629,-1.6174,-1.4341,-1.3588,-1.1864,-0.9915,-0.9154,-0.8879,-0.8815,-0.8815,-0.8815,-0.8801,-0.8726,-0.854,-0.835,-0.8286,-0.815,-0.8038,-0.8038,-0.8038,-0.8038,-0.8038,-0.8038,-0.8038,-0.8038,-0.8038,-0.8038,-0.8038,-0.8038,-0.8038,-0.8038,-0.8038,-0.8014,-0.7943,-0.7862,-0.7753,-0.7611,-0.7458,-0.7336,-0.7251,-0.718,-0.7139,-0.7139,-0.7139,-0.7139,-0.7139,-0.7139,-0.7139,-0.7139,-0.7139,-0.7139,-0.7143,-0.7224,-0.7265,-1.161,-1.2053,-1.2524,-1.2735,-1.3074,-1.3474,-1.3614,-1.3567,-1.355,-1.3467,-1.3702,-1.3947,-1.4099,-1.4382,-1.4963,-1.5999,-1.6286,-1.6553,-1.7074,-1.7208,-1.7335,-1.7555,-1.7582,-1.7681,-1.7989,-1.8094,-1.8192,-1.8499,-1.8603,-1.8401,-1.8094,-1.8222,-1.8143,-1.7589,-1.8036,-1.8203,-1.805,-1.827,-1.8644,-1.9165,-1.9165,-1.9165,-1.9165,-1.9165,-1.9165,-1.9145,-1.8925,-1.8824,-1.8804,-1.8577,-1.845,-1.8384,-1.8384,-1.8203,-1.7909,-1.7669,-1.7582,-1.7582,-1.7582,-1.6605,-1.5204,-1.4126,-1.262,-1.0891,-0.9809,-0.9071,-0.8757,-0.872,-0.8682,-0.8648,-0.8615,-0.8438,-0.8262,-0.8225,-0.8126,-0.8038,-0.8038,-0.8038,-0.8038,-0.8038,-0.8038,-0.8038,-0.8038,-0.8038,-0.8038,-0.8038,-0.8038,-0.8038,-0.8038,-0.8038,-0.8038,-0.8038,-0.7933,-0.7794,-0.7614,-0.7458,-0.7305,-0.7149,-0.7139,-0.7139,-0.7139,-0.7139,-0.7139,-0.7139,-0.7139,-0.7139,-0.7139,-0.7139,-0.7156,-0.7197,-0.7316,-0.739,-1.2164,-1.2641,-1.3241,-1.3903,-1.3438,-1.2959,-1.352,-1.4258,-1.4747,-1.4151,-1.5134,-1.5672,-1.4375,-1.4549,-1.5137,-1.5758,-1.6319,-1.6787,-1.7108,-1.7382,-1.7562,-1.7582,-1.7582,-1.8094,-1.9324,-1.942,-2.0033,-2.1347,-2.1448,-2.0837,-1.9524,-1.9443,-1.8938,-1.7687,-1.7622,-1.7776,-1.8043,-1.807,-1.8237,-1.8551,-1.8551,-1.8551,-1.8551,-1.8551,-1.8551,-1.8551,-1.8531,-1.8524,-1.8517,-1.8497,-1.833,-1.8083,-1.8083,-1.7889,-1.7615,-1.7589,-1.7582,-1.7582,-1.7582,-1.6605,-1.5417,-1.531,-1.3372,-1.1109,-1.0996,-1.0017,-0.8893,-0.875,-0.8608,-0.8469,-0.8336,-0.8286,-0.8235,-0.8092,-0.8048,-0.8038,-0.8038,-0.8038,-0.8038,-0.8038,-0.8038,-0.8038,-0.8038,-0.8038,-0.8038,-0.8038,-0.8038,-0.8038,-0.8038,-0.8038,-0.8038,-0.8038,-0.8028,-0.7909,-0.7624,-0.7458,-0.7305,-0.7149,-0.7139,-0.7139,-0.7139,-0.7139,-0.7139,-0.7139,-0.7139,-0.7139,-0.7139,-0.7139,-0.7214,-0.7356,-0.7366,-0.7448,-1.141,-1.2429,-1.3389,-1.3566,-1.437,-1.515,-1.5771,-1.6147,-1.6492,-1.6853,-1.6751,-1.6198,-1.4906,-1.4963,-1.5364,-1.5765,-1.6172,-1.6607,-1.7081,-1.7241,-1.7382,-1.7562,-1.7582,-1.7786,-1.8297,-1.9117,-1.9826,-2.0333,-2.1245,-2.1448,-2.0939,-2.0033,-1.9317,-1.8812,-1.7989,-1.7642,-1.7756,-1.7756,-1.7809,-1.7929,-1.831,-1.849,-1.849,-1.849,-1.849,-1.8477,-1.8297,-1.8217,-1.8196,-1.8003,-1.7862,-1.7756,-1.7756,-1.7689,-1.7582,-1.7582,-1.7582,-1.7582,-1.7582,-1.7252,-1.6605,-1.5743,-1.4663,-1.348,-1.1647,-1.0621,-0.9796,-0.8899,-0.8394,-0.8218,-0.8258,-0.8201,-0.8113,-0.8055,-0.8038,-0.8038,-0.8038,-0.8038,-0.8038,-0.8038,-0.8038,-0.8038,-0.8038,-0.8038,-0.8038,-0.8038,-0.8038,-0.8038,-0.8038,-0.8038,-0.8038,-0.8038,-0.7875,-0.7723,-0.7607,-0.737,-0.7204,-0.7143,-0.7139,-0.7139,-0.7139,-0.7139,-0.7139,-0.7139,-0.7139,-0.7139,-0.7139,-0.7238,-0.7316,-0.7377,-0.756,-0.7675,-1.1142,-1.2282,-1.3559,-1.3886,-1.5333,-1.6972,-1.8127,-1.8236,-1.8235,-1.8754,-1.8041,-1.6938,-1.5732,-1.5998,-1.6211,-1.5611,-1.6334,-1.689,-1.6914,-1.7353,-1.768,-1.7888,-1.821,-1.8614,-1.9117,-1.9922,-2.062,-2.1113,-2.1999,-2.2403,-2.1909,-2.1021,-2.0171,-1.947,-1.8565,-1.79,-1.7582,-1.7582,-1.7582,-1.7589,-1.8003,-1.8203,-1.8203,-1.8203,-1.8203,-1.819,-1.7989,-1.7903,-1.7883,-1.7669,-1.7582,-1.7582,-1.7582,-1.7582,-1.7582,-1.7582,-1.7582,-1.7582,-1.7582,-1.7582,-1.747,-1.6387,-1.5743,-1.4984,-1.3048,-1.167,-1.059,-0.9545,-0.8742,-0.818,-0.8194,-0.8119,-0.8038,-0.8038,-0.8038,-0.8038,-0.8038,-0.8038,-0.8038,-0.8038,-0.8038,-0.8038,-0.8038,-0.8038,-0.8038,-0.8038,-0.8038,-0.8038,-0.8038,-0.8038,-0.8021,-0.7974,-0.7746,-0.758,-0.7533,-0.7288,-0.7139,-0.7139,-0.7139,-0.7139,-0.7139,-0.7139,-0.7139,-0.7139,-0.7139,-0.7139,-0.7139,-0.7248,-0.7322,-0.7377,-0.7628,-0.777,-1.1621,-1.2387,-1.3745,-1.5099,-1.6433,-1.7959,-2.0088,-2.0155,-1.9784,-1.9527,-1.8919,-1.8078,-1.7026,-1.7723,-1.7644,-1.5404,-1.68,-1.7698,-1.6461,-1.7576,-1.855,-1.8557,-1.961,-2.0962,-2.2227,-2.2416,-2.2981,-2.4322,-2.4414,-2.3839,-2.251,-2.2416,-2.1332,-1.9134,-1.9048,-1.8599,-1.7575,-1.7582,-1.7582,-1.7582,-1.7582,-1.7582,-1.7582,-1.7582,-1.7582,-1.7582,-1.7582,-1.7582,-1.7582,-1.7582,-1.7582,-1.7582,-1.7582,-1.7582,-1.7582,-1.7582,-1.7582,-1.7582,-1.7582,-1.7582,-1.7582,-1.7582,-1.6605,-1.5417,-1.5411,-1.3367,-1.1129,-1.0745,-0.9611,-0.8408,-0.8116,-0.8038,-0.8038,-0.8038,-0.8038,-0.8038,-0.8038,-0.8038,-0.8038,-0.8038,-0.8038,-0.8038,-0.8038,-0.8038,-0.8038,-0.8038,-0.8038,-0.8038,-0.8038,-0.8038,-0.798,-0.7828,-0.7685,-0.7539,-0.739,-0.7231,-0.7139,-0.7143,-0.7139,-0.7139,-0.7139,-0.7139,-0.7139,-0.7139,-0.7139,-0.7139,-0.7139,-0.7143,-0.7221,-0.7377,-0.7533,-0.7678,-1.2928,-1.4048,-1.5362,-1.5783,-1.7554,-1.9414,-2.0352,-2.0498,-2.0372,-2.0383,-2.0263,-1.9835,-1.8619,-1.8707,-1.8715,-1.8008,-1.8557,-1.901,-1.887,-1.9178,-1.9526,-1.9773,-2.0192,-2.0578,-2.0962,-2.1838,-2.2604,-2.299,-2.3849,-2.4229,-2.3849,-2.2887,-2.2081,-2.142,-1.9813,-1.8898,-1.8592,-1.7887,-1.7582,-1.7582,-1.7582,-1.7582,-1.7582,-1.7582,-1.7582,-1.7582,-1.7582,-1.7582,-1.7582,-1.7582,-1.7582,-1.7582,-1.7582,-1.7582,-1.7582,-1.7582,-1.7582,-1.7582,-1.7582,-1.7582,-1.7582,-1.7582,-1.7259,-1.6679,-1.5521,-1.4492,-1.3458,-1.2141,-1.1358,-1.0825,-1.0811,-1.0779,-1.0288,-0.8432,-0.8038,-0.8038,-0.8038,-0.8038,-0.8038,-0.8038,-0.8038,-0.8038,-0.8038,-0.8038,-0.8038,-0.8038,-0.8038,-0.8038,-0.8038,-0.8038,-0.8021,-0.7977,-0.775,-0.7621,-0.7675,-0.735,-0.7187,-0.7295,-0.72,-0.7139,-0.7139,-0.7139,-0.7139,-0.7139,-0.7139,-0.7139,-0.7139,-0.7251,-0.738,-0.7536,-0.7682,-0.7828,-1.4013,-1.5057,-1.6347,-1.6751,-1.8231,-1.9824,-2.043,-2.084,-2.1186,-2.1334,-2.1174,-2.0789,-1.9957,-1.986,-1.9712,-1.8896,-1.9487,-1.9889,-1.9471,-1.987,-2.0371,-2.0746,-2.1041,-2.1301,-2.1441,-2.2217,-2.2695,-2.2695,-2.3444,-2.3906,-2.3906,-2.3161,-2.2492,-2.2182,-2.0289,-1.9208,-1.8855,-1.7749,-1.7235,-1.7235,-1.7235,-1.7295,-1.7415,-1.7528,-1.7582,-1.7582,-1.7582,-1.7582,-1.7582,-1.7582,-1.7582,-1.7582,-1.7582,-1.7508,-1.7408,-1.7408,-1.7408,-1.7395,-1.7275,-1.7315,-1.7388,-1.7275,-1.7235,-1.7091,-1.5978,-1.5185,-1.4488,-1.333,-1.2569,-1.1958,-1.197,-1.1945,-1.1458,-0.9899,-0.9114,-0.8825,-0.8825,-0.8333,-0.8038,-0.8038,-0.8038,-0.8038,-0.8038,-0.8038,-0.8038,-0.8038,-0.8038,-0.8038,-0.8038,-0.8038,-0.8018,-0.7957,-0.779,-0.7695,-0.7726,-0.7478,-0.7336,-0.737,-0.7285,-0.7204,-0.7143,-0.7139,-0.7139,-0.7139,-0.7139,-0.7139,-0.7139,-0.7234,-0.7326,-0.7421,-0.7567,-0.7719,-1.5054,-1.5789,-1.6897,-1.7752,-1.8711,-1.9609,-2.0391,-2.1182,-2.1885,-2.2314,-2.1807,-2.1188,-2.1059,-2.1116,-2.0746,-1.8965,-1.9912,-2.0401,-1.9255,-2.0044,-2.0971,-2.1325,-2.1958,-2.2617,-2.3047,-2.3086,-2.3096,-2.3135,-2.3135,-2.3135,-2.3135,-2.3135,-2.278,-2.1961,-2.0678,-1.9621,-1.8799,-1.747,-1.69,-1.69,-1.6707,-1.6847,-1.7121,-1.7408,-1.7555,-1.7582,-1.7582,-1.7582,-1.7582,-1.7582,-1.7569,-1.7542,-1.7542,-1.7368,-1.7108,-1.7108,-1.7108,-1.7074,-1.68,-1.6881,-1.7061,-1.6794,-1.6707,-1.67,-1.6673,-1.5746,-1.466,-1.4493,-1.3529,-1.249,-1.2288,-1.2139,-1.2042,-1.2042,-1.0974,-0.9998,-0.9998,-0.892,-0.8038,-0.8038,-0.8038,-0.8038,-0.8038,-0.8038,-0.8038,-0.8038,-0.8038,-0.8038,-0.8038,-0.8038,-0.7987,-0.7845,-0.7821,-0.7767,-0.7648,-0.7614,-0.7539,-0.74,-0.738,-0.7302,-0.7146,-0.7139,-0.7139,-0.7139,-0.7139,-0.7139,-0.7139,-0.7139,-0.7146,-0.7166,-0.7319,-0.7465,-1.6668,-1.7184,-1.7841,-1.835,-1.9383,-2.0342,-2.0527,-2.0713,-2.0977,-2.1416,-2.1631,-2.1714,-2.1723,-2.17,-2.1603,-2.1172,-2.1434,-2.1575,-2.1231,-2.1492,-2.1697,-2.1794,-2.1894,-2.2187,-2.2607,-2.2646,-2.2783,-2.3115,-2.3135,-2.3135,-2.3135,-2.3135,-2.2998,-2.2821,-2.1853,-2.1313,-2.1112,-1.9097,-1.8065,-1.8072,-1.7193,-1.674,-1.6814,-1.7108,-1.7368,-1.7582,-1.7582,-1.7582,-1.7582,-1.7582,-1.7448,-1.7241,-1.7241,-1.7061,-1.68,-1.68,-1.68,-1.6794,-1.6727,-1.6747,-1.6794,-1.6727,-1.6707,-1.666,-1.6433,-1.6163,-1.5803,-1.5512,-1.5236,-1.5025,-1.4968,-1.4172,-1.3488,-1.3488,-1.1648,-0.9998,-0.9998,-0.892,-0.8038,-0.8038,-0.8038,-0.8038,-0.8038,-0.8038,-0.8038,-0.8038,-0.8038,-0.8038,-0.8038,-0.8038,-0.8028,-0.7994,-0.7882,-0.7848,-0.7936,-0.7733,-0.7587,-0.7553,-0.7438,-0.7302,-0.7146,-0.7139,-0.7139,-0.7139,-0.7139,-0.7139,-0.7139,-0.7139,-0.7204,-0.7326,-0.7478,-0.7567,-1.7378,-1.7974,-1.8662,-1.9105,-1.9756,-2.0312,-2.0518,-2.0566,-2.0635,-2.0869,-2.1094,-2.1387,-2.1807,-2.1543,-2.1318,-2.1543,-2.1572,-2.1572,-2.1572,-2.1572,-2.165,-2.1865,-2.1699,-2.1816,-2.2451,-2.251,-2.2685,-2.3105,-2.3135,-2.3135,-2.3135,-2.3135,-2.3135,-2.3135,-2.2067,-2.1263,-2.0715,-1.8949,-1.7808,-1.7237,-1.6572,-1.6359,-1.6506,-1.68,-1.7021,-1.7161,-1.7161,-1.7161,-1.7174,-1.7315,-1.7201,-1.6947,-1.7094,-1.6881,-1.65,-1.65,-1.65,-1.648,-1.6333,-1.638,-1.6473,-1.6333,-1.6286,-1.6259,-1.6106,-1.6059,-1.6025,-1.5872,-1.5343,-1.4854,-1.4854,-1.3878,-1.2909,-1.2909,-1.1453,-0.9998,-0.9998,-0.892,-0.8018,-0.7943,-0.7929,-0.7929,-0.7929,-0.7991,-0.8038,-0.8038,-0.8038,-0.8038,-0.8038,-0.8038,-0.8038,-0.8038,-0.7967,-0.7953,-0.8031,-0.7899,-0.775,-0.7607,-0.7522,-0.7377,-0.7149,-0.7139,-0.7139,-0.7139,-0.7139,-0.7139,-0.7139,-0.7139,-0.718,-0.7261,-0.7343,-0.7421,-1.7621,-1.8281,-1.9106,-1.9829,-1.987,-1.9902,-2.0264,-2.0342,-2.0371,-2.0439,-2.0508,-2.0791,-2.1523,-2.0895,-2.0449,-2.0736,-2.0623,-2.0543,-2.0543,-2.0543,-2.0747,-2.1356,-2.1086,-2.1182,-2.2217,-2.2295,-2.2471,-2.2891,-2.292,-2.2959,-2.3027,-2.3027,-2.3066,-2.3135,-2.212,-2.1123,-2.0133,-1.8688,-1.7498,-1.6473,-1.6015,-1.5959,-1.6206,-1.6446,-1.6613,-1.6707,-1.6707,-1.6707,-1.6727,-1.6974,-1.6901,-1.6653,-1.6901,-1.6673,-1.6192,-1.6192,-1.6192,-1.6159,-1.5912,-1.5992,-1.6152,-1.5912,-1.5832,-1.5832,-1.5832,-1.5832,-1.5832,-1.5832,-1.4854,-1.3878,-1.3878,-1.2684,-1.1502,-1.1502,-1.0506,-0.9633,-0.9985,-0.892,-0.7994,-0.7841,-0.779,-0.7784,-0.7807,-0.7916,-0.8011,-0.8035,-0.8038,-0.8038,-0.8038,-0.8038,-0.8038,-0.8038,-0.8038,-0.8038,-0.8038,-0.8014,-0.7885,-0.7617,-0.7577,-0.7434,-0.7153,-0.7139,-0.7139,-0.7139,-0.7139,-0.7139,-0.7139,-0.7139,-0.7139,-0.7139,-0.7166,-0.7234,-1.7566,-1.8017,-1.8764,-2.0141,-1.9928,-1.9385,-1.9443,-1.9453,-1.9561,-1.9932,-2.0303,-2.0605,-2.0723,-1.992,-1.9222,-1.9277,-1.8469,-1.7823,-1.7823,-1.7823,-1.8244,-1.927,-1.9314,-1.9869,-2.1277,-2.1406,-2.1582,-2.2021,-2.2051,-2.2207,-2.2578,-2.2598,-2.2764,-2.3125,-2.295,-2.2775,-2.2599,-2.0404,-1.9131,-1.8948,-1.6842,-1.5852,-1.5885,-1.5925,-1.6226,-1.6707,-1.6707,-1.6707,-1.6707,-1.6747,-1.6593,-1.6333,-1.6373,-1.6186,-1.5885,-1.5885,-1.5885,-1.5879,-1.5845,-1.5852,-1.5879,-1.5838,-1.5832,-1.5832,-1.5832,-1.5832,-1.5832,-1.5832,-1.4854,-1.3878,-1.3878,-1.1985,-1.004,-1.004,-0.8977,-0.8295,-0.9734,-0.892,-0.7994,-0.7841,-0.7712,-0.7665,-0.779,-0.7828,-0.7885,-0.8021,-0.8038,-0.8038,-0.8038,-0.8038,-0.8038,-0.8038,-0.8038,-0.8038,-0.8038,-0.7919,-0.7773,-0.7611,-0.7475,-0.7322,-0.7146,-0.7139,-0.7139,-0.7139,-0.7139,-0.7139,-0.7139,-0.7139,-0.7139,-0.7143,-0.7278,-0.7278,-1.8389,-1.8407,-1.8518,-1.9865,-1.9682,-1.9223,-1.9315,-1.9287,-1.9336,-1.9531,-1.9717,-2.0,-2.0478,-1.949,-1.8623,-1.8701,-1.7931,-1.7268,-1.7133,-1.7202,-1.7496,-1.7989,-1.8069,-1.8619,-2.0177,-2.0295,-2.0727,-2.1846,-2.1885,-2.1963,-2.2148,-2.2158,-2.2353,-2.2773,-2.2783,-2.2534,-2.212,-2.0395,-1.8764,-1.739,-1.6285,-1.5832,-1.5832,-1.5832,-1.5972,-1.6219,-1.6219,-1.6219,-1.6226,-1.6393,-1.6286,-1.6039,-1.6206,-1.6092,-1.5832,-1.5832,-1.5832,-1.5832,-1.5832,-1.5832,-1.5832,-1.5832,-1.5832,-1.5832,-1.5832,-1.5832,-1.5832,-1.5832,-1.437,-1.2818,-1.2818,-1.0803,-0.8788,-0.869,-0.814,-0.7921,-0.8542,-0.8176,-0.7746,-0.7594,-0.7512,-0.7492,-0.7553,-0.7702,-0.7834,-0.7899,-0.7984,-0.8038,-0.8038,-0.8038,-0.8038,-0.8038,-0.8038,-0.8038,-0.8038,-0.7977,-0.7875,-0.7729,-0.758,-0.7431,-0.7275,-0.7187,-0.7139,-0.7139,-0.7139,-0.7139,-0.7139,-0.7139,-0.7139,-0.7143,-0.721,-0.7207,-1.8754,-1.8565,-1.8324,-1.9651,-1.9596,-1.9253,-1.9264,-1.9302,-1.9271,-1.9174,-1.9033,-1.9228,-2.0088,-1.8877,-1.7817,-1.7894,-1.6959,-1.6204,-1.6095,-1.6228,-1.6506,-1.6838,-1.6927,-1.7441,-1.8865,-1.9055,-1.9598,-2.1014,-2.1125,-2.1347,-2.1719,-2.1719,-2.1914,-2.2344,-2.2353,-2.2054,-2.1452,-2.0026,-1.808,-1.5718,-1.5792,-1.5832,-1.5832,-1.5832,-1.5832,-1.5832,-1.5832,-1.5832,-1.5845,-1.6072,-1.6032,-1.5852,-1.6072,-1.6025,-1.5832,-1.5832,-1.5832,-1.5832,-1.5832,-1.5832,-1.5832,-1.5832,-1.5832,-1.5832,-1.5832,-1.5832,-1.5832,-1.5832,-1.4178,-1.2334,-1.1945,-1.0156,-0.8438,-0.8315,-0.8037,-0.7692,-0.7658,-0.7624,-0.7567,-0.7451,-0.7397,-0.7383,-0.7421,-0.7611,-0.7784,-0.7858,-0.7967,-0.8038,-0.8038,-0.8038,-0.8038,-0.8038,-0.8004,-0.798,-0.798,-0.7946,-0.7862,-0.7709,-0.76,-0.7472,-0.7319,-0.7204,-0.7139,-0.7139,-0.7139,-0.7139,-0.7139,-0.7139,-0.7139,-0.7139,-0.7139,-0.7139,-1.7956,-1.798,-1.8102,-1.9782,-1.9901,-1.9632,-1.9388,-1.9306,-1.9163,-1.8724,-1.835,-1.834,-1.9199,-1.7719,-1.6329,-1.6329,-1.4684,-1.35,-1.3764,-1.3818,-1.433,-1.5584,-1.5779,-1.6198,-1.7286,-1.7448,-1.7861,-1.902,-1.9179,-1.9761,-2.116,-2.1269,-2.1475,-2.1904,-2.1924,-2.1924,-2.186,-1.9861,-1.7643,-1.5424,-1.5698,-1.5832,-1.5832,-1.5832,-1.5832,-1.5832,-1.5832,-1.5832,-1.5832,-1.5845,-1.5845,-1.5832,-1.5845,-1.5845,-1.5832,-1.5832,-1.5832,-1.5832,-1.5832,-1.5832,-1.5832,-1.5832,-1.5832,-1.5832,-1.5832,-1.5832,-1.5832,-1.5832,-1.4854,-1.3488,-1.2237,-1.0826,-0.9727,-0.9719,-0.8524,-0.7468,-0.774,-0.7695,-0.7597,-0.759,-0.7472,-0.7417,-0.7563,-0.76,-0.7706,-0.7984,-0.8035,-0.8038,-0.8038,-0.8038,-0.8038,-0.8038,-0.7909,-0.7824,-0.7824,-0.7699,-0.7556,-0.7404,-0.7387,-0.7316,-0.7156,-0.7143,-0.7139,-0.7139,-0.7139,-0.7139,-0.7139,-0.7139,-0.7139,-0.7139,-0.7139,-0.7139,-1.8416,-1.81,-1.78,-1.8893,-1.9329,-1.9435,-1.9087,-1.918,-1.9218,-1.9049,-1.8504,-1.8105,-1.8408,-1.6982,-1.5807,-1.5955,-1.4359,-1.318,-1.308,-1.34,-1.3763,-1.4262,-1.4532,-1.5054,-1.6191,-1.6273,-1.7001,-1.8877,-1.9036,-1.9506,-2.0712,-2.0159,-2.0269,-2.1455,-2.0108,-1.9123,-1.8665,-1.7922,-1.6684,-1.5117,-1.5224,-1.5277,-1.5284,-1.5464,-1.5451,-1.5297,-1.5665,-1.5832,-1.5832,-1.5832,-1.5832,-1.5832,-1.5832,-1.5832,-1.5832,-1.5832,-1.5832,-1.5832,-1.5832,-1.5832,-1.5832,-1.5832,-1.5832,-1.5832,-1.5832,-1.5832,-1.5832,-1.5832,-1.4854,-1.3741,-1.3003,-1.1852,-1.0905,-1.0777,-1.0255,-0.9894,-1.0198,-1.022,-0.9806,-0.8975,-0.8737,-0.8806,-0.8776,-0.8233,-0.777,-0.7879,-0.7977,-0.8038,-0.8038,-0.8038,-0.8038,-0.8038,-0.7902,-0.7811,-0.7811,-0.7682,-0.7577,-0.7519,-0.7424,-0.7346,-0.7292,-0.7193,-0.7139,-0.7139,-0.7139,-0.7139,-0.7139,-0.7139,-0.7139,-0.7139,-0.7139,-0.7139,-1.7937,-1.7817,-1.7622,-1.8503,-1.9016,-1.928,-1.932,-1.9482,-1.9499,-1.9101,-1.8675,-1.8337,-1.8076,-1.6863,-1.5872,-1.5655,-1.4328,-1.3244,-1.2835,-1.318,-1.3534,-1.3552,-1.3908,-1.4412,-1.5054,-1.5137,-1.5951,-1.7738,-1.79,-1.8381,-1.9432,-1.8789,-1.8914,-1.9848,-1.8529,-1.7311,-1.6432,-1.6545,-1.6002,-1.4816,-1.4917,-1.4963,-1.497,-1.5164,-1.515,-1.4983,-1.5371,-1.5591,-1.5691,-1.5792,-1.5832,-1.5832,-1.5832,-1.5832,-1.5832,-1.5832,-1.5832,-1.5812,-1.5718,-1.5745,-1.5798,-1.5605,-1.5671,-1.5812,-1.5712,-1.5752,-1.5832,-1.5832,-1.5146,-1.4417,-1.3755,-1.2947,-1.2131,-1.1538,-1.207,-1.2539,-1.1843,-1.1584,-1.1291,-1.0454,-1.0268,-1.0081,-0.9712,-0.8969,-0.8304,-0.7879,-0.7974,-0.8038,-0.8038,-0.8038,-0.8038,-0.8038,-0.7902,-0.779,-0.7743,-0.7655,-0.7556,-0.7451,-0.74,-0.735,-0.7295,-0.7193,-0.7139,-0.7139,-0.7139,-0.7139,-0.7139,-0.7139,-0.7139,-0.7139,-0.7139,-0.7139,0.0,0.0,0.0,-1.8694,-1.8933,-1.9156,-1.9969,-2.0155,-1.9854,-1.8743,-1.8887,-1.9013,-1.8134,-1.7285,-1.6358,-1.5376,-1.4378,-1.3492,-1.2913,-1.2999,-1.3307,-1.3594,-1.3895,-1.4075,-1.4088,-1.4088,-1.4573,-1.5621,-1.5696,-1.6191,-1.7261,-1.7342,-1.7253,-1.7172,-1.7261,-1.6764,-1.5703,-1.5926,-1.5505,-1.4509,-1.4803,-1.4937,-1.4937,-1.4943,-1.4943,-1.4937,-1.4963,-1.513,-1.5404,-1.5698,-1.5818,-1.5832,-1.5832,-1.5832,-1.5832,-1.5818,-1.5812,-1.5772,-1.5484,-1.5571,-1.5712,-1.515,-1.5344,-1.5752,-1.5471,-1.5578,-1.5805,-1.5812,-1.5812,-1.552,-1.4244,-1.3945,-1.3588,-1.212,-1.3874,-1.5063,-1.2425,-1.1811,-1.1806,-1.1806,-1.1806,-1.1333,-1.0105,-0.9819,-0.9401,-0.8206,-0.8035,-0.8035,-0.8028,-0.8035,-0.8035,-0.8028,-0.7892,-0.7746,-0.7604,-0.759,-0.7458,-0.716,-0.7282,-0.7295,-0.7146,-0.7139,-0.7139,-0.7139,-0.7139,-0.7139,-0.7139,-0.7139,-0.7139,-0.7139,-0.7139,-0.7139,-1.7188,0.0,0.0,0.0,0.0,0.0,-1.8697,-1.8895,-1.9016,-1.8824,-1.8383,-1.8066,-1.8026,-1.7794,-1.7285,-1.6358,-1.4799,-1.363,-1.3506,-1.3134,-1.2986,-1.3293,-1.3587,-1.3848,-1.4068,-1.4088,-1.4573,-1.5621,-1.5696,-1.6191,-1.7261,-1.7342,-1.6609,-1.5068,-1.5711,-1.5621,-1.4573,-1.4656,-1.4535,-1.4208,-1.4289,-1.4329,-1.4335,-1.4549,-1.4529,-1.4362,-1.5003,-1.5204,-1.5104,-1.5398,-1.5638,-1.5832,-1.5832,-1.5832,-1.5805,-1.5591,-1.5518,-1.5478,-1.5184,-1.5137,-1.5177,-1.5017,-1.507,-1.519,-1.511,-1.5137,-1.5251,-1.5458,-1.5518,-1.5372,-1.4878,-1.4488,-1.427,-1.4119,-1.4832,-1.5358,-1.481,-1.4646,-1.4355,-1.3481,-1.329,-1.2907,-1.1559,-1.0599,-0.9502,-0.8077,-0.797,-0.7963,-0.775,-0.7906,-0.796,-0.7743,-0.7685,-0.7597,-0.7448,-0.7333,-0.7231,-0.7146,-0.718,-0.7183,-0.7143,-0.7139,-0.7139,-0.7139,-0.7139,-0.7139,-0.7139,-0.7139,-0.7139,-0.7139,-0.7139,-0.7139,-1.7814,-1.7229,-1.6888,-1.7145,0.0,0.0,-1.8392,-1.8672,-1.8821,-1.9046,-1.8885,-1.8603,-1.8425,-1.8096,-1.783,-1.7446,-1.5816,-1.456,-1.4363,-1.3807,-1.3418,-1.3607,-1.3627,-1.3707,-1.3881,-1.4015,-1.4328,-1.4977,-1.5054,-1.5304,-1.5959,-1.5959,-1.5387,-1.4173,-1.4734,-1.4734,-1.4088,-1.4088,-1.4088,-1.4088,-1.4088,-1.4088,-1.4095,-1.4262,-1.4249,-1.4115,-1.4629,-1.4823,-1.479,-1.4963,-1.5344,-1.5805,-1.5565,-1.5538,-1.5611,-1.5324,-1.5217,-1.517,-1.4883,-1.4863,-1.4923,-1.4676,-1.4763,-1.4943,-1.4816,-1.4863,-1.4997,-1.517,-1.5217,-1.5177,-1.501,-1.4836,-1.475,-1.4923,-1.5097,-1.5264,-1.5431,-1.5471,-1.5345,-1.4804,-1.4657,-1.4076,-1.2237,-1.1288,-1.0035,-0.8111,-0.7838,-0.7794,-0.7621,-0.775,-0.779,-0.7617,-0.76,-0.7539,-0.7383,-0.7288,-0.721,-0.7143,-0.7139,-0.7139,-0.7139,-0.7139,-0.7139,-0.7139,-0.7577,-0.8097,-0.8532,-0.7577,-0.7139,-0.7139,-0.8097,-0.8273,-1.8491,-1.7991,-1.7699,-1.8176,-1.7609,0.0,-1.8526,-1.8879,-1.8958,-1.9102,-1.9506,-1.9621,-1.8851,-1.8169,-1.7892,-1.8312,-1.7148,-1.6044,-1.5458,-1.4718,-1.4343,-1.4381,-1.3944,-1.3764,-1.3797,-1.3998,-1.4088,-1.4088,-1.4088,-1.4088,-1.4088,-1.4088,-1.4088,-1.4088,-1.4088,-1.4088,-1.4088,-1.4088,-1.4088,-1.4088,-1.4088,-1.4088,-1.4088,-1.4088,-1.4088,-1.4088,-1.4122,-1.4282,-1.4522,-1.4522,-1.5003,-1.5678,-1.5164,-1.5124,-1.5311,-1.5023,-1.4917,-1.487,-1.4576,-1.4649,-1.4783,-1.4255,-1.4442,-1.4816,-1.4549,-1.4656,-1.487,-1.4903,-1.4917,-1.4917,-1.4917,-1.4917,-1.4917,-1.4917,-1.4937,-1.4963,-1.4963,-1.4963,-1.5117,-1.5631,-1.5732,-1.4874,-1.2292,-1.1723,-1.0806,-0.8144,-0.776,-0.7771,-0.7553,-0.767,-0.7771,-0.7553,-0.7563,-0.7512,-0.736,-0.7346,-0.7288,-0.7149,-0.7139,-0.7139,-0.7139,-0.7228,-0.7316,-0.7316,-0.8452,-0.9579,-1.0611,-0.8532,-0.7489,-0.7577,-0.9657,-1.0096,-1.988,-1.9626,-1.9458,-1.9017,-1.9181,0.0,-1.7916,-1.8066,-1.8261,-1.754,-1.7463,-1.7572,-1.7601,-1.7464,-1.744,-1.7538,-1.7943,-1.784,-1.6519,-1.5576,-1.5089,-1.5299,-1.4805,-1.4539,-1.4801,-1.44,-1.4088,-1.4088,-1.4088,-1.4088,-1.4088,-1.4088,-1.4088,-1.4088,-1.4088,-1.4088,-1.4088,-1.4088,-1.4088,-1.4088,-1.4088,-1.4088,-1.4088,-1.4088,-1.4088,-1.4102,-1.4335,-1.4469,-1.4522,-1.4522,-1.4763,-1.5124,-1.501,-1.4997,-1.5017,-1.4716,-1.4603,-1.4563,-1.4275,-1.4208,-1.4242,-1.4122,-1.4162,-1.4249,-1.4188,-1.4208,-1.4309,-1.4543,-1.4603,-1.4603,-1.4603,-1.4603,-1.4603,-1.4603,-1.479,-1.4963,-1.4963,-1.4963,-1.4997,-1.511,-1.5137,-1.4453,-1.2115,-1.1589,-1.0454,-0.7838,-0.8359,-0.8509,-0.7348,-0.8257,-0.8502,-0.7344,-0.7343,-0.7353,-0.72,-0.7183,-0.7173,-0.7143,-0.7139,-0.7139,-0.7139,-0.8013,-0.854,-0.854,-0.9662,-1.0351,-1.0611,-1.0178,-0.9918,-0.9918,-1.0351,-1.0438,-2.0657,-2.0454,-2.0443,-2.0061,-1.981,0.0,0.0,-1.8584,-1.8669,-1.8802,-1.8352,-1.8079,-1.8554,-1.7826,-1.7299,-1.7444,-1.7891,-1.8023,-1.7425,-1.6883,-1.6455,-1.6111,-1.5674,-1.5235,-1.4877,-1.4856,-1.465,-1.4173,-1.4573,-1.465,-1.4173,-1.4573,-1.465,-1.4088,-1.4088,-1.4328,-1.4894,-1.4894,-1.5137,-1.5718,-1.5718,-1.5387,-1.4894,-1.4894,-1.4573,-1.4095,-1.4242,-1.4302,-1.4302,-1.4302,-1.4396,-1.4522,-1.4522,-1.4616,-1.4703,-1.4416,-1.4302,-1.4282,-1.4135,-1.4088,-1.4088,-1.4088,-1.4088,-1.4088,-1.4088,-1.4088,-1.4115,-1.4262,-1.4302,-1.4302,-1.4302,-1.4302,-1.4302,-1.4302,-1.4416,-1.4522,-1.4522,-1.4522,-1.4569,-1.471,-1.4629,-1.4121,-1.259,-1.2171,-1.1341,-0.9358,-0.9606,-0.9446,-0.8124,-0.8605,-0.8555,-0.7245,-0.721,-0.7224,-0.7146,-0.7139,-0.7139,-0.7139,-0.7139,-0.7139,-0.7139,-0.7665,-0.8536,-0.9753,-1.0869,-1.1729,-1.2345,-1.2345,-1.174,-1.0611,-1.1821,-1.1992,-2.152,-2.1355,-2.1376,-2.1102,-2.0423,-1.9767,0.0,0.0,0.0,-2.0136,-1.9489,-1.8959,-1.939,-1.8278,-1.7315,-1.7431,-1.7734,-1.7915,-1.7902,-1.8068,-1.7915,-1.712,-1.6776,-1.6255,-1.5363,-1.5548,-1.5405,-1.4482,-1.5262,-1.5487,-1.4734,-1.5545,-1.5621,-1.4741,-1.4741,-1.5144,-1.6026,-1.6026,-1.6437,-1.7342,-1.7342,-1.6846,-1.6026,-1.6026,-1.5379,-1.4412,-1.4412,-1.4328,-1.4088,-1.4088,-1.4088,-1.4088,-1.4088,-1.4229,-1.4409,-1.4175,-1.4088,-1.4088,-1.4088,-1.4088,-1.4088,-1.4088,-1.4088,-1.4088,-1.4088,-1.4088,-1.4088,-1.4088,-1.4088,-1.4088,-1.4088,-1.4088,-1.4088,-1.4088,-1.4088,-1.4088,-1.4088,-1.4088,-1.4155,-1.4389,-1.4249,-1.39,-1.3135,-1.2815,-1.2289,-1.0972,-1.0901,-1.0524,-0.9405,-0.941,-0.9056,-0.7925,-0.7749,-0.7749,-0.7749,-0.7749,-0.7749,-0.7749,-0.7749,-0.7749,-0.7749,-0.8006,-0.9135,-1.1219,-1.2163,-1.3118,-1.4088,-1.4088,-1.313,-1.13,-1.3215,-1.3561,-2.3182,-2.3283,-2.3016,-2.1883,-2.1932,-2.1736,-1.9522,0.0,-1.9544,-1.8587,0.0,-1.8085,-1.7673,0.0,0.0,-1.676,-1.8253,-1.8943,-1.729,-1.8278,-1.9102,-1.8709,-1.8302,-1.7948,-1.7735,-1.6687,-1.5842,-1.5576,-1.5779,-1.625,-1.6895,-1.7009,-1.709,-1.6935,-1.6935,-1.7017,-1.709,-1.709,-1.7172,-1.7342,-1.7342,-1.7261,-1.709,-1.709,-1.6519,-1.5538,-1.5538,-1.4977,-1.4088,-1.4088,-1.4088,-1.4088,-1.4088,-1.4108,-1.4135,-1.4095,-1.4088,-1.4088,-1.4088,-1.4088,-1.4088,-1.4088,-1.4088,-1.4088,-1.4088,-1.4088,-1.4088,-1.4088,-1.4088,-1.4088,-1.4088,-1.4088,-1.4088,-1.4088,-1.4088,-1.4088,-1.4088,-1.4088,-1.4095,-1.4128,-1.4108,-1.3835,-1.2979,-1.2539,-1.194,-1.0824,-1.1488,-1.1724,-1.0524,-1.1295,-1.1466,-1.0351,-1.0178,-1.0178,-1.0178,-1.0178,-1.0178,-1.0178,-1.0178,-1.0178,-1.0178,-1.1209,-1.2334,-1.3652,-1.3822,-1.3997,-1.4088,-1.4088,-1.3997,-1.3737,-1.3997,-1.4004,-2.3118,-2.3325,-2.3385,-2.2488,-2.2188,-2.1744,-2.0277,-1.987,-1.9736,-1.9648,0.0,0.0,0.0,0.0,0.0,0.0,-1.8222,-1.8585,-1.7781,-1.8524,-1.8982,-1.8516,-1.8518,-1.8426,-1.8158,-1.6607,-1.5675,-1.5866,-1.6287,-1.6699,-1.6971,-1.7576,-1.7678,-1.7334,-1.7342,-1.7585,-1.831,-1.831,-1.863,-1.9186,-1.9186,-1.8868,-1.831,-1.831,-1.7658,-1.6601,-1.5944,-1.5455,-1.4977,-1.4328,-1.4088,-1.4088,-1.4088,-1.4088,-1.4088,-1.4088,-1.4088,-1.4088,-1.4088,-1.4088,-1.4088,-1.4088,-1.4088,-1.4088,-1.4088,-1.4088,-1.4088,-1.4088,-1.4088,-1.4088,-1.4088,-1.4088,-1.4088,-1.4088,-1.4088,-1.4088,-1.4088,-1.4088,-1.4088,-1.4088,-1.4088,-1.3952,-1.3623,-1.3455,-1.3209,-1.2693,-1.3039,-1.2942,-1.1729,-1.198,-1.1895,-1.0697,-1.0611,-1.0611,-1.0611,-1.0611,-1.0611,-1.0611,-1.0611,-1.0611,-1.0611,-1.1724,-1.2504,-1.3027,-1.373,-1.4088,-1.4088,-1.4088,-1.4088,-1.4088,-1.4088,-1.4088,-2.2999,-2.3251,-2.3415,-2.2607,-2.2054,-2.1485,-2.0617,-2.0183,-2.0109,-2.0617,-2.0135,0.0,0.0,0.0,-1.8908,-1.8462,0.0,-1.8555,-1.8236,-1.8426,-1.851,-1.8343,-1.8792,-1.8717,-1.7852,-1.6684,-1.6117,-1.6263,-1.6766,-1.718,-1.7431,-1.829,-1.8488,-1.8056,-1.8169,-1.863,-1.9441,-1.9441,-1.9844,-2.0566,-2.0566,-2.0157,-1.9432,-1.9321,-1.8691,-1.7738,-1.6823,-1.6098,-1.5621,-1.4894,-1.4328,-1.4088,-1.4088,-1.4088,-1.4088,-1.4088,-1.4088,-1.4088,-1.4088,-1.4088,-1.4088,-1.4088,-1.4088,-1.4088,-1.4088,-1.4088,-1.4088,-1.4088,-1.4088,-1.4088,-1.4088,-1.4088,-1.4088,-1.4088,-1.4088,-1.4088,-1.4088,-1.4088,-1.4088,-1.4088,-1.4088,-1.4088,-1.4088,-1.4088,-1.4088,-1.4088,-1.4088,-1.3822,-1.2942,-1.2766,-1.2504,-1.1649,-1.1563,-1.1563,-1.1563,-1.1563,-1.1563,-1.1563,-1.1563,-1.1563,-1.1563,-1.2334,-1.2766,-1.2766,-1.3646,-1.4088,-1.4088,-1.4088,-1.4048,-1.3968,-1.4048,-1.4088,-2.3406,-2.3595,-2.3295,-2.2039,-2.171,-2.135,-2.0019,-2.0228,-2.0692,-2.0722,-2.1201,-2.1461,-2.0959,-2.1259,-2.1024,-1.9321,-1.9529,0.0,0.0,-1.7747,-1.784,-1.8846,-1.9576,-1.9126,-1.7031,-1.7389,-1.7506,-1.7036,-1.726,-1.7901,-1.9165,-1.9623,-1.9837,-1.9856,-2.0265,-2.0479,-2.0566,-2.0566,-2.0566,-2.0566,-2.0566,-2.0566,-2.0547,-2.0051,-1.9534,-1.8939,-1.8395,-1.7242,-1.5696,-1.5703,-1.5054,-1.4088,-1.4088,-1.4088,-1.4088,-1.4088,-1.4088,-1.4088,-1.4088,-1.4088,-1.4088,-1.4088,-1.4088,-1.4088,-1.4088,-1.4088,-1.4088,-1.4088,-1.4088,-1.4088,-1.4088,-1.4088,-1.4088,-1.4088,-1.4088,-1.4088,-1.4088,-1.4088,-1.4088,-1.4088,-1.4088,-1.4088,-1.4088,-1.4088,-1.4088,-1.4088,-1.4088,-1.4088,-1.4082,-1.3997,-1.4004,-1.3997,-1.3997,-1.3997,-1.3997,-1.3997,-1.3997,-1.3997,-1.3997,-1.3997,-1.3997,-1.3997,-1.3997,-1.3997,-1.4088,-1.4088,-1.4088,-1.4088,-1.3941,-1.3585,-1.3955,-1.4088,-2.3551,-2.3595,-2.34,-2.2562,-2.2024,-2.147,-2.0572,-2.0543,-2.0722,-2.0722,-2.1231,-2.1655,-2.148,-2.156,-2.1486,-2.0914,-2.0302,-1.9651,0.0,-1.7991,-1.7945,-1.9421,-1.9535,-1.9424,-1.9137,-1.8311,-1.7852,-1.7952,-1.7652,-1.7812,-1.8809,-1.9268,-1.9629,-1.9902,-2.0342,-2.0566,-2.0566,-2.0566,-2.0566,-2.0566,-2.0566,-2.0566,-2.0557,-2.041,-2.0265,-1.9991,-1.9136,-1.8426,-1.7738,-1.6273,-1.5462,-1.5054,-1.4412,-1.4088,-1.4088,-1.4088,-1.4088,-1.4088,-1.4088,-1.4088,-1.4088,-1.4088,-1.4088,-1.4088,-1.4088,-1.4088,-1.4088,-1.4088,-1.4088,-1.4088,-1.4088,-1.4088,-1.4088,-1.4088,-1.4088,-1.4088,-1.4088,-1.4088,-1.4088,-1.4088,-1.4088,-1.4088,-1.4088,-1.4088,-1.4088,-1.4088,-1.4088,-1.4088,-1.4088,-1.4088,-1.4088,-1.4088,-1.4088,-1.4088,-1.4088,-1.4088,-1.4088,-1.4088,-1.4088,-1.4088,-1.4088,-1.4088,-1.4088,-1.4088,-1.3895,-1.3794,-1.3794,-1.3601,-1.3454,-1.336,-1.346,-1.3507,-2.3595,-2.3465,-2.3186,-2.279,-2.2174,-2.1602,-2.1162,-2.1246,-2.147,-2.1695,-2.2069,-2.2443,-2.2697,-2.2532,-2.2308,-2.2084,-2.1223,-2.0259,0.0,-1.8787,-1.8983,-2.0132,-1.9608,-1.9478,-2.0279,-1.8634,-1.7818,-1.848,-1.752,-1.7353,-1.8359,-1.8818,-1.9258,-1.9678,-2.0107,-2.041,-2.0566,-2.0566,-2.0566,-2.0566,-2.0566,-2.0566,-2.0557,-2.041,-2.0332,-2.0332,-1.9618,-1.9063,-1.8671,-1.7357,-1.6437,-1.5613,-1.4977,-1.4412,-1.4088,-1.4088,-1.4088,-1.4088,-1.4088,-1.4088,-1.4088,-1.4088,-1.4088,-1.4088,-1.4088,-1.4088,-1.4088,-1.4088,-1.4088,-1.4088,-1.4088,-1.4088,-1.4088,-1.4088,-1.4088,-1.4088,-1.4088,-1.4088,-1.4088,-1.4088,-1.4088,-1.4088,-1.4088,-1.4088,-1.4088,-1.4088,-1.4088,-1.4088,-1.4088,-1.4088,-1.4088,-1.4088,-1.4088,-1.4088,-1.4088,-1.4088,-1.4088,-1.4088,-1.4088,-1.4088,-1.4088,-1.4088,-1.4041,-1.3928,-1.3741,-1.3512,-1.3487,-1.33,-1.3153,-1.3046,-1.3046,-1.2986]},{"header":{"parameterUnit":"m.s-1","parameterCategory":1,"la1":30.6,"la2":29.2853,"lo1":-89.7004,"lo2":-87.6739,"dy":0.0162,"dx":0.0183,"nx":112,"ny":82,"refTime":"2026-05-08T12:00:00:Z","depth":0,"parameterNumber":3,"parameterNumberName":"V-component_of_WINDS"},"data":[0.0,0.0,0.0,0.0,0.0,0.0,0.0,0.0,0.0,0.0,0.0,0.0,0.0,0.0,0.0,0.0,0.0,0.0,0.0,0.0,0.0,0.0,0.0,0.0,0.0,0.0,0.0,0.0,0.0,0.0,0.0,0.0,0.0,0.0,0.0,0.0,0.0,0.0,0.0,0.0,0.0,0.0,0.0,0.0,0.0,0.0,0.0,0.0,0.0,0.0,0.0,0.0,0.0,0.0,0.0,0.0,0.0,0.0,0.0,0.0,0.0,0.0,0.0,0.0,0.0,0.0,0.0,0.0,0.0,0.0,0.0,0.0,0.0,0.0,0.0,0.0,0.0,0.0,0.0,0.0,0.0,0.0,0.0,0.0,0.0,0.0,0.0,0.0,0.0,0.0,2.5267,2.5784,2.7271,2.7814,2.678,2.7435,2.6501,2.3163,0.0,0.0,0.0,0.0,0.0,0.0,0.0,0.0,0.0,0.0,0.0,0.0,0.0,0.0,0.0,0.0,0.0,0.0,0.0,0.0,0.0,0.0,0.0,0.0,0.0,0.0,0.0,0.0,0.0,0.0,0.0,0.0,0.0,0.0,0.0,0.0,0.0,0.0,0.0,0.0,0.0,0.0,0.0,0.0,0.0,0.0,0.0,0.0,0.0,0.0,0.0,0.0,0.0,0.0,0.0,0.0,0.0,0.0,0.0,0.0,0.0,0.0,0.0,0.0,0.0,0.0,0.0,0.0,0.0,0.0,0.0,0.0,0.0,0.0,0.0,0.0,0.0,0.0,0.0,0.0,0.0,0.0,0.0,0.0,0.0,0.0,0.0,0.0,0.0,0.0,0.0,0.0,0.0,0.0,0.0,0.0,0.0,0.0,0.0,0.0,0.0,0.0,0.0,0.0,2.5284,2.7537,2.8668,2.8903,2.8007,2.7412,2.5979,2.339,0.0,0.0,0.0,0.0,0.0,0.0,0.0,0.0,0.0,0.0,0.0,0.0,0.0,0.0,0.0,0.0,0.0,0.0,0.0,0.0,0.0,0.0,0.0,0.0,0.0,0.0,0.0,0.0,0.0,0.0,0.0,0.0,0.0,0.0,0.0,0.0,0.0,0.0,0.0,0.0,0.0,0.0,0.0,0.0,0.0,0.0,0.0,0.0,0.0,0.0,0.0,0.0,0.0,0.0,0.0,0.0,0.0,0.0,0.0,0.0,0.0,0.0,0.0,0.0,0.0,0.0,0.0,0.0,0.0,0.0,0.0,0.0,0.0,0.0,0.0,0.0,0.0,0.0,0.0,0.0,0.0,0.0,0.0,0.0,0.0,0.0,0.0,0.0,0.0,0.0,0.0,0.0,0.0,0.0,0.0,0.0,0.0,0.0,0.0,0.0,0.0,0.0,0.0,2.5019,2.5722,2.7851,2.8027,2.7631,2.6809,2.6237,2.5016,2.2887,2.1381,0.0,0.0,0.0,0.0,0.0,0.0,0.0,0.0,0.0,0.0,0.0,0.0,0.0,0.0,0.0,0.0,0.0,0.0,0.0,0.0,0.0,0.0,0.0,0.0,0.0,0.0,0.0,0.0,0.0,0.0,0.0,0.0,0.0,0.0,0.0,0.0,0.0,0.0,0.0,0.0,0.0,0.0,0.0,0.0,0.0,0.0,0.0,0.0,0.0,0.0,0.0,0.0,0.0,0.0,0.0,0.0,0.0,0.0,0.0,0.0,0.0,0.0,0.0,0.0,0.0,0.0,0.0,0.0,0.0,0.0,0.0,0.0,0.0,0.0,0.0,0.0,0.0,0.0,0.0,0.0,0.0,0.0,0.0,0.0,0.0,0.0,0.0,0.0,0.0,0.0,0.0,0.0,0.0,0.0,0.0,0.0,0.0,0.0,0.0,0.0,0.0,0.0,2.6317,2.6211,2.7511,2.7055,2.6301,2.5402,2.4962,2.3992,2.2185,2.0874,0.0,0.0,0.0,0.0,0.0,0.0,0.0,0.0,0.0,0.0,0.0,0.0,0.0,0.0,0.0,0.0,0.0,0.0,0.0,0.0,0.0,0.0,0.0,0.0,0.0,0.0,0.0,0.0,0.0,0.0,0.0,0.0,0.0,0.0,0.0,0.0,0.0,0.0,0.0,0.0,0.0,0.0,0.0,0.0,0.0,0.0,0.0,0.0,0.0,0.0,0.0,0.0,0.0,0.0,0.0,0.0,0.0,0.0,0.0,0.0,0.0,0.0,0.0,0.0,0.0,0.0,0.0,0.0,0.0,0.0,0.0,0.0,0.0,0.0,0.0,0.0,0.0,0.0,0.0,0.0,0.0,0.0,0.0,0.0,0.0,0.0,0.0,0.0,0.0,0.0,0.0,0.0,0.0,0.0,0.0,0.0,0.0,0.0,0.0,0.0,0.0,0.0,2.5819,2.667,2.6598,2.6553,2.6064,2.4946,2.4148,2.3031,2.1478,2.0589,0.0,0.0,0.0,0.0,0.0,0.0,0.0,0.0,0.0,0.0,0.0,0.0,0.0,0.0,0.0,0.0,0.0,0.0,0.0,0.0,0.0,0.0,0.0,0.0,0.0,0.0,0.0,0.0,0.0,0.0,0.0,0.0,0.0,0.0,0.0,0.0,0.0,0.0,0.0,0.0,0.0,0.0,0.0,0.0,0.0,0.0,0.0,0.0,0.0,0.0,0.0,0.0,0.0,0.0,0.0,0.0,0.0,0.0,0.0,0.0,0.0,0.0,0.0,0.0,0.0,0.0,0.0,0.0,0.0,0.0,0.0,0.0,0.0,0.0,0.0,0.0,0.0,0.0,0.0,0.0,0.0,0.0,0.0,0.0,0.0,0.0,0.0,0.0,0.0,0.0,0.0,0.0,0.0,0.0,0.0,0.0,0.0,0.0,0.0,0.0,0.0,0.0,2.537,2.6416,2.6216,2.6638,2.6359,2.4915,2.4412,2.3335,2.1407,0.0,0.0,0.0,0.0,0.0,0.0,0.0,0.0,0.0,0.0,0.0,0.0,0.0,0.0,0.0,0.0,0.0,0.0,0.0,0.0,0.0,0.0,0.0,0.0,0.0,0.0,0.0,0.0,0.0,0.0,0.0,0.0,0.0,0.0,0.0,0.0,0.0,0.0,0.0,0.0,0.0,0.0,0.0,0.0,0.0,0.0,0.0,0.0,0.0,0.0,0.0,0.0,0.0,0.0,0.0,0.0,0.0,0.0,0.0,0.0,0.0,0.0,0.0,0.0,0.0,0.0,0.0,0.0,0.0,0.0,0.0,0.0,0.0,0.0,0.0,0.0,0.0,0.0,0.0,0.0,0.0,0.0,0.0,0.0,0.0,0.0,0.0,0.0,0.0,0.0,0.0,0.0,0.0,0.0,0.0,0.0,0.0,0.0,0.0,0.0,0.0,0.0,2.3321,2.5132,2.6176,2.5935,2.6411,2.6153,2.472,2.4029,2.2993,2.1424,0.0,0.0,0.0,0.0,0.0,0.0,0.0,0.0,0.0,0.0,0.0,0.0,0.0,0.0,0.0,0.0,0.0,0.0,0.0,0.0,0.0,0.0,0.0,0.0,0.0,0.0,0.0,0.0,0.0,0.0,0.0,0.0,0.0,0.0,0.0,0.0,0.0,0.0,0.0,0.0,0.0,0.0,0.0,0.0,0.0,0.0,0.0,0.0,0.0,0.0,0.0,0.0,0.0,0.0,0.0,0.0,0.0,0.0,0.0,0.0,0.0,0.0,0.0,0.0,0.0,0.0,0.0,0.0,0.0,0.0,0.0,0.0,0.0,0.0,0.0,0.0,0.0,0.0,0.0,0.0,0.0,0.0,0.0,0.0,0.0,0.0,0.0,0.0,0.0,0.0,0.0,0.0,0.0,0.0,0.0,0.0,0.0,0.0,0.0,0.0,0.0,0.0,2.3318,2.5086,2.6081,2.5742,2.5707,2.5301,2.4301,2.274,2.1715,0.0,0.0,0.0,0.0,0.0,0.0,0.0,0.0,0.0,0.0,0.0,0.0,0.0,0.0,0.0,0.0,0.0,0.0,0.0,0.0,0.0,0.0,0.0,0.0,0.0,0.0,0.0,0.0,0.0,0.0,0.0,0.0,0.0,0.0,0.0,0.0,0.0,0.0,0.0,0.0,0.0,0.0,0.0,0.0,0.0,0.0,0.0,0.0,0.0,0.0,0.0,0.0,0.0,0.0,0.0,0.0,0.0,0.0,0.0,0.0,0.0,0.0,0.0,0.0,0.0,0.0,0.0,0.0,0.0,0.0,0.0,0.0,0.0,0.0,0.0,0.0,0.0,0.0,0.0,0.0,0.0,0.0,0.0,0.0,0.0,0.0,0.0,0.0,0.0,0.0,0.0,0.0,0.0,0.0,0.0,0.0,0.0,0.0,0.0,0.0,0.0,0.0,0.0,2.3205,2.5423,2.6817,2.6561,2.6411,2.5978,2.5127,2.408,2.2942,2.1624,0.0,0.0,0.0,0.0,0.0,0.0,0.0,0.0,0.0,0.0,0.0,0.0,0.0,0.0,0.0,0.0,0.0,0.0,0.0,0.0,0.0,0.0,0.0,0.0,0.0,0.0,0.0,0.0,0.0,0.0,0.0,0.0,0.0,0.0,0.0,0.0,0.0,0.0,0.0,0.0,0.0,0.0,0.0,0.0,0.0,0.0,0.0,0.0,0.0,0.0,0.0,0.0,0.0,0.0,0.0,0.0,0.0,0.0,0.0,0.0,0.0,0.0,0.0,0.0,0.0,0.0,0.0,0.0,0.0,0.0,0.0,0.0,0.0,0.0,0.0,0.0,0.0,0.0,0.0,0.0,0.0,0.0,0.0,0.0,0.0,0.0,0.0,0.0,0.0,0.0,0.0,0.0,0.0,0.0,0.0,0.0,0.0,0.0,0.0,0.0,0.0,0.0,2.3524,2.5838,2.7239,2.7039,2.6823,2.626,2.5134,2.4303,2.325,2.185,0.0,0.0,0.0,0.0,0.0,0.0,0.0,0.0,0.0,0.0,0.0,0.0,0.0,0.0,0.0,0.0,0.0,0.0,0.0,0.0,0.0,0.0,0.0,0.0,0.0,0.0,0.0,0.0,0.0,0.0,0.0,0.0,0.0,0.0,0.0,0.0,0.0,0.0,0.0,0.0,0.0,0.0,0.0,0.0,0.0,0.0,0.0,0.0,0.0,0.0,0.0,0.0,0.0,0.0,0.0,0.0,0.0,0.0,0.0,0.0,0.0,0.0,0.0,0.0,0.0,0.0,0.0,0.0,0.0,0.0,0.0,0.0,0.0,0.0,0.0,0.0,0.0,0.0,0.0,0.0,0.0,0.0,0.0,0.0,0.0,0.0,0.0,0.0,0.0,0.0,0.0,0.0,0.0,0.0,0.0,0.0,0.0,0.0,0.0,0.0,0.0,0.0,2.4158,2.6199,2.7376,2.7346,2.702,2.6243,2.4752,2.3894,2.3073,2.2219,0.0,0.0,0.0,0.0,0.0,0.0,0.0,0.0,0.0,0.0,0.0,0.0,0.0,0.0,0.0,0.0,0.0,0.0,0.0,0.0,0.0,0.0,0.0,0.0,0.0,0.0,0.0,0.0,0.0,0.0,0.0,0.0,0.0,0.0,0.0,0.0,0.0,0.0,0.0,0.0,0.0,0.0,0.0,0.0,0.0,0.0,0.0,0.0,0.0,0.0,0.0,0.0,0.0,0.0,0.0,0.0,0.0,0.0,0.0,0.0,2.9936,2.8868,0.0,0.0,0.0,0.0,0.0,0.0,0.0,0.0,0.0,0.0,0.0,0.0,0.0,0.0,0.0,0.0,0.0,0.0,0.0,0.0,0.0,0.0,0.0,0.0,0.0,0.0,0.0,0.0,0.0,0.0,0.0,0.0,0.0,0.0,0.0,0.0,0.0,0.0,0.0,0.0,2.4501,2.5777,2.6999,2.8318,2.71,2.6054,2.5716,2.4938,2.4181,2.3449,2.1575,0.0,0.0,0.0,0.0,0.0,0.0,0.0,0.0,0.0,0.0,0.0,0.0,0.0,0.0,0.0,0.0,0.0,0.0,0.0,0.0,0.0,0.0,0.0,0.0,0.0,0.0,0.0,0.0,0.0,0.0,0.0,0.0,0.0,0.0,0.0,0.0,0.0,0.0,0.0,0.0,0.0,0.0,0.0,0.0,0.0,0.0,0.0,0.0,0.0,0.0,0.0,0.0,0.0,0.0,0.0,0.0,0.0,0.0,0.0,3.3399,3.2154,0.0,0.0,0.0,0.0,0.0,0.0,0.0,0.0,0.0,0.0,0.0,0.0,0.0,0.0,0.0,0.0,0.0,0.0,0.0,0.0,0.0,0.0,0.0,0.0,0.0,0.0,0.0,0.0,0.0,0.0,0.0,0.0,0.0,0.0,0.0,0.0,0.0,0.0,0.0,0.0,2.5304,2.6784,2.7783,2.83,2.7412,2.6432,2.5598,2.5137,2.4588,2.3843,2.2626,0.0,0.0,0.0,0.0,0.0,0.0,0.0,0.0,0.0,0.0,0.0,0.0,0.0,0.0,0.0,0.0,0.0,0.0,0.0,0.0,0.0,0.0,0.0,0.0,0.0,0.0,0.0,0.0,0.0,0.0,0.0,0.0,0.0,0.0,0.0,0.0,0.0,0.0,0.0,0.0,0.0,0.0,0.0,0.0,0.0,0.0,0.0,0.0,0.0,0.0,0.0,0.0,0.0,4.0254,4.0383,3.9867,4.034,4.0554,4.0379,3.7418,3.6247,3.6222,3.3955,0.0,0.0,0.0,0.0,0.0,0.0,0.0,0.0,0.0,0.0,0.0,0.0,0.0,0.0,0.0,0.0,0.0,0.0,0.0,0.0,0.0,0.0,0.0,0.0,3.1391,3.0674,2.6156,0.0,0.0,0.0,0.0,0.0,0.0,0.0,0.0,0.0,0.0,0.0,2.6109,2.7862,2.8679,2.8159,2.7846,2.7064,2.5619,2.5504,2.5218,2.4568,2.3851,2.3062,0.0,0.0,0.0,0.0,0.0,0.0,0.0,0.0,0.0,0.0,0.0,0.0,0.0,0.0,0.0,0.0,0.0,0.0,0.0,0.0,0.0,0.0,0.0,0.0,0.0,0.0,0.0,0.0,0.0,0.0,0.0,0.0,3.368,3.4545,0.0,0.0,0.0,0.0,0.0,0.0,0.0,0.0,0.0,0.0,0.0,0.0,0.0,3.8084,3.9938,4.1492,4.2694,4.3532,4.451,4.495,4.4831,4.4239,4.3945,4.3886,4.2727,0.0,3.796,3.7607,0.0,0.0,0.0,0.0,0.0,0.0,0.0,0.0,0.0,0.0,0.0,0.0,0.0,0.0,0.0,0.0,0.0,0.0,0.0,0.0,0.0,0.0,3.3474,3.2737,3.266,3.2372,0.0,2.8874,2.6498,2.3942,2.3353,2.2748,0.0,0.0,0.0,0.0,0.0,0.0,2.6262,2.7363,2.8294,2.8871,2.8283,2.7772,2.7542,2.7522,2.7465,2.7369,2.6572,2.5717,2.4841,2.335,0.0,0.0,0.0,0.0,0.0,0.0,0.0,0.0,0.0,0.0,0.0,0.0,0.0,0.0,0.0,0.0,0.0,0.0,0.0,0.0,0.0,0.0,0.0,0.0,0.0,0.0,0.0,0.0,0.0,3.3757,3.5757,3.6142,3.6622,3.6078,0.0,0.0,0.0,0.0,0.0,0.0,0.0,0.0,0.0,4.0239,4.102,4.2268,4.4085,4.4855,4.5693,4.6557,4.6999,4.7236,4.7303,4.6872,4.6686,4.6666,4.6228,4.4664,4.2253,4.0397,3.8674,3.7033,0.0,0.0,0.0,0.0,3.3536,3.3427,3.4263,3.4367,3.4137,3.407,0.0,0.0,0.0,0.0,0.0,0.0,0.0,3.194,0.0,0.0,3.4715,3.4979,3.4699,3.4141,3.3295,3.2161,3.0279,2.6787,2.6071,2.5329,2.3167,2.3523,0.0,0.0,0.0,2.7042,2.7823,2.8722,2.9256,2.9102,2.8775,2.839,2.7928,2.789,2.789,2.789,2.7544,2.7159,2.6774,2.5129,2.3887,0.0,0.0,0.0,0.0,0.0,0.0,0.0,0.0,0.0,0.0,0.0,0.0,0.0,0.0,0.0,0.0,0.0,0.0,0.0,0.0,0.0,0.0,0.0,0.0,0.0,0.0,0.0,0.0,3.6584,3.8257,3.8027,3.8969,3.8594,0.0,0.0,0.0,0.0,0.0,0.0,4.0489,4.1143,4.2258,4.4028,4.4643,4.5797,4.7528,4.7548,4.8002,4.8922,4.8922,4.8977,4.9045,4.873,4.8574,4.8559,4.8125,4.7223,4.586,4.3096,4.1203,3.9876,3.8527,3.7507,3.6825,3.7122,3.6986,3.6807,3.7819,3.7901,3.7473,3.687,3.6385,3.5616,3.324,0.0,0.0,0.0,0.0,3.328,3.5612,3.5932,3.5848,3.6715,3.6503,3.5911,3.5026,3.468,3.341,2.9602,2.8871,2.8121,2.5784,2.587,0.0,2.6005,2.7236,2.8409,2.9006,2.9798,3.0049,2.9409,2.9276,2.9034,2.8476,2.8449,2.8461,2.8544,2.8544,2.8448,2.8217,2.6967,2.5967,2.5303,0.0,0.0,0.0,0.0,0.0,0.0,0.0,0.0,0.0,0.0,0.0,0.0,0.0,0.0,0.0,0.0,0.0,0.0,0.0,0.0,0.0,0.0,0.0,0.0,0.0,0.0,0.0,0.0,0.0,4.1643,4.2989,0.0,0.0,0.0,0.0,3.9909,4.0692,4.1991,4.3951,4.4085,4.4913,4.6663,4.6759,4.7586,4.926,4.926,4.9702,5.0568,5.0568,5.0587,5.0567,4.9721,4.9336,4.9279,4.8053,4.7499,4.7312,4.5918,4.3891,4.1678,4.1585,4.1008,4.0223,3.991,3.9795,3.9736,3.9475,3.9402,3.9368,3.9316,3.8282,3.6845,3.588,3.4813,0.0,0.0,3.5469,3.5595,3.6731,3.7201,3.7394,3.745,3.7661,3.7642,3.6757,3.5968,3.4661,3.2025,3.1506,3.0948,2.9159,0.0,2.864,2.7871,2.8486,2.9044,2.9083,2.9627,2.9994,2.9956,2.9788,2.972,2.9884,2.988,3.0002,3.0263,3.0263,2.991,2.9063,2.8948,2.7775,2.5341,2.513,0.0,0.0,0.0,0.0,0.0,0.0,0.0,0.0,0.0,0.0,0.0,0.0,0.0,0.0,0.0,0.0,0.0,0.0,0.0,0.0,0.0,0.0,0.0,0.0,0.0,0.0,0.0,0.0,4.422,4.5278,0.0,4.2374,4.3043,4.3579,4.3425,4.4365,4.5706,4.749,4.7586,4.8125,4.9298,4.9856,5.0414,5.101,5.1568,5.201,5.2299,5.1741,5.1471,5.1452,5.0606,5.0083,4.9835,4.9377,4.8707,4.7912,4.7454,4.6093,4.4265,4.3734,4.3316,4.2853,4.1525,4.1469,4.1949,4.1132,4.0952,4.1111,4.1092,4.0215,3.91,3.8801,3.7578,3.6519,3.7405,3.7248,3.7026,3.8115,3.8059,3.7807,3.7988,3.7833,3.7575,3.7269,3.7153,3.668,3.5199,3.3583,3.2102,3.0968,3.1198,3.1275,3.0467,3.1025,3.1488,3.1317,3.103,3.0773,3.0608,3.005,2.9731,2.9796,2.9924,3.0028,3.0136,3.0311,3.0275,2.9948,2.939,2.8429,2.7005,2.6428,2.4762,0.0,0.0,0.0,0.0,0.0,0.0,0.0,0.0,0.0,0.0,0.0,0.0,0.0,0.0,0.0,0.0,0.0,0.0,0.0,0.0,0.0,0.0,0.0,0.0,0.0,4.3978,4.622,4.6797,4.7894,4.7838,4.5937,4.6685,4.7357,4.7449,4.8164,4.9202,5.0606,5.0683,5.0952,5.1529,5.2068,5.2337,5.2337,5.2914,5.3203,5.3203,5.2606,5.2337,5.2318,5.1331,5.076,5.0474,4.994,4.9211,4.842,4.8297,4.7585,4.652,4.5679,4.531,4.5105,4.3714,4.3669,4.413,4.302,4.243,4.2109,4.2109,4.1417,4.0563,4.0563,3.9711,3.8817,3.9368,3.9129,3.8805,3.9256,3.9045,3.8697,3.8589,3.838,3.8116,3.7831,3.8038,3.8016,3.7153,3.5451,3.3833,3.2737,3.2987,3.3064,3.2237,3.2564,3.2852,3.2656,3.2119,3.1664,3.1479,3.0672,3.0163,3.0232,2.9829,2.9742,3.0117,3.0042,3.0102,3.0379,2.9563,2.8717,2.7909,2.6497,2.4799,2.2852,0.0,0.0,0.0,0.0,0.0,0.0,0.0,0.0,0.0,0.0,0.0,0.0,0.0,0.0,0.0,0.0,0.0,0.0,0.0,0.0,0.0,0.0,0.0,4.559,4.7875,4.949,4.951,5.0952,5.1298,4.9683,5.0279,5.1106,5.1895,5.1952,5.2318,5.3203,5.3222,5.3222,5.3241,5.322,5.322,5.322,5.324,5.3259,5.3259,5.322,5.3201,5.3161,5.1897,5.1313,5.1205,4.964,4.8934,4.89,4.8458,4.8306,4.8198,4.7348,4.7024,4.6986,4.657,4.6392,4.6215,4.5125,4.3699,4.2378,4.2378,4.1846,4.1185,4.1185,4.1167,4.1148,4.1148,4.113,4.0928,4.0139,4.0122,4.0133,3.9314,3.9377,3.9368,3.8516,3.8605,3.8556,3.768,3.7108,3.6224,3.4564,3.4276,3.3968,3.3103,3.2987,0.0,3.2974,3.2761,3.2638,3.2622,3.1663,3.1065,3.1276,2.9785,2.9281,3.0328,2.9602,2.9525,3.0359,2.9583,2.8775,2.7986,2.5481,2.3782,2.2947,0.0,0.0,0.0,0.0,0.0,0.0,0.0,0.0,0.0,0.0,0.0,0.0,0.0,0.0,0.0,0.0,0.0,0.0,0.0,0.0,0.0,4.5086,4.7598,4.7178,4.9489,5.1452,5.2087,5.2568,5.2664,5.2202,5.2375,5.2606,5.2837,5.2837,5.3222,5.4107,5.3549,5.3491,5.4126,5.3809,5.3651,5.3651,5.3963,5.4154,5.4135,5.35,5.3196,5.3177,5.2172,5.1567,5.1246,5.0228,4.9618,4.9324,4.8621,4.8306,4.8234,4.7388,4.7439,4.7809,4.6504,4.6044,4.6007,4.5681,4.4911,4.4048,4.4048,4.3497,4.2837,4.2837,4.2433,4.1974,4.1974,4.1552,4.1056,4.0836,4.0809,4.0683,3.9884,3.989,3.9885,3.9063,3.9147,3.9126,3.8253,3.7957,3.7452,3.6219,3.6007,3.5738,3.4911,3.4795,3.4702,3.4515,3.3895,3.3394,3.3202,3.1881,3.1031,3.1065,3.0209,2.9799,3.0103,3.0068,3.016,3.0379,3.0179,2.9948,2.9717,2.7199,2.6111,0.0,0.0,0.0,0.0,0.0,0.0,0.0,0.0,0.0,0.0,0.0,0.0,0.0,0.0,0.0,0.0,0.0,0.0,0.0,0.0,0.0,0.0,4.8205,5.052,5.0536,5.1968,5.3299,5.4145,5.4241,5.4241,5.4241,5.4241,5.4241,5.4241,5.4241,5.4472,5.4972,5.4511,5.4472,5.4991,5.458,5.4344,5.4344,5.4454,5.4503,5.4484,5.4012,5.3736,5.3698,5.2658,5.2083,5.1785,5.0842,5.0082,4.9536,4.904,4.8636,0.0,0.0,0.0,0.0,0.0,4.6691,4.6416,4.6416,4.5883,4.5204,4.5204,4.4892,4.4433,4.4103,4.3681,4.324,4.2892,4.247,4.2029,4.1699,4.1607,4.1405,4.0598,4.0271,3.9997,3.9544,3.9526,3.9448,3.8935,3.906,0.0,3.7943,3.7375,3.6757,3.5956,3.5931,3.583,3.5327,3.4829,3.4454,3.4306,3.3108,3.2343,3.2343,3.1331,0.0,0.0,0.0,3.0237,2.9871,2.9852,0.0,0.0,0.0,0.0,0.0,0.0,0.0,0.0,2.4205,2.4312,0.0,0.0,0.0,0.0,0.0,0.0,0.0,0.0,0.0,0.0,0.0,0.0,0.0,0.0,0.0,0.0,5.0746,5.3326,5.447,5.4645,5.4895,5.5607,5.5703,5.5703,5.5703,5.5703,5.5703,5.5703,5.578,5.5799,5.5703,5.578,0.0,0.0,0.0,5.5034,5.5034,5.4579,5.434,5.434,5.434,5.434,5.4322,5.3194,5.2661,5.2623,5.1424,5.0472,4.9719,4.9627,4.9077,4.8306,4.8306,4.8306,4.8306,4.8306,4.7865,4.726,4.726,0.0,0.0,4.6049,4.5975,4.5773,4.5057,4.4856,4.469,4.3975,4.3699,4.3461,4.2763,4.2506,4.2231,4.1442,4.0616,4.001,3.9918,3.9704,3.9505,3.9552,3.9965,4.0123,3.9448,3.8431,3.7392,3.6495,3.6546,3.6411,3.5603,3.5493,3.5493,3.5493,0.0,0.0,3.4199,3.2756,3.1833,3.1833,3.1121,3.0344,2.9578,2.944,2.9063,2.8332,2.8238,2.8191,2.8191,2.8202,2.8232,2.8257,2.6437,2.6015,0.0,0.0,0.0,0.0,0.0,0.0,0.0,0.0,0.0,0.0,0.0,0.0,0.0,0.0,0.0,4.9442,5.2203,5.4468,5.5338,5.5472,5.553,5.5684,5.5703,5.5703,5.5703,5.5703,5.5703,5.5703,5.6338,5.6434,5.5742,5.6357,5.6415,5.5722,5.5007,5.4628,5.4628,5.3851,5.3422,5.3422,5.3422,0.0,5.3422,5.3212,5.3097,5.3042,5.2146,5.1298,5.0508,4.9848,4.9077,4.8306,4.8306,4.8306,4.8306,4.8306,4.8214,4.8086,4.8086,4.7553,4.6874,4.6874,4.6434,4.5865,4.5718,4.5663,0.0,4.548,4.4966,4.4433,4.4287,4.3754,4.3057,4.2268,4.146,4.0689,4.0029,3.9363,3.8942,3.9152,3.927,3.9406,3.9526,3.9203,3.8408,3.6872,3.6671,3.6411,3.5603,3.5493,3.5493,3.5493,3.4718,3.4199,3.4199,3.3256,3.2679,3.2679,3.2506,3.2393,3.2339,3.1607,3.1121,3.0968,3.0337,3.0007,3.0007,3.0052,3.0082,3.0056,2.8303,2.7605,0.0,0.0,0.0,0.0,0.0,0.0,0.0,0.0,0.0,0.0,0.0,4.3536,4.499,0.0,5.0225,5.1497,5.3286,5.465,5.5031,5.5282,5.547,5.5662,5.5703,5.5857,5.6299,5.6145,5.616,5.6619,5.6847,5.6859,5.6658,5.6663,5.6472,5.605,5.5047,5.4406,5.4153,5.3524,5.3206,5.3206,5.3206,5.3206,5.3206,5.3206,5.3206,5.3188,5.2784,5.2142,5.1334,5.0527,4.9939,4.9517,4.9114,4.8673,4.8306,4.8306,4.8306,4.8306,4.8306,4.8049,4.7719,4.7719,4.7443,4.704,4.6636,4.6507,4.6434,4.6012,4.5333,4.4709,4.4709,4.4103,4.3387,4.3002,4.2286,4.1589,4.1185,4.0259,3.9602,3.99,3.9763,3.969,4.0004,3.9957,3.9265,3.7373,3.7241,3.6911,3.5661,3.5493,3.5493,3.5493,3.5122,3.4853,3.4853,3.4082,3.3622,3.3703,3.3296,3.3081,3.3157,3.2701,3.2453,3.2453,3.1631,3.1207,3.1207,3.0801,3.0842,3.1285,3.0399,3.0,0.0,0.0,0.0,0.0,0.0,0.0,0.0,4.0404,4.1292,4.3401,4.5002,4.6581,4.8409,5.0606,5.2397,5.3095,5.3937,5.4503,5.4503,5.476,5.5088,5.5423,5.5689,5.6095,5.6787,5.658,5.6721,5.7405,5.727,5.7224,5.7433,5.6949,5.654,5.6283,5.5164,5.4356,5.3814,5.3381,5.3206,5.3206,5.3206,5.3206,5.3206,5.3206,5.3206,5.3206,5.3041,5.2601,5.194,5.1132,5.0802,5.0747,5.0086,4.9297,4.8526,4.8361,4.8306,4.8306,4.8306,4.8306,4.8306,4.8306,4.8306,4.8196,4.7535,4.7352,4.7205,4.6544,4.5681,4.4947,4.4947,4.4213,4.3497,4.3497,4.2892,4.2304,4.2304,4.1219,4.0347,4.0704,4.0385,4.0101,4.0438,4.0489,3.9903,3.8112,3.7939,3.745,3.593,3.5603,3.5493,3.5493,3.5515,3.5522,3.554,3.4951,3.4637,3.4756,3.4088,3.3698,3.3716,3.3549,3.3445,3.3445,3.2614,3.2172,3.2172,3.1481,3.1531,3.2287,3.2443,3.2407,3.8643,3.8479,3.9172,4.0652,4.0598,4.103,0.0,4.428,4.4234,4.6666,4.8109,4.9235,5.0256,5.1857,5.3095,5.3189,5.3937,5.4503,5.4503,5.4535,5.4579,5.4609,5.5598,5.6259,5.6355,5.6656,5.6861,5.6956,5.7582,5.7676,5.6993,5.7555,5.7234,5.5832,5.5242,5.4578,5.3814,5.3381,5.3206,5.3206,5.3206,5.3206,5.3206,5.3206,5.3206,5.317,5.2435,5.2068,5.194,5.1132,5.0802,5.0802,5.071,5.016,4.9352,4.86,4.8306,4.8306,4.8306,4.8306,4.8306,4.8306,4.8306,4.8288,4.8196,4.8177,4.8159,4.8067,4.6948,4.5773,4.5773,4.4635,4.3497,4.3497,4.2892,4.2304,4.2304,4.1052,4.0104,4.0697,4.0165,3.9821,4.0406,4.0489,4.0181,3.9227,3.8473,3.7642,3.6699,3.5949,3.5493,3.5493,3.5538,3.5611,3.5667,3.5604,3.5593,3.5736,3.5533,3.5469,3.558,3.4798,3.4354,3.4354,3.3559,3.3132,3.3132,3.3119,3.3144,3.3261,3.4043,3.3984,4.0183,4.0597,4.1331,4.2071,4.2915,4.3962,4.5534,4.5843,4.644,4.8627,4.9687,5.054,5.1566,5.2529,5.32,5.32,5.3887,5.4297,5.3794,5.4335,5.4626,5.4139,5.495,5.5829,5.6576,5.656,5.6893,5.7847,5.7987,5.8002,5.7941,5.7791,5.7379,5.6761,5.5623,5.4741,5.4146,5.3534,5.3206,5.3206,5.3206,5.3206,5.3206,5.3206,5.3206,5.3188,5.2839,5.2711,5.2674,5.2344,5.2215,5.216,5.1683,5.1004,5.0196,4.9352,4.8728,4.8306,4.8306,4.8306,4.8306,4.8306,4.8306,4.8306,4.8306,4.8306,4.8306,4.8306,4.715,4.5902,4.5902,4.4709,4.3497,4.3497,4.3222,4.3002,4.3002,4.2276,4.1723,4.2152,4.1363,4.0728,4.119,4.0835,4.0392,4.0046,3.9277,3.8257,3.6892,3.6411,3.6028,3.5596,3.5631,3.5702,3.5802,3.5831,3.5853,3.595,3.5901,3.5901,3.595,3.5572,3.5369,3.5369,3.4542,3.4117,3.4117,3.3632,3.3652,3.418,3.4531,3.4764,4.0933,4.1893,4.2883,4.3256,4.4789,4.6287,4.6507,4.7021,4.7886,4.9602,5.0394,5.1124,5.2176,5.2828,5.328,5.35,5.4014,5.4197,5.361,5.4275,5.4533,5.3717,5.4144,5.5042,5.6424,5.6254,5.6722,5.8396,5.801,5.7902,5.8484,5.7928,5.7501,5.732,5.6129,5.5129,5.4399,5.383,5.3427,5.3206,5.3206,5.3206,5.3206,5.3206,5.3206,5.3206,5.3206,5.3206,5.3206,5.3206,5.3206,5.3151,5.2564,5.183,5.1059,5.0472,4.9426,4.8306,4.8306,4.8306,4.8306,4.8306,4.8306,4.8306,4.8306,4.8306,4.8306,4.8306,4.715,4.5902,4.5902,4.4709,4.3497,4.3497,4.3497,4.3497,4.3497,4.3124,4.2913,4.3239,4.2424,4.1686,4.1767,4.1277,4.0777,4.0527,3.9988,3.9084,3.7603,3.703,3.6562,3.6038,3.5838,3.5807,3.5916,3.5938,3.5947,3.5996,3.5996,3.5996,3.5996,3.5996,3.5996,3.5996,3.5371,3.5059,3.5059,3.4414,3.4434,3.5059,3.5038,3.5341,4.03,4.1529,4.3101,4.4336,4.5865,4.7278,4.8049,4.8251,4.8508,4.9428,5.0233,5.1041,5.1871,5.2656,5.3463,5.4234,5.4381,5.4399,5.4363,5.4381,5.4148,5.3298,5.3225,5.3891,5.5471,5.5618,5.6297,5.7914,5.7281,5.7171,5.7987,5.8024,5.7657,5.6822,5.6748,5.5978,5.4418,5.4381,5.3977,5.3206,5.3206,5.3206,5.3206,5.3206,5.3206,5.3206,5.3206,5.3206,5.3206,5.3206,5.3206,5.3206,5.3188,5.2674,5.1958,5.194,5.038,4.8306,4.8306,4.8306,4.8306,4.8306,4.8306,4.8306,4.8306,4.8306,4.8306,4.8306,4.715,4.5902,4.5902,4.4709,4.3497,4.3497,4.3497,4.3497,4.3497,4.3124,4.2913,4.3239,4.2898,4.2393,4.1899,4.1777,4.147,4.0623,4.0469,4.0162,3.9335,3.7868,3.691,3.6946,3.6314,3.5918,3.5996,3.5996,3.5996,3.5996,3.5996,3.5996,3.5996,3.5996,3.5996,3.5996,3.5976,3.5957,3.5957,3.5937,3.5937,3.5957,3.5882,3.5884,4.1642,4.2989,4.4423,4.5938,4.7113,4.7976,4.8251,4.8306,4.8545,4.9407,4.9352,4.9407,5.0233,5.0618,5.1059,5.1885,5.2913,5.361,5.361,5.4528,5.4693,5.3371,5.3683,5.4216,5.4748,5.4803,5.5684,5.7831,5.7262,5.7152,5.796,5.7997,5.7886,5.7593,5.7079,5.6547,5.6014,5.4932,5.4252,5.3995,5.3463,5.3206,5.3206,5.3206,5.3206,5.3206,5.3206,5.3206,5.3206,5.3206,5.3206,5.3206,5.3206,5.2711,5.1995,5.1995,5.0784,4.915,4.915,4.915,4.9058,4.8489,4.8306,4.8306,4.8306,4.8306,4.8306,4.8306,4.715,4.5902,4.5902,4.4709,4.3497,4.3497,4.3497,4.3563,4.3772,4.3911,4.4094,4.4436,4.4074,4.3499,4.278,4.2181,4.1508,4.0623,4.0046,3.9604,3.9335,3.8446,3.7622,3.7058,3.6898,3.6599,3.6055,3.5996,3.5996,3.5996,3.5996,3.5996,3.5996,3.5996,3.5996,3.5996,3.5996,3.5996,3.5996,3.5996,3.5996,3.5996,3.5921,3.5903,4.2631,4.4088,4.5461,4.6783,4.7719,4.8306,4.8306,4.8306,4.8379,4.8655,4.8489,4.8379,4.8655,4.893,4.9591,5.1004,5.2105,5.3078,5.394,5.4693,5.4876,5.4161,5.4252,5.4638,5.5207,5.4748,5.528,5.7409,5.7097,5.7152,5.796,5.7997,5.7997,5.7997,5.7501,5.7097,5.6804,5.5482,5.4546,5.3959,5.3463,5.3206,5.3206,5.3206,5.3206,5.3206,5.3206,5.3206,5.3206,5.3206,5.3206,5.3206,5.3206,5.2894,5.2435,5.2435,5.1775,5.0747,4.9884,4.9389,4.904,4.8489,4.8306,4.8306,4.8306,4.8306,4.8306,4.8306,4.7352,4.6342,4.6342,4.5131,4.392,4.392,4.3699,4.3597,4.3924,4.4337,4.4682,4.503,4.4921,4.4412,4.3297,4.2124,4.1143,4.0566,4.0046,3.9719,3.9719,3.9112,3.847,3.7927,3.7761,3.7338,3.6479,3.6444,3.6328,3.6016,3.5996,3.5996,3.5996,3.5996,3.5996,3.5996,3.5996,3.5996,3.5996,3.5996,3.5996,3.5996,3.5921,3.5903,4.3251,4.4764,4.6159,4.6966,4.7755,4.8306,4.8251,4.8251,4.8012,4.7168,4.7553,4.781,4.7021,4.7553,4.8912,5.1353,5.1848,5.2766,5.5188,5.4913,5.473,5.55,5.495,5.5115,5.6602,5.539,5.517,5.6693,5.6767,5.7116,5.7941,5.7997,5.7997,5.7997,5.7997,5.7629,5.6877,5.6051,5.4858,5.3335,5.3335,5.3316,5.328,5.328,5.3243,5.3206,5.3206,5.3206,5.3206,5.3206,5.3206,5.3206,5.3206,5.3206,5.3206,5.3206,5.3188,5.2821,5.0453,4.9114,4.8416,4.8343,4.8306,4.8306,4.8306,4.8306,4.8306,4.8306,4.7737,4.7113,4.7113,4.5975,4.4781,4.4779,4.4173,4.3701,4.3986,4.4346,4.4707,4.5052,4.5362,4.5009,4.3374,4.1681,4.0546,4.0508,4.0489,4.0489,4.0489,3.9901,3.946,3.9402,3.885,3.8101,3.7242,3.7258,3.6953,3.6113,3.6016,3.5996,3.5996,3.5996,3.5996,3.5996,3.6035,3.6074,3.6074,3.6113,3.6133,3.6133,3.6057,3.6001,4.4873,4.603,4.7003,4.781,4.8159,4.8141,4.7553,4.7425,4.7021,4.5608,4.5002,4.447,4.3681,4.4672,4.6232,4.8067,4.9903,5.1958,5.4363,5.5042,5.5354,5.5574,5.5941,5.6106,5.5923,5.6088,5.6363,5.6785,5.6235,5.651,5.7923,5.7997,5.7997,5.7997,5.7997,5.7905,5.7703,5.6895,5.5996,5.4987,5.4987,5.4675,5.4087,5.4087,5.3775,5.3206,5.3206,5.3206,5.3206,5.3206,5.3206,5.3206,5.3206,5.3206,5.3206,5.3206,5.2821,5.2123,5.0912,5.0343,4.9958,4.871,4.8306,4.8306,4.8306,4.8306,4.8306,4.8306,4.7737,4.7169,4.7453,4.6795,4.5964,4.56,4.534,4.5134,4.4889,4.4896,4.5074,4.5419,4.5031,4.4316,4.3278,4.22,4.1258,4.0585,4.0489,4.0489,4.0489,4.0417,4.013,3.948,3.9376,3.9021,3.814,3.7592,3.7207,3.6973,3.6367,3.5996,3.5996,3.5996,3.5996,3.5996,3.6641,3.6973,3.6973,3.7617,3.7949,3.793,3.7817,3.7463,4.6104,4.7021,4.7755,4.8196,4.8031,4.7572,4.6764,4.6305,4.5608,4.3993,4.3296,4.2727,4.1919,4.3094,4.4819,4.6801,4.8893,5.1353,5.4491,5.5005,5.5464,5.6528,5.6748,5.6767,5.6657,5.6748,5.695,5.7299,5.6914,5.7042,5.7941,5.7997,5.7997,5.7997,5.7997,5.7831,5.7483,5.7042,5.64,5.5592,5.5592,5.5354,5.4913,5.4564,5.4161,5.372,5.3353,5.3206,5.3206,5.3206,5.3206,5.3206,5.3206,5.3206,5.3206,5.3206,5.2692,5.1867,5.1077,5.0563,5.005,4.8728,4.8306,4.8306,4.8306,4.8306,4.8344,4.8513,4.8254,4.799,4.837,4.7616,4.6644,4.6401,4.5768,4.5231,4.5125,4.5096,4.5201,4.5531,4.4893,4.4162,4.3701,4.2604,4.1643,4.1143,4.0739,4.0489,4.0489,4.0574,4.0417,3.994,4.0044,3.9797,3.8914,3.8507,3.816,3.7803,3.7315,3.7085,3.7148,3.7148,3.7148,3.7148,3.7617,3.7871,3.7871,3.8359,3.8594,3.8594,3.8511,3.8277,4.7058,4.7774,4.8306,4.8306,4.7719,4.6874,4.5957,4.5039,4.3901,4.2176,4.1827,4.1589,4.0781,4.2029,4.4011,4.6544,4.8343,5.082,5.4858,5.4932,5.5372,5.7574,5.7317,5.7226,5.7923,5.7373,5.7262,5.7941,5.7997,5.7997,5.7997,5.7997,5.7997,5.7997,5.7997,5.7666,5.6969,5.6969,5.662,5.5904,5.5794,5.5684,5.5556,5.4766,5.4344,5.4197,5.35,5.3206,5.3206,5.3206,5.3206,5.3206,5.3206,5.3206,5.3206,5.3206,5.2766,5.2032,5.1176,5.0404,4.9591,4.8618,4.8306,4.8306,4.8306,4.8344,4.8458,4.8813,4.893,4.9075,4.9475,4.8437,4.7227,4.7167,4.6019,4.4957,4.5115,4.518,4.5243,4.5531,4.4989,4.4432,4.4316,4.3008,4.1931,4.1816,4.1066,4.0489,4.0489,4.0489,4.0489,4.0489,4.0623,4.0382,3.9635,3.9587,3.9305,3.8595,3.8443,3.8443,3.8551,3.8551,3.8551,3.8551,3.8668,3.8727,3.8727,3.8844,3.8883,3.8883,3.8787,3.8669,4.7884,4.8196,4.8306,4.8306,4.7719,4.6728,4.5259,4.3773,4.2066,3.979,3.9331,3.9074,3.8267,3.9974,4.2525,4.5608,4.7462,4.9958,5.4032,5.506,5.5776,5.6877,5.7464,5.785,5.7997,5.7868,5.785,5.7997,5.7997,5.7997,5.7997,5.7997,5.7997,5.7997,5.7997,5.7923,5.7795,5.7795,5.7721,5.7574,5.6914,5.6235,5.5556,5.4766,5.4051,5.3408,5.328,5.3206,5.3206,5.3206,5.3206,5.3206,5.3206,5.3206,5.3206,5.3206,5.3115,5.2808,5.1639,5.0952,5.0343,4.8802,4.8306,4.8306,4.8306,4.855,4.8813,4.8897,4.9139,4.9475,4.9898,4.9251,4.8391,4.8005,4.7184,4.6321,4.5648,4.5513,4.5531,4.5586,4.547,4.5143,4.4412,4.3508,4.2624,4.1912,4.1066,4.0489,4.0489,4.0489,4.0489,4.0489,4.0623,4.0633,4.0479,3.9946,3.9529,3.9395,3.8726,3.8325,3.8338,3.8345,3.8345,3.8345,3.9065,3.9435,3.9435,4.0085,4.0416,4.0396,3.9747,3.9045,4.8086,4.8306,4.8306,4.8306,4.7388,4.5957,4.392,4.2213,4.0359,3.7955,3.7441,3.7459,3.7477,3.9129,4.1387,4.4195,4.5993,4.8489,5.2582,5.3463,5.4491,5.6565,5.7152,5.7538,5.796,5.7611,5.7556,5.796,5.7611,5.7556,5.7978,5.7997,5.7813,5.7391,5.7373,5.7373,5.7373,5.695,5.695,5.7373,5.6565,5.5959,5.5556,5.4766,5.4197,5.3812,5.339,5.3206,5.3206,5.3206,5.3206,5.3206,5.3206,5.3336,5.3505,5.3505,5.3403,5.3031,5.2023,5.1282,5.0589,4.934,4.8779,4.8657,4.8881,4.9062,4.9265,4.9475,4.9645,4.9898,5.0313,4.9422,4.8391,4.8145,4.7144,4.6105,4.5682,4.5586,4.5586,4.5586,4.5586,4.547,4.5047,4.4278,4.3431,4.2604,4.1739,4.1008,4.0546,4.0489,4.0489,4.0489,4.0559,4.0596,4.0596,4.0275,4.0095,4.017,3.9782,3.9558,3.9599,3.9599,3.9599,3.9599,4.0015,4.021,4.0229,4.0599,4.0801,4.0801,4.0392,4.0003,4.7884,4.8177,4.8306,4.8306,4.7095,4.5259,4.2855,4.091,3.8946,3.6523,3.6028,3.6266,3.7074,3.8414,4.023,4.2818,4.4452,4.6801,5.0894,5.1775,5.3059,5.5941,5.6436,5.6859,5.7666,5.7024,5.6877,5.7685,5.7005,5.6969,5.7941,5.7666,5.7281,5.6822,5.6638,5.6547,5.6547,5.5904,5.5904,5.6528,5.5721,5.5335,5.5317,5.4509,5.4142,5.4106,5.3482,5.323,5.3336,5.3248,5.3295,5.3462,5.3359,5.3565,5.3941,5.3941,5.3643,5.3088,5.2367,5.1555,5.0665,4.9984,4.9445,4.9075,4.9416,4.9561,4.9692,5.0019,5.0159,5.0294,5.0624,4.9548,4.8298,4.7932,4.6682,4.5586,4.5586,4.5586,4.5586,4.5586,4.5586,4.5586,4.5586,4.4874,4.4085,4.3451,4.247,4.1546,4.0873,4.0623,4.0489,4.0489,4.0489,4.0489,4.0489,4.0489,4.0545,4.0662,4.0662,4.0684,4.0723,4.0743,4.0743,4.0743,4.0743,4.0743,4.0743,4.0743,4.0743,4.0723,4.0548,4.0471,4.7205,4.7755,4.8306,4.8306,4.7095,4.5259,4.2855,4.0487,3.812,3.5614,3.5119,3.5385,3.6248,3.711,3.8744,4.1901,4.3149,4.5131,4.9242,5.1059,5.2637,5.4418,5.5262,5.6033,5.684,5.618,5.6033,5.6859,5.6161,5.6381,5.7923,5.6602,5.6106,5.6785,5.6088,5.5702,5.5702,5.5629,5.5629,5.5684,5.4895,5.4509,5.4473,5.3683,5.3316,5.3316,5.3243,5.3422,5.372,5.3359,5.3662,5.434,5.3924,5.4032,5.4439,5.4439,5.3924,5.3157,5.271,5.1726,5.0685,5.0604,5.0068,4.9445,4.9475,4.9746,5.0043,5.0092,5.0358,5.0663,5.0683,4.999,4.8894,4.7375,4.6297,4.5586,4.5586,4.5586,4.5586,4.5586,4.5586,4.5586,4.5586,4.4874,4.4278,4.4201,4.2835,4.1777,4.17,4.0989,4.0489,4.0489,4.0489,4.0489,4.0489,4.0489,4.0504,4.0519,4.0519,4.0515,4.053,4.053,4.053,4.053,4.053,4.053,4.053,4.053,4.053,4.0511,3.9779,3.9432,4.6856,4.7868,4.8546,4.8048,4.688,4.5189,4.2753,4.0242,3.7891,3.5936,3.5008,3.4925,3.6276,3.6666,3.7661,4.0396,4.1111,4.258,4.614,4.7205,4.893,5.2527,5.3225,5.4124,5.5904,5.5354,5.5005,5.5335,5.506,5.5354,5.6492,5.5941,5.5519,5.5372,5.5042,5.4876,5.4876,5.4399,5.4399,5.4858,5.4069,5.3683,5.3683,5.3353,5.3318,5.3565,5.3565,5.3663,5.3814,5.3943,5.3996,5.4083,5.4187,5.4465,5.4867,5.4867,5.4493,5.3874,5.3215,5.2288,5.1338,5.0873,5.0483,5.0206,5.0206,5.0336,5.0462,5.0462,5.0584,5.0702,5.0702,5.0048,4.8971,4.7298,4.6624,4.624,4.5701,4.5586,4.5586,4.5586,4.5586,4.5586,4.5586,4.5297,4.4893,4.4374,4.3739,4.2951,4.1931,4.1508,4.1085,4.0546,4.0489,4.0489,4.0489,4.0489,4.0489,4.0489,4.0489,4.0489,4.0489,4.0489,4.0489,4.0489,4.0489,4.0489,4.0489,4.0489,4.0489,4.0489,4.0162,4.0008,4.5805,4.724,4.8202,4.761,4.6438,4.4836,4.2618,4.0123,3.7841,3.6224,3.5195,3.5038,3.6447,3.6676,3.7276,3.9221,3.9937,4.1203,4.3956,4.4764,4.6507,5.0435,5.1132,5.2123,5.4308,5.4454,5.4308,5.4069,5.4051,5.4289,5.4858,5.4876,5.473,5.4418,5.4179,5.4051,5.4051,5.3482,5.3482,5.4051,5.3482,5.3206,5.3206,5.3206,5.3359,5.3624,5.3758,5.3814,5.3851,5.4288,5.4387,5.4236,5.4547,5.4924,5.5282,5.5282,5.4948,5.4376,5.351,5.2645,5.1779,5.0952,5.0702,5.0702,5.0702,5.0702,5.0702,5.0702,5.0702,5.0702,5.0702,5.0048,4.9048,4.7605,4.7067,4.6663,4.5778,4.5586,4.5586,4.5586,4.5586,4.5586,4.5586,4.5586,4.5393,4.4778,4.447,4.3797,4.2374,4.197,4.147,4.0585,4.0489,4.0489,4.0489,4.0489,4.0489,4.0489,4.0489,4.0489,4.0489,4.0489,4.0489,4.0489,4.0489,4.0489,4.0489,4.0489,4.0489,4.0489,4.0489,4.0489,4.3811,4.5498,4.7014,4.7014,4.5752,4.4094,4.2461,4.0123,3.7841,3.6224,3.5683,3.5746,3.6559,3.7119,3.7753,3.8579,4.0065,4.1662,4.3277,4.4874,4.6507,4.8141,4.9095,5.0251,5.1867,5.3463,5.4069,5.328,5.3225,5.3225,5.3225,5.3225,5.3592,5.4381,5.3628,5.3225,5.3225,5.3206,5.3206,5.3225,5.3206,5.3206,5.3206,5.3206,5.3206,5.3248,5.3624,5.3814,5.3851,5.4288,5.4731,5.5088,5.5088,5.5331,5.5684,5.5684,5.5184,5.4376,5.351,5.2645,5.1779,5.0952,5.0702,5.0702,5.0702,5.0702,5.0702,5.0702,5.0702,5.0702,5.0702,5.0048,4.9183,4.8298,4.749,4.6663,4.5778,4.5586,4.5586,4.5586,4.5586,4.5586,4.5586,4.5586,4.5586,4.5586,4.4855,4.4008,4.3181,4.2335,4.147,4.0585,4.0489,4.0489,4.0489,4.0489,4.0489,4.0489,4.0489,4.0489,4.0489,4.0489,4.0489,4.0489,4.0489,4.0489,4.0489,4.0489,4.0489,4.0489,4.0489,4.0489,4.2124,4.3958,4.5499,4.4948,4.4003,4.2927,4.1806,3.9435,3.7505,3.7521,3.6447,3.5987,3.7507,3.7772,3.8229,3.9573,4.0222,4.1058,4.2466,4.3589,4.5259,4.7994,5.0527,5.227,5.2766,5.328,5.3482,5.3225,5.3206,5.3206,5.3206,5.3206,5.3335,5.3573,5.3335,5.3206,5.3206,5.3206,5.3206,5.3206,5.3206,5.3206,5.3206,5.3206,5.3359,5.3643,5.374,5.3814,5.3851,5.4288,5.4387,5.4217,5.456,5.4779,5.4924,5.5186,5.4746,5.3929,5.339,5.2645,5.1779,5.0952,5.0702,5.0702,5.0702,5.0702,5.0702,5.0702,5.0702,5.0702,5.0702,5.0048,4.9183,4.8317,4.749,4.6663,4.5778,4.5586,4.5586,4.5586,4.5586,4.5586,4.5586,4.5586,4.5586,4.5586,4.5355,4.4682,4.3278,4.2854,4.2124,4.0662,4.0489,4.0489,4.0489,4.0489,4.0489,4.0489,4.0489,4.0489,4.0489,4.0489,4.0489,4.0489,4.0489,4.0489,4.0489,4.0489,4.0489,4.0489,4.0489,4.0489,3.99,4.1674,4.3071,4.2772,4.2088,4.135,4.0817,3.9075,3.7618,3.7804,3.7084,3.6789,3.8075,3.8252,3.8563,3.9667,4.002,4.0658,4.2099,4.2983,4.469,4.7921,5.0674,5.2417,5.2729,5.3023,5.3206,5.3206,5.3206,5.3206,5.3206,5.3206,5.3206,5.3206,5.3206,5.3206,5.3206,5.3206,5.3206,5.3206,5.3206,5.3206,5.3206,5.3206,5.3336,5.3565,5.374,5.372,0.0,5.4221,5.4221,5.3851,5.4322,5.4503,5.4535,5.476,5.4316,5.347,5.2946,5.2269,5.1535,5.0751,5.0584,5.0702,5.0702,5.0702,5.0702,5.0702,5.0702,5.0702,5.0702,5.0048,4.9183,4.8317,4.749,4.6663,4.5778,4.5586,4.5586,4.5586,4.5586,4.5586,4.5586,4.5586,4.5586,4.5586,4.5586,4.5086,4.372,4.3297,4.2566,4.1143,4.07,4.0489,4.0489,4.0489,4.0489,4.0489,4.0489,4.0489,4.0489,4.0489,4.0489,4.0489,4.0489,4.0489,4.0489,4.0489,4.0489,4.0489,4.0489,4.0489,0.0,3.8773,4.0004,4.0514,4.0042,3.949,3.9566,3.8836,0.0,3.7269,3.7517,3.7951,3.8221,3.8515,3.8822,3.9137,3.9671,4.0538,4.2084,4.313,4.4911,4.8031,4.9866,5.1187,5.1922,5.2729,5.3206,5.3206,5.3206,5.3206,5.3206,5.3206,5.3206,5.3206,5.3206,5.3206,5.3206,5.3206,5.3206,5.3206,5.3206,5.3206,5.3206,5.3206,5.3206,5.3206,5.3604,5.3545,5.3272,5.4086,5.4153,5.3814,5.424,5.4406,5.4406,5.4439,5.3905,5.3038,5.2277,5.1661,5.1135,5.0359,5.0358,5.0702,5.0702,5.0702,5.0702,5.0702,5.0702,5.0702,5.0702,5.001,4.9106,4.8298,4.7451,4.6586,4.5759,4.5586,4.5586,4.5586,4.5586,4.5586,4.5586,4.5586,4.5586,4.5586,4.5586,4.5278,4.4412,4.3643,4.2835,4.1912,4.1085,4.0566,4.0508,4.0489,4.0489,4.0489,4.0489,4.0489,4.0489,4.0489,4.0489,4.0489,4.0489,4.0489,4.0489,4.0489,4.0489,4.0489,4.0489,4.0489,3.4718,0.0,3.79,3.8045,3.7732,3.7573,0.0,3.7511,3.6888,3.7322,3.7515,3.7683,3.794,3.8558,3.9212,3.9909,4.069,4.1459,4.2191,4.458,4.7021,4.904,5.0729,5.1775,5.1977,5.2729,5.3206,5.3206,5.3206,5.3206,5.3206,5.3206,5.3206,5.3206,5.3206,5.3206,5.3206,5.3206,5.3206,5.3206,5.3206,5.3206,5.3206,5.3206,5.3206,5.3206,5.3295,5.3314,5.3206,5.344,5.3422,5.3359,5.3462,5.3502,5.3524,5.387,5.3454,5.2682,5.2184,5.1536,5.0818,5.0285,5.0358,5.0702,5.0702,5.0702,5.0702,5.0702,5.0702,5.0702,5.0702,4.9548,4.8355,4.8144,4.6971,4.5836,4.5624,4.5586,4.5586,4.5586,4.5586,4.5586,4.5586,4.5586,4.5586,4.5586,4.5586,4.5278,4.4412,4.4124,4.3451,4.197,4.1623,4.1219,4.0546,4.0489,4.0489,4.0489,4.0489,4.0489,4.0489,4.0489,4.0489,4.0489,4.0489,4.0489,4.0489,4.0489,4.0489,4.0489,4.0489,4.0489,3.3842,3.507,3.6475,3.6726,3.6638,3.6628,3.7054,3.6731,3.6303,3.6358,3.667,3.7135,3.778,3.8461,3.9221,4.0142,4.09,4.1865,4.322,4.5865,4.8141,4.9426,5.0674,5.1444,5.1444,5.1848,5.2105,5.2105,5.2105,5.2105,5.2105,5.2454,5.2491,5.2123,5.2839,5.3206,5.3206,5.3206,5.3206,5.3206,5.3206,5.3206,5.3206,5.3206,5.3206,5.3206,5.3206,5.3206,5.3206,5.3206,5.3206,5.3206,5.3206,5.2986,5.2697,5.289,5.2231,5.1195,5.0983,5.059,5.0194,5.0127,5.0358,5.0702,5.0702,5.0702,5.0702,5.0702,5.0702,5.0702,5.0702,4.9413,4.8105,4.8105,4.6817,4.5586,4.5586,4.5586,4.5586,4.5586,4.5586,4.5586,4.5586,4.5586,4.5586,4.5586,4.5586,4.5432,4.4951,4.4547,4.3951,4.3047,4.2258,4.1604,4.1143,4.0719,4.0489,4.0489,4.0489,4.0489,4.0489,4.0489,4.0489,4.0489,4.0489,4.0489,4.0489,4.0489,4.0489,4.0489,4.0489,4.0489,3.3954,3.4774,3.5669,3.5873,3.6009,3.6101,3.6101,3.6101,3.5899,3.5137,3.5789,3.673,3.7495,3.8338,3.9197,4.0084,4.0929,4.2323,4.4745,4.6838,4.8434,4.9297,5.0123,5.0618,5.0618,5.0729,5.0802,5.0802,5.0802,5.0802,5.0802,5.1444,5.1499,5.082,5.2123,5.2894,5.3023,5.3151,5.3206,5.3206,5.3206,5.3206,5.3206,5.3206,5.3206,5.3206,5.3206,0.0,5.3206,5.3206,5.3133,5.3023,5.3023,5.2527,5.1811,5.1811,5.0875,4.9554,4.9426,4.9427,4.9561,4.9898,5.0336,5.0702,5.0702,5.0702,5.0702,5.0702,5.0702,5.0664,5.0529,4.9317,4.8067,4.7952,4.6721,4.5586,4.5586,4.5586,4.5586,4.5586,4.5586,4.5586,4.5586,4.5586,4.5586,4.5586,4.5586,4.5586,4.5586,4.4951,4.4451,4.4316,4.3028,4.2143,4.2008,4.12,4.07,4.07,4.0566,4.0489,4.0489,4.0489,4.0489,4.0489,4.0489,4.0489,4.0489,4.0489,4.0489,4.0489,4.0489,4.0489,3.4623,3.5468,3.5873,3.4532,3.4706,3.5192,3.5192,3.5192,3.5155,3.5027,3.6248,3.7158,3.6646,3.829,3.9766,3.9939,4.1732,4.3975,4.6397,4.7076,4.7609,4.8398,4.926,4.9774,4.9774,5.0398,5.0802,5.0802,5.0802,5.0802,5.0802,5.093,5.093,5.0802,5.1041,5.1499,5.2179,5.2858,5.3206,5.3206,5.3206,5.3206,5.3206,5.3206,5.3206,5.3206,5.3206,5.3206,5.3206,5.3206,5.2803,5.2179,5.2179,5.1683,5.0986,5.0986,5.0398,4.9481,4.8765,4.8925,4.9504,4.9561,5.0092,5.0702,5.0702,5.0702,5.0702,5.0702,5.0702,5.0529,4.9779,4.8856,4.7932,4.7259,4.6317,4.5586,4.5586,4.5586,4.5586,4.5586,4.5586,4.5586,4.5586,4.5586,4.5586,4.5586,4.5586,4.5586,4.5586,4.547,4.5124,4.4374,4.4066,4.3643,4.297,4.2104,4.1604,4.1604,4.0912,4.0489,4.0489,4.0489,4.0489,4.0489,4.0489,4.0489,4.0489,4.0489,4.0489,4.0489,4.0489,4.0489,3.2944,3.3972,3.4761,3.399,3.5092,3.6358,3.6358,3.6009,3.5716,3.5716,3.6321,3.7,3.7496,3.8854,4.0469,4.2213,4.3424,4.4837,4.6838,4.7113,4.7407,4.8214,4.8655,4.8893,4.8893,4.9224,4.9462,4.9462,4.9462,4.9462,4.9462,4.9903,4.9939,4.9462,5.0325,5.0765,5.0692,5.1499,5.2344,5.3206,5.3206,5.3206,5.3206,5.3206,5.3206,5.3188,0.0,5.2546,5.2527,5.2087,5.1683,5.1353,5.1353,5.0857,5.0086,4.9627,4.9224,4.8838,4.8434,4.8692,4.9202,4.9416,4.9898,5.0421,5.0624,5.0356,4.999,4.999,4.999,4.9913,4.949,4.8432,4.7355,4.699,4.622,4.5586,4.5586,4.5586,4.5586,4.5586,4.5586,4.5586,4.5586,4.5586,4.5586,4.5586,4.5586,4.5586,4.5586,4.5586,4.5451,4.5047,4.4586,4.397,4.3162,4.2297,4.1604,4.1123,4.0719,4.0489,4.0489,4.0489,4.0489,4.0489,4.0489,4.0489,4.0489,4.0489,4.0489,4.0508,4.0969,4.12,3.1898,3.2672,3.3497,3.3835,3.5439,3.7019,3.7404,3.6776,3.6241,3.6751,3.6893,3.7302,3.8475,3.9515,4.1111,4.3956,4.4745,4.548,4.6911,4.7278,4.7627,4.8233,4.8306,4.8249,4.8114,4.8075,4.8017,4.7879,4.7838,4.7937,4.8075,4.8736,4.8849,4.8324,4.9554,5.0013,4.9591,5.0196,5.1224,5.2656,5.2656,5.2656,5.2656,5.2656,5.2656,5.2601,5.1995,5.172,5.1665,5.1041,5.0692,5.0508,5.0508,5.0013,4.9205,4.8545,4.8306,4.8306,4.8306,4.8568,4.8963,4.9265,4.9692,5.0159,5.0462,5.0163,4.9663,4.9452,4.924,4.9048,4.8856,4.7855,4.6855,4.6644,4.6086,4.5586,4.5586,4.5586,4.5586,4.5586,4.5586,4.5586,4.5586,4.5586,4.5586,4.5586,4.5586,4.5586,4.5586,4.5586,4.5586,4.5586,4.4989,4.4201,4.3181,4.2297,4.1431,4.0546,4.0489,4.0489,4.0489,4.0489,4.0489,4.0489,4.0489,4.0489,4.0489,4.0489,4.0585,4.0816,4.1489,4.1912,3.3421,3.2931,3.2567,3.3985,3.4779,3.5605,3.7147,3.643,3.6045,3.8101,3.8667,3.879,3.8706,3.9974,4.1589,4.3296,4.4837,4.6122,4.7003,4.7755,4.8251,4.8306,4.8306,4.8075,4.753,4.747,4.7194,4.6571,4.6524,4.6801,4.7428,4.7524,4.777,4.8267,4.8416,4.8838,4.9572,4.9646,5.0105,5.0967,5.0967,5.0967,5.0967,5.0967,5.0967,5.0967,5.0912,5.0894,5.0875,5.082,5.0362,4.9682,4.9682,4.915,4.8398,4.8324,4.8306,4.8306,4.8306,4.8568,4.8897,4.893,4.9475,5.0111,5.0116,5.0361,5.0433,4.9625,4.8817,4.8029,4.7278,4.699,4.6701,4.5893,4.5643,4.5586,4.5586,4.5586,4.5586,4.5586,4.5586,4.5586,4.5586,4.5586,4.5586,4.5586,4.5586,4.5586,4.5586,4.5586,4.5586,4.5586,4.5528,4.4855,4.3239,4.2297,4.1431,4.0546,4.0489,4.0489,4.0489,4.0489,4.0489,4.0489,4.0489,4.0489,4.0489,4.0489,4.0912,4.172,4.1777,4.2239,3.1347,3.1756,3.2126,3.2751,3.3854,3.5262,3.693,3.6916,3.7041,3.876,3.9463,3.9841,4.0134,4.1111,4.2213,4.3314,4.4433,4.5626,4.6929,4.737,4.7755,4.8251,4.8306,4.821,4.7977,4.7614,4.7281,4.7044,4.6618,4.6524,4.6756,4.7194,4.7512,4.7756,4.8114,4.8471,4.8783,4.8783,4.893,4.926,5.0306,5.0802,5.0802,5.0802,5.0802,5.0765,5.027,5.005,4.9994,4.9462,4.9077,4.8783,4.8783,4.86,4.8306,4.8306,4.8306,4.8306,4.8306,4.8383,4.8568,4.8813,4.9108,4.9445,4.9949,4.9438,4.8692,4.8606,4.7605,4.6605,4.6836,4.6509,4.6009,4.5682,4.5586,4.5586,4.5586,4.5586,4.5586,4.5586,4.5586,4.5586,4.5586,4.5586,4.5586,4.5586,4.5586,4.5586,4.5586,4.5586,4.5586,4.5586,4.4662,4.3797,4.3143,4.1797,4.0854,4.0508,4.0489,4.0489,4.0489,4.0489,4.0489,4.0489,4.0489,4.0489,4.0489,4.1046,4.1489,4.1835,4.2874,4.3528,3.0406,3.0785,3.1184,3.1936,3.2696,3.3855,3.616,3.6978,3.7805,3.9764,4.005,4.0147,4.0719,4.1139,4.1685,4.2601,4.3687,4.4876,4.6159,4.6413,4.6665,4.7213,4.7132,4.6953,4.6729,4.637,4.6043,4.5797,4.5356,4.518,4.5422,4.5861,4.639,4.7006,4.7434,4.7876,4.8306,4.8306,4.8306,4.8324,4.9462,5.0013,5.0013,5.0013,5.0013,4.9976,4.9426,4.9187,4.9132,4.8545,4.8306,4.8306,4.8306,4.8306,4.8306,4.8306,4.8306,4.8306,4.8306,4.8306,4.8326,4.8621,4.8813,4.9011,4.9561,4.9081,4.8266,4.7986,4.7165,4.6394,4.6471,4.6047,4.5586,4.5586,4.5586,4.5586,4.5586,4.5586,4.5586,4.5586,4.5586,4.5586,4.5586,4.5586,4.5586,4.5586,4.5586,4.5586,4.5586,4.5586,4.549,4.522,4.3932,4.2989,4.272,4.1335,4.0489,4.0489,4.0489,4.0489,4.0489,4.0489,4.0489,4.0489,4.0489,4.0489,4.0489,4.1104,4.1527,4.1835,4.3258,4.4066,3.129,3.0279,2.9644,3.1835,3.1234,3.1106,3.4793,3.6549,3.8209,4.117,4.0571,3.9669,4.011,3.9807,3.9863,4.0928,4.265,4.408,4.4619,4.4906,4.5062,4.508,4.4568,4.3948,4.3388,4.3291,4.2994,4.2339,4.2286,4.2568,4.3242,4.3291,4.4226,4.6194,4.6272,4.6916,4.8288,4.8306,4.8306,4.8306,4.8306,4.8306,4.8306,4.8306,4.8306,4.8306,4.8306,4.8306,4.8306,4.8306,4.8306,4.8306,4.8306,4.8306,4.8306,4.8306,4.8306,4.8306,4.8306,4.8306,4.8306,4.8306,4.8568,4.8897,4.8878,4.9456,4.9687,4.7971,4.7773,4.7682,4.6028,4.5586,4.5586,4.5586,4.5586,4.5586,4.5586,4.5586,4.5586,4.5586,4.5586,4.5586,4.5586,4.5586,4.5586,4.5586,4.5586,4.5586,4.5586,4.5586,4.5259,4.4393,4.3585,4.2758,4.1912,4.1008,4.0489,4.0508,4.0489,4.0489,4.0489,4.0489,4.0489,4.0489,4.0489,4.0489,4.0489,4.0508,4.095,4.1835,4.272,4.3547,2.9733,2.9955,3.0314,3.0976,3.2162,3.3626,3.525,3.5864,3.6942,3.979,3.9983,3.9783,4.0387,4.0347,4.0364,4.0685,4.168,4.2697,4.3399,4.3584,4.3857,4.441,4.4307,4.4129,4.3948,4.3563,4.3192,4.3011,4.2585,4.2392,4.2585,4.3044,4.3572,4.4161,4.5566,4.6481,4.6898,4.784,4.8306,4.8306,4.8306,4.8306,4.8306,4.8306,4.8306,4.8306,4.8306,4.8306,4.8306,4.8306,4.8306,4.8306,4.8306,4.8306,4.8306,4.8306,4.8306,4.8306,4.8306,4.8306,4.8306,4.8306,4.8402,4.8439,4.8125,4.7772,4.7323,4.6528,4.5981,4.5527,4.5029,4.4896,4.5011,4.5495,4.5586,4.5586,4.5586,4.5586,4.5586,4.5586,4.5586,4.5586,4.5586,4.5586,4.5586,4.5586,4.5586,4.5586,4.5586,4.5586,4.549,4.524,4.3951,4.322,4.3528,4.1681,4.0758,4.1373,4.0835,4.0489,4.0489,4.0489,4.0489,4.0489,4.0489,4.0489,4.0489,4.1123,4.1854,4.2739,4.3566,4.4393,2.9713,3.0532,3.1235,3.1839,3.306,3.4336,3.5385,3.6096,3.7068,3.9088,3.8997,3.8894,4.0027,3.9617,3.932,4.0064,4.0627,4.1235,4.1995,4.1894,4.2,4.2773,4.2433,4.2259,4.2538,4.2227,4.2016,4.2016,4.1648,4.1407,4.1407,4.1783,4.2302,4.284,4.4263,4.5252,4.5802,4.6848,4.7352,4.7352,4.7352,4.7517,4.7847,4.8159,4.8306,4.8306,4.8306,4.8306,4.8306,4.8306,4.8306,4.8306,4.8306,4.8104,4.7829,4.7829,4.7829,4.7792,4.7462,4.7572,4.7774,4.7462,4.7352,4.7279,4.7069,4.6735,4.6302,4.5734,4.5321,4.5021,4.4674,4.458,4.4707,4.5118,4.5303,4.54,4.54,4.5513,4.5586,4.5586,4.5586,4.5586,4.5586,4.5586,4.5586,4.5586,4.5586,4.5586,4.5586,4.5586,4.547,4.5124,4.4182,4.3643,4.3816,4.2412,4.1604,4.1797,4.1316,4.0854,4.0508,4.0489,4.0489,4.0489,4.0489,4.0489,4.0489,4.1027,4.1546,4.2085,4.2912,4.3778,3.0359,3.1324,3.2115,3.3563,3.3755,3.3964,3.5318,3.6688,3.7905,3.865,3.777,3.7449,3.9193,3.8094,3.7427,3.91,3.9504,3.9825,4.0369,3.9984,3.9859,4.0533,3.9614,3.9174,3.9918,3.9986,4.0003,4.007,4.007,4.007,4.007,4.007,4.0677,4.1964,4.2633,4.3558,4.4831,4.5512,4.581,4.581,4.5902,4.6287,4.704,4.7829,4.8233,4.8306,4.8306,4.8306,4.8306,4.8306,4.8269,4.8196,4.8196,4.7719,4.7003,4.7003,4.7003,4.6911,4.6159,4.6379,4.6874,4.614,4.5902,4.5883,4.581,4.6055,4.6145,4.5276,4.5308,4.5423,4.4689,4.4527,4.4553,4.4553,4.4849,4.5096,4.5096,4.5362,4.5586,4.5586,4.5586,4.5586,4.5586,4.5586,4.5586,4.5586,4.5586,4.5586,4.5586,4.5586,4.5297,4.4489,4.4355,4.4047,4.3374,4.3181,4.2758,4.197,4.1854,4.1412,4.0527,4.0489,4.0489,4.0489,4.0489,4.0489,4.0489,4.0489,4.0527,4.0642,4.1508,4.2335,2.7878,2.9614,3.1533,3.2434,3.3914,3.5233,3.5554,3.5876,3.6332,3.7094,3.7466,3.7801,3.8201,3.7967,3.7797,3.8196,3.8274,3.8329,3.8499,3.8376,3.835,3.852,3.8306,3.843,3.9157,3.9225,3.9462,4.0037,4.007,4.007,4.007,4.007,4.0239,4.0542,4.1756,4.2515,4.2812,4.445,4.5279,4.5298,4.568,4.5993,4.6195,4.7003,4.7719,4.8306,4.8306,4.8306,4.8306,4.8306,4.7939,4.737,4.737,4.6874,4.6159,4.6159,4.6159,4.614,4.5957,4.6012,4.614,4.5957,4.5902,4.5773,4.5149,4.5018,4.4939,4.411,4.3937,4.3948,4.3781,4.3943,4.4117,4.4117,4.4638,4.5096,4.5096,4.5362,4.5586,4.5586,4.5586,4.5586,4.5586,4.5586,4.5586,4.5586,4.5586,4.5586,4.5586,4.5586,4.5528,4.5336,4.4701,4.4509,4.5009,4.3855,4.3028,4.2835,4.2181,4.1412,4.0527,4.0489,4.0489,4.0489,4.0489,4.0489,4.0489,4.0489,4.0854,4.1546,4.2412,4.2912,2.7278,2.9187,3.1213,3.2925,3.4218,3.5182,3.5537,3.5622,3.574,3.6146,3.6535,3.7043,3.777,3.7313,3.6924,3.7313,3.7364,3.7364,3.7364,3.7364,3.7499,3.7872,3.7584,3.7787,3.8886,3.8988,3.9292,4.002,4.007,4.007,4.007,4.007,4.007,4.007,4.1068,4.1731,4.2006,4.3322,4.4077,4.4325,4.462,4.4947,4.5351,4.6159,4.6764,4.715,4.715,4.715,4.7186,4.7572,4.726,4.6562,4.6966,4.6379,4.5333,4.5333,4.5333,4.5278,4.4874,4.5002,4.5259,4.4874,4.4745,4.4672,4.425,4.4121,4.403,4.3608,4.3631,4.3758,4.3758,4.4016,4.429,4.429,4.4688,4.5096,4.5096,4.5362,4.547,4.5047,4.497,4.497,4.497,4.5316,4.5586,4.5586,4.5586,4.5586,4.5586,4.5586,4.5586,4.5586,4.5182,4.5105,4.5547,4.4797,4.3951,4.3143,4.2662,4.1835,4.0546,4.0489,4.0489,4.0489,4.0489,4.0489,4.0489,4.0489,4.0719,4.1181,4.1643,4.2085,2.6749,2.8834,3.0875,3.3496,3.4242,3.4472,3.5098,3.5233,3.5284,3.5402,3.552,3.6011,3.728,3.6559,3.596,3.665,3.6825,3.687,3.687,3.687,3.7047,3.7555,3.708,3.725,3.8481,3.8616,3.892,3.9648,3.9698,3.9766,3.9884,3.9884,3.9952,4.007,4.0528,4.1013,4.1508,4.2221,4.277,4.3196,4.341,4.3846,4.4525,4.5186,4.5645,4.5902,4.5902,4.5902,4.5957,4.6636,4.6434,4.5755,4.6434,4.581,4.4488,4.4488,4.4488,4.4397,4.3718,4.3938,4.4378,4.3718,4.3497,4.3497,4.3497,4.3497,4.3497,4.3497,4.3758,4.4016,4.4016,4.4233,4.4474,4.4474,4.4619,4.4836,4.5039,4.5362,4.5336,4.447,4.4182,4.4143,4.4278,4.4893,4.5432,4.5566,4.5586,4.5586,4.5586,4.5586,4.5586,4.5586,4.5586,4.5586,4.5586,4.5451,4.472,4.3201,4.297,4.2162,4.0566,4.0489,4.0489,4.0489,4.0489,4.0489,4.0489,4.0489,4.0489,4.0489,4.0642,4.1027,2.3957,2.6837,3.0029,3.2232,3.3165,3.3575,3.3677,3.3694,3.388,3.4523,3.5165,3.569,3.5893,3.6122,3.6343,3.6446,3.6841,3.7158,3.7158,3.7158,3.6996,3.6627,3.6515,3.6594,3.7039,3.7077,3.7381,3.8142,3.8193,3.8464,3.9106,3.914,3.9428,4.0054,4.0154,4.0254,4.0353,4.1375,4.1979,4.2062,4.3032,4.3552,4.3644,4.3754,4.458,4.5902,4.5902,4.5902,4.5902,4.6012,4.559,4.4874,4.4984,4.447,4.3644,4.3644,4.3644,4.3626,4.3534,4.3552,4.3626,4.3516,4.3497,4.3497,4.3497,4.3497,4.3497,4.3497,4.3758,4.4016,4.4016,4.3962,4.3926,4.3926,4.3637,4.3692,4.4834,4.5362,4.5336,4.447,4.3739,4.347,4.4182,4.4393,4.472,4.549,4.5586,4.5586,4.5586,4.5586,4.5586,4.5586,4.5586,4.5586,4.5586,4.4913,4.4085,4.3162,4.2393,4.1527,4.0527,4.0489,4.0489,4.0489,4.0489,4.0489,4.0489,4.0489,4.0489,4.0508,4.1277,4.1277,2.4073,2.6166,2.8379,3.1182,3.1805,3.1993,3.3119,3.3406,3.3491,3.3829,3.415,3.4641,3.547,3.5711,3.5775,3.5734,3.6562,3.7031,3.6534,3.6889,3.7097,3.6882,3.6843,3.694,3.7161,3.7185,3.7393,3.7838,3.7905,3.8041,3.8362,3.8379,3.8717,3.9445,3.9462,3.9829,4.0528,4.1358,4.2144,4.2772,4.3267,4.3497,4.3497,4.3497,4.3883,4.4562,4.4562,4.4562,4.458,4.5039,4.4745,4.4066,4.4525,4.4213,4.3497,4.3497,4.3497,4.3497,4.3497,4.3497,4.3497,4.3497,4.3497,4.3497,4.3497,4.3497,4.3497,4.3497,4.3899,4.4337,4.4337,4.4569,4.4691,4.4193,4.392,4.3801,4.3943,4.4112,4.3932,4.3066,4.2604,4.2489,4.2835,4.3682,4.4432,4.4797,4.5278,4.5586,4.5586,4.5586,4.5586,4.5586,4.5586,4.5586,4.5586,4.524,4.4662,4.3835,4.2989,4.2143,4.1258,4.0758,4.0489,4.0489,4.0489,4.0489,4.0489,4.0489,4.0489,4.0508,4.0893,4.0873,2.379,2.5089,2.6415,2.941,3.0031,3.0368,3.2219,3.2606,3.2715,3.3043,3.2966,3.3305,3.4793,3.5132,3.5157,3.5118,3.6162,3.6827,3.6363,3.6881,3.7292,3.7379,3.736,3.7403,3.7428,3.7398,3.7447,3.7524,3.7529,3.7539,3.7618,3.7618,3.7956,3.87,3.8717,3.918,4.0134,4.106,4.2081,4.3185,4.3387,4.3497,4.3497,4.3497,4.3497,4.3497,4.3497,4.3497,4.3534,4.4158,4.4048,4.3552,4.4158,4.403,4.3497,4.3497,4.3497,4.3497,4.3497,4.3497,4.3497,4.3497,4.3497,4.3497,4.3497,4.3497,4.3497,4.3497,4.3962,4.4474,4.458,4.4881,4.4977,4.4324,4.3899,4.3624,4.3431,4.3239,4.2912,4.2258,4.195,4.1873,4.2085,4.3162,4.4143,4.4566,4.5182,4.5586,4.5586,4.5586,4.5586,4.5586,4.5393,4.5259,4.5259,4.5066,4.4586,4.372,4.3104,4.2374,4.1508,4.0854,4.0489,4.0489,4.0489,4.0489,4.0489,4.0489,4.0489,4.0489,4.0489,4.0489,2.1494,2.2808,2.4241,2.6252,2.7644,2.8834,3.0143,3.045,3.0817,3.2107,3.1782,3.1765,3.3254,3.422,3.4818,3.4818,3.567,3.6593,3.7308,3.7454,3.7575,3.7855,3.7859,3.7703,3.7281,3.7206,3.7031,3.6537,3.6454,3.6586,3.6835,3.684,3.7195,3.7939,3.7973,3.7973,3.8055,3.9835,4.1312,4.2378,4.313,4.3497,4.3497,4.3497,4.3497,4.3497,4.3497,4.3497,4.3497,4.3534,4.3534,4.3497,4.3534,4.3534,4.3497,4.3497,4.3497,4.3497,4.3497,4.3497,4.3497,4.3497,4.3497,4.3497,4.3497,4.3497,4.3497,4.3497,4.3758,4.4117,4.4501,4.4241,4.3876,4.3838,4.2852,4.2354,4.3893,4.3643,4.3085,4.3047,4.2374,4.2066,4.2893,4.3104,4.3701,4.5278,4.5566,4.5586,4.5586,4.5586,4.5586,4.5586,4.4855,4.4374,4.4374,4.3662,4.2854,4.1989,4.1893,4.1489,4.0585,4.0508,4.0489,4.0489,4.0489,4.0489,4.0489,4.0489,4.0489,4.0489,4.0489,4.0489,2.0816,2.1476,2.2278,2.4622,2.5884,2.6873,2.8165,2.9394,3.0459,3.0933,3.1103,3.136,3.1884,3.3149,3.4092,3.4023,3.5318,3.6211,3.5936,3.6817,3.7558,3.7643,3.8104,3.8216,3.7685,3.7649,3.7305,3.6457,3.6374,3.6302,3.6056,3.6368,3.6754,3.7161,3.7818,3.8566,3.9353,4.0018,4.0782,4.1534,4.1827,4.1974,4.1992,4.2488,4.2451,4.2029,4.3039,4.3497,4.3497,4.3497,4.3497,4.3497,4.3497,4.3497,4.3497,4.3497,4.3497,4.3497,4.3497,4.3497,4.3497,4.3497,4.3497,4.3497,4.3497,4.3497,4.3497,4.3497,4.3758,4.3916,4.3549,4.3472,4.3336,4.2825,4.1908,4.1613,4.3308,4.2981,4.2476,4.268,4.247,4.2336,4.2661,4.3366,4.4066,4.4682,4.524,4.5586,4.5586,4.5586,4.5586,4.5586,4.4816,4.4297,4.4297,4.3566,4.297,4.2643,4.2104,4.1662,4.1354,4.0796,4.0489,4.0489,4.0489,4.0489,4.0489,4.0489,4.0489,4.0489,4.0489,4.0489,2.0274,2.0587,2.1188,2.3366,2.423,2.5014,2.6714,2.8084,2.9183,2.9839,3.0475,3.0975,3.1151,3.2221,3.309,3.3193,3.438,3.5188,3.5027,3.6211,3.7184,3.7489,3.8212,3.8546,3.8216,3.8183,3.7808,3.6981,3.6904,3.6666,3.6165,3.6481,3.6724,3.6939,3.7574,3.8429,3.9428,3.9698,4.0109,4.0708,4.0983,4.1111,4.113,4.1662,4.1625,4.1167,4.2231,4.2837,4.3112,4.3387,4.3497,4.3497,4.3497,4.3497,4.3497,4.3497,4.3497,4.3442,4.3185,4.3259,4.3406,4.2873,4.3057,4.3442,4.3167,4.3277,4.3497,4.3497,4.3679,4.3719,4.3297,4.3362,4.3375,4.2687,4.2093,4.1996,4.3069,4.2857,4.251,4.2724,4.2769,4.2813,4.2919,4.3599,4.4267,4.4682,4.522,4.5586,4.5586,4.5586,4.5586,4.5586,4.4816,4.4182,4.3912,4.3412,4.2854,4.2258,4.197,4.1681,4.1373,4.0796,4.0489,4.0489,4.0489,4.0489,4.0489,4.0489,4.0489,4.0489,4.0489,4.0489,0.0,0.0,0.0,2.2278,2.2664,2.3341,2.579,2.6386,2.6954,2.8862,2.9791,3.0427,3.1095,3.1507,3.1933,3.2417,3.2872,3.3604,3.4769,3.5716,3.656,3.7349,3.8175,3.867,3.8707,3.8707,3.8465,3.7946,3.7893,3.7685,3.7228,3.719,3.721,3.7248,3.7228,3.7433,3.7911,3.8686,3.9361,3.9863,4.0671,4.1038,4.1038,4.1056,4.1056,4.1038,4.1111,4.157,4.2323,4.313,4.3461,4.3497,4.3497,4.3497,4.3497,4.3461,4.3442,4.3332,4.2543,4.2782,4.3167,4.1625,4.2158,4.3277,4.2506,4.28,4.3424,4.3442,4.3442,4.3526,4.3838,4.3893,4.3759,4.3337,4.3341,4.3439,4.3332,4.3321,4.3302,4.3302,4.3302,4.3428,4.377,4.3836,4.4227,4.5377,4.5566,4.5566,4.5528,4.5566,4.5566,4.5528,4.4759,4.3932,4.3124,4.3047,4.2297,4.0604,4.1296,4.1373,4.0527,4.0489,4.0489,4.0489,4.0489,4.0489,4.0489,4.0489,4.0489,4.0489,4.0489,4.0489,1.9006,0.0,0.0,0.0,0.0,0.0,2.2884,2.4076,2.5581,2.7517,2.8444,2.9337,3.0909,3.1291,3.1507,3.1933,3.2663,3.3316,3.364,3.4666,3.5679,3.6523,3.7331,3.8046,3.8652,3.8707,3.8465,3.7946,3.7893,3.7685,3.7228,3.719,3.7524,3.8252,3.7929,3.7946,3.8465,3.8684,3.8875,3.9038,3.9258,3.9368,3.9386,3.9974,3.9918,3.946,4.1222,4.1772,4.1497,4.2304,4.2965,4.3497,4.3497,4.3497,4.3424,4.2837,4.2635,4.2525,4.1717,4.1589,4.1699,4.1258,4.1405,4.1735,4.1515,4.1589,4.1901,4.247,4.2635,4.2522,4.2014,4.1488,4.1151,4.1595,4.2175,4.2776,4.3319,4.3458,4.3534,4.3751,4.381,4.3924,4.4298,4.4577,4.4704,4.4666,4.5201,4.5163,4.3951,4.4836,4.5143,4.3912,4.3585,4.3085,4.2239,4.1585,4.1008,4.0527,4.0719,4.0739,4.0508,4.0489,4.0489,4.0489,4.0489,4.0489,4.0489,4.0489,4.0489,4.0489,4.0489,4.0489,1.8528,1.8968,1.9428,1.9723,0.0,0.0,2.1919,2.2955,2.4307,2.6214,2.7096,2.7973,2.9343,2.9822,3.0118,3.0679,3.155,3.2321,3.2836,3.3961,3.4954,3.5447,3.6692,3.7661,3.8138,3.8505,3.8578,3.8267,3.8216,3.8117,3.7826,3.7826,3.8083,3.8676,3.8382,3.8382,3.8707,3.8707,3.8707,3.8707,3.8707,3.8707,3.8726,3.9184,3.9148,3.8781,4.0194,4.0726,4.0634,4.1111,4.2158,4.3424,4.2763,4.269,4.2892,4.2103,4.1809,4.168,4.0891,4.0836,4.1001,4.0322,4.0561,4.1056,4.0708,4.0836,4.1203,4.168,4.1809,4.1699,4.124,4.0763,4.0524,4.1001,4.1479,4.1937,4.2396,4.2506,4.2739,4.361,4.3804,4.3974,4.4501,4.4448,4.4347,4.4303,4.4451,4.4201,4.322,4.3951,4.4182,4.3201,4.3104,4.2758,4.1873,4.1335,4.0893,4.0508,4.0489,4.0489,4.0489,4.0489,4.0489,4.0489,4.0389,4.0248,4.0138,4.0389,4.0489,4.0489,4.0248,4.0212,1.8411,1.863,1.9147,1.9663,1.973,0.0,2.1883,2.2301,2.2896,2.4782,2.5652,2.6275,2.7048,2.7581,2.8086,2.8744,2.9702,3.082,3.2227,3.3448,3.4204,3.4294,3.6091,3.7308,3.7399,3.82,3.8707,3.8707,3.8707,3.8707,3.8707,3.8707,3.8707,3.8707,3.8707,3.8707,3.8707,3.8707,3.8707,3.8707,3.8707,3.8707,3.8707,3.8707,3.8707,3.8707,3.8799,3.9239,3.99,3.99,4.1222,4.3075,4.1662,4.1552,4.2066,4.1277,4.0983,4.0855,4.0047,4.0249,4.0616,3.9166,3.968,4.0708,3.9974,4.0267,4.0855,4.0946,4.0983,4.0983,4.0983,4.0983,4.0983,4.0983,4.1038,4.1111,4.1111,4.1111,4.1534,4.2947,4.3222,4.3504,4.4323,4.375,4.3341,4.3939,4.3453,4.2975,4.2835,4.2953,4.2975,4.2835,4.2893,4.2604,4.1739,4.1662,4.1335,4.0546,4.0489,4.0489,4.0489,4.0473,4.0457,4.0457,4.0195,3.9901,3.9599,4.0138,4.0406,4.0389,3.9842,3.9754,1.9366,1.9541,1.9543,1.9183,1.9433,0.0,1.9637,1.9976,2.0822,2.2755,2.328,2.3856,2.549,2.5891,2.5978,2.6124,2.7238,2.8971,3.1564,3.2473,3.311,3.3766,3.5091,3.6214,3.6866,3.8008,3.8707,3.8707,3.8707,3.8707,3.8707,3.8707,3.8707,3.8707,3.8707,3.8707,3.8707,3.8707,3.8707,3.8707,3.8707,3.8707,3.8707,3.8707,3.8707,3.8744,3.9386,3.9753,3.99,3.99,4.0561,4.1552,4.124,4.1203,4.1258,4.0432,4.012,4.001,3.9221,3.9038,3.9129,3.8799,3.8909,3.9148,3.8982,3.9038,3.9313,3.9955,4.012,4.012,4.012,4.012,4.012,4.012,4.0634,4.1111,4.1111,4.1111,4.1203,4.1515,4.1589,4.1976,4.3318,4.2875,4.2322,4.2288,4.2506,4.2297,4.1146,4.1989,4.2259,4.1127,4.1643,4.17,4.0835,4.0739,4.0681,4.0508,4.0489,4.0489,4.0489,4.0285,4.0177,4.0177,3.9861,3.9668,3.9599,3.9712,3.9778,3.9778,3.9668,3.9645,1.8681,1.899,1.9315,1.9037,1.913,0.0,0.0,1.9413,1.9845,2.1439,2.1774,2.2128,2.3325,2.3764,2.403,2.4455,2.555,2.6974,2.8858,3.0614,3.1949,3.2669,3.4196,3.546,3.614,3.7475,3.8415,3.8676,3.8465,3.8415,3.8676,3.8465,3.8415,3.8707,3.8707,3.8578,3.83,3.83,3.8183,3.7948,3.7948,3.8083,3.83,3.83,3.8465,3.8726,3.9129,3.9294,3.9294,3.9294,3.9551,3.99,3.99,4.0157,4.0396,3.9606,3.9294,3.9239,3.8836,3.8707,3.8707,3.8707,3.8707,3.8707,3.8707,3.8707,3.8781,3.9184,3.9294,3.9294,3.9294,3.9294,3.9294,3.9294,3.9606,3.99,3.99,3.99,4.0029,4.0414,4.0194,4.0437,4.2164,4.1758,4.1243,4.1357,4.1199,4.0916,4.0382,4.0921,4.1131,4.0569,4.0893,4.0969,4.0527,4.0489,4.0489,4.0489,4.0489,4.0489,4.0489,4.0372,4.0157,3.9859,3.9529,3.9282,3.9154,3.9154,3.932,3.9599,3.9275,3.9223,1.8138,1.8482,1.9079,1.8917,1.8879,1.9006,0.0,0.0,0.0,2.0136,2.0359,2.0509,2.1068,2.1401,2.1865,2.2716,2.3857,2.4886,2.5566,2.8089,3.0113,3.0885,3.2925,3.4465,3.4914,3.6409,3.7654,3.8478,3.7775,3.7621,3.8382,3.7998,3.7946,3.8401,3.8401,3.8201,3.7755,3.7755,3.7578,3.719,3.719,3.7396,3.7755,3.7755,3.8065,3.8546,3.8546,3.8578,3.8707,3.8707,3.8707,3.8707,3.8707,3.9093,3.9588,3.8946,3.8707,3.8707,3.8707,3.8707,3.8707,3.8707,3.8707,3.8707,3.8707,3.8707,3.8707,3.8707,3.8707,3.8707,3.8707,3.8707,3.8707,3.8707,3.8707,3.8707,3.8707,3.8707,3.8891,3.9533,3.9148,3.9252,4.1035,4.0645,4.0195,4.0594,3.9986,3.9622,3.9943,3.9962,4.0023,4.0302,4.0336,4.0336,4.0336,4.0336,4.0336,4.0336,4.0336,4.0336,4.0336,4.0247,3.9965,3.9451,3.9171,3.8923,3.8707,3.8707,3.896,3.9408,3.8931,3.8833,1.9712,1.9623,1.9485,1.8526,1.8649,1.8729,1.781,0.0,1.8305,1.8425,0.0,1.8565,1.9118,0.0,0.0,1.9974,2.1372,2.2476,2.2945,2.4815,2.6535,2.7737,3.061,3.2547,3.2664,3.4214,3.6005,3.7837,3.6288,3.5865,3.7288,3.7323,3.7285,3.7377,3.7377,3.734,3.7285,3.7285,3.7248,3.719,3.719,3.7228,3.7285,3.7285,3.7542,3.798,3.798,3.8267,3.8707,3.8707,3.8707,3.8707,3.8707,3.8762,3.8836,3.8726,3.8707,3.8707,3.8707,3.8707,3.8707,3.8707,3.8707,3.8707,3.8707,3.8707,3.8707,3.8707,3.8707,3.8707,3.8707,3.8707,3.8707,3.8707,3.8707,3.8707,3.8707,3.8707,3.8726,3.8817,3.8762,3.9068,4.0244,3.9769,3.9362,3.9703,3.9414,3.9264,3.9622,3.9389,3.9339,3.9668,3.9712,3.9712,3.9712,3.9712,3.9712,3.9712,3.9712,3.9712,3.9712,3.9414,3.9117,3.8822,3.8762,3.8719,3.8707,3.8707,3.8719,3.8792,3.8719,3.8738,1.9485,1.9572,1.9623,1.8869,1.8618,1.8327,1.7549,1.7273,1.7308,1.7613,0.0,0.0,0.0,0.0,0.0,0.0,1.9886,2.0823,2.1004,2.2672,2.4627,2.6567,2.8379,3.0216,3.2094,3.3491,3.4796,3.6058,3.473,3.4621,3.6394,3.6236,3.6447,3.7173,3.719,3.7076,3.6724,3.6724,3.6563,3.6274,3.6274,3.644,3.6724,3.6724,3.702,3.7506,3.779,3.8013,3.8267,3.8578,3.8707,3.8707,3.8707,3.8707,3.8707,3.8707,3.8707,3.8707,3.8707,3.8707,3.8707,3.8707,3.8707,3.8707,3.8707,3.8707,3.8707,3.8707,3.8707,3.8707,3.8707,3.8707,3.8707,3.8707,3.8707,3.8707,3.8707,3.8707,3.8707,3.8707,3.8707,3.886,3.9287,3.9076,3.8913,3.9064,3.897,3.8961,3.9282,3.9186,3.9212,3.9576,3.9599,3.9599,3.9599,3.9599,3.9599,3.9599,3.9599,3.9599,3.9599,3.9264,3.9063,3.8933,3.8773,3.8707,3.8707,3.8707,3.8707,3.8707,3.8707,3.8707,1.9384,1.951,1.9648,1.897,1.8505,1.8028,1.73,1.6936,1.6873,1.73,1.7503,0.0,0.0,0.0,1.818,1.8302,0.0,1.9898,1.9901,2.1197,2.296,2.5131,2.6468,2.8412,3.1392,3.205,3.2862,3.4288,3.3084,3.3179,3.5154,3.5134,3.5515,3.6414,3.6641,3.6563,3.6182,3.6182,3.5985,3.5622,3.5622,3.581,3.6165,3.5958,3.629,3.6981,3.7128,3.7469,3.7946,3.83,3.8578,3.8707,3.8707,3.8707,3.8707,3.8707,3.8707,3.8707,3.8707,3.8707,3.8707,3.8707,3.8707,3.8707,3.8707,3.8707,3.8707,3.8707,3.8707,3.8707,3.8707,3.8707,3.8707,3.8707,3.8707,3.8707,3.8707,3.8707,3.8707,3.8707,3.8707,3.8707,3.8707,3.8707,3.8707,3.8707,3.8707,3.8762,3.8961,3.8999,3.9063,3.9327,3.9352,3.9352,3.9352,3.9352,3.9352,3.9352,3.9352,3.9352,3.9352,3.9117,3.8999,3.8999,3.8803,3.8707,3.8707,3.8707,3.8597,3.8377,3.8597,3.8707,1.9991,1.9798,1.9547,1.8493,1.8216,1.7915,1.6798,1.6974,1.7363,1.7388,1.779,1.8329,1.8872,1.8562,1.8357,1.8821,1.9444,0.0,0.0,2.0415,2.1261,2.266,2.5056,2.757,2.9949,2.9085,2.9719,3.2902,3.1298,3.1162,3.3363,3.4159,3.4532,3.4566,3.5277,3.565,3.5622,3.5622,3.5622,3.5622,3.5622,3.5622,3.5588,3.4905,3.5241,3.6381,3.5717,3.6353,3.7893,3.7911,3.8216,3.8707,3.8707,3.8707,3.8707,3.8707,3.8707,3.8707,3.8707,3.8707,3.8707,3.8707,3.8707,3.8707,3.8707,3.8707,3.8707,3.8707,3.8707,3.8707,3.8707,3.8707,3.8707,3.8707,3.8707,3.8707,3.8707,3.8707,3.8707,3.8707,3.8707,3.8707,3.8707,3.8707,3.8707,3.8707,3.8707,3.8707,3.8689,3.8719,3.8738,3.8719,3.8719,3.8719,3.8719,3.8719,3.8719,3.8719,3.8719,3.8719,3.8719,3.8719,3.8719,3.8719,3.8707,3.8707,3.8707,3.8707,3.8303,3.7581,3.834,3.8707,1.985,1.9798,1.9635,1.8932,1.848,1.8016,1.7262,1.7237,1.7388,1.7388,1.7815,1.8251,1.8427,1.8333,1.827,1.8422,1.9266,1.9737,0.0,2.0069,2.0735,2.0826,2.3178,2.5199,2.634,2.7534,2.8849,3.0477,3.0268,3.0852,3.2577,3.3372,3.3998,3.4472,3.5233,3.5622,3.5622,3.5622,3.5622,3.5622,3.5622,3.5622,3.5605,3.5351,3.5457,3.5881,3.599,3.6359,3.6981,3.7649,3.8032,3.8216,3.8546,3.8707,3.8707,3.8707,3.8707,3.8707,3.8707,3.8707,3.8707,3.8707,3.8707,3.8707,3.8707,3.8707,3.8707,3.8707,3.8707,3.8707,3.8707,3.8707,3.8707,3.8707,3.8707,3.8707,3.8707,3.8707,3.8707,3.8707,3.8707,3.8707,3.8707,3.8707,3.8707,3.8707,3.8707,3.8707,3.8707,3.8707,3.8707,3.8707,3.8707,3.8707,3.8707,3.8707,3.8707,3.8707,3.8707,3.8707,3.8707,3.8707,3.8707,3.8707,3.8175,3.79,3.79,3.7367,3.6964,3.6707,3.6982,3.711,1.9798,1.9952,1.9978,1.9208,1.8938,1.8614,1.7836,1.7827,1.8016,1.8204,1.8518,1.8832,1.9045,1.8907,1.8719,1.853,1.9278,1.9649,0.0,1.9625,2.0004,1.9612,2.1873,2.3734,2.4491,2.5885,2.7437,2.9147,2.9302,3.0057,3.1799,3.2594,3.3355,3.4083,3.4827,3.5351,3.5622,3.5622,3.5622,3.5622,3.5622,3.5622,3.5605,3.5351,3.5216,3.5216,3.5574,3.5852,3.6058,3.7011,3.7578,3.7928,3.8267,3.8546,3.8707,3.8707,3.8707,3.8707,3.8707,3.8707,3.8707,3.8707,3.8707,3.8707,3.8707,3.8707,3.8707,3.8707,3.8707,3.8707,3.8707,3.8707,3.8707,3.8707,3.8707,3.8707,3.8707,3.8707,3.8707,3.8707,3.8707,3.8707,3.8707,3.8707,3.8707,3.8707,3.8707,3.8707,3.8707,3.8707,3.8707,3.8707,3.8707,3.8707,3.8707,3.8707,3.8707,3.8707,3.8707,3.8707,3.8707,3.8707,3.8579,3.8267,3.7753,3.7379,3.7055,3.6541,3.6138,3.5844,3.5844,3.5679]}]]